<?xml version="1.0" encoding="UTF-8" standalone="no" ?>
<gpx xmlns="http://www.topografix.com/GPX/1/1" xmlns:xsi="http://www.w3.org/2001/XMLSchema-instance" xsi:schemaLocation="http://www.topografix.com/GPX/1/1 http://www.topografix.com/GPX/1/1/gpx.xsd" version="1.1" creator="VisuGPX - https://www.visugpx.com">
  <metadata>
    <name>Mont Jovet par le Mont des Archers</name>
    <desc><![CDATA[Départ de ND du pré]]></desc>
  </metadata>
  <trk>
    <name><![CDATA[Tracé actuel: 01 MARS 2016 08:52]]></name>
    <trkseg>
      <trkpt lat="45.51004" lon="6.59387">
        <ele>1200.82</ele>
        <time>2016-03-01T07:52:52Z</time>
      </trkpt>
      <trkpt lat="45.50996" lon="6.59384">
        <ele>1202.27</ele>
        <time>2016-03-01T07:53:26Z</time>
      </trkpt>
      <trkpt lat="45.50999" lon="6.59382">
        <ele>1203.71</ele>
        <time>2016-03-01T07:53:59Z</time>
      </trkpt>
      <trkpt lat="45.50998" lon="6.59384">
        <ele>1204.67</ele>
        <time>2016-03-01T07:54:26Z</time>
      </trkpt>
      <trkpt lat="45.51002" lon="6.59383">
        <ele>1206.11</ele>
        <time>2016-03-01T07:55:00Z</time>
      </trkpt>
      <trkpt lat="45.51002" lon="6.59384">
        <ele>1206.59</ele>
        <time>2016-03-01T07:55:20Z</time>
      </trkpt>
      <trkpt lat="45.51001" lon="6.59381">
        <ele>1207.55</ele>
        <time>2016-03-01T07:55:39Z</time>
      </trkpt>
      <trkpt lat="45.51002" lon="6.59377">
        <ele>1208.51</ele>
        <time>2016-03-01T07:56:08Z</time>
      </trkpt>
      <trkpt lat="45.51001" lon="6.59381">
        <ele>1209.48</ele>
        <time>2016-03-01T07:56:31Z</time>
      </trkpt>
      <trkpt lat="45.50998" lon="6.59379">
        <ele>1209.96</ele>
        <time>2016-03-01T07:56:42Z</time>
      </trkpt>
      <trkpt lat="45.50998" lon="6.59375">
        <ele>1210.44</ele>
        <time>2016-03-01T07:57:00Z</time>
      </trkpt>
      <trkpt lat="45.50997" lon="6.59376">
        <ele>1211.4</ele>
        <time>2016-03-01T07:57:04Z</time>
      </trkpt>
      <trkpt lat="45.50999" lon="6.59379">
        <ele>1212.84</ele>
        <time>2016-03-01T07:57:21Z</time>
      </trkpt>
      <trkpt lat="45.50997" lon="6.59381">
        <ele>1213.32</ele>
        <time>2016-03-01T07:57:40Z</time>
      </trkpt>
      <trkpt lat="45.50997" lon="6.59384">
        <ele>1213.32</ele>
        <time>2016-03-01T07:57:45Z</time>
      </trkpt>
      <trkpt lat="45.50997" lon="6.59394">
        <ele>1213.8</ele>
        <time>2016-03-01T07:57:52Z</time>
      </trkpt>
      <trkpt lat="45.50997" lon="6.59412">
        <ele>1216.21</ele>
        <time>2016-03-01T07:58:05Z</time>
      </trkpt>
      <trkpt lat="45.50996" lon="6.59414">
        <ele>1217.17</ele>
        <time>2016-03-01T07:58:08Z</time>
      </trkpt>
      <trkpt lat="45.50991" lon="6.59417">
        <ele>1217.17</ele>
        <time>2016-03-01T07:58:15Z</time>
      </trkpt>
      <trkpt lat="45.50983" lon="6.59418">
        <ele>1217.65</ele>
        <time>2016-03-01T07:58:23Z</time>
      </trkpt>
      <trkpt lat="45.50982" lon="6.59411">
        <ele>1218.13</ele>
        <time>2016-03-01T07:58:37Z</time>
      </trkpt>
      <trkpt lat="45.50983" lon="6.59417">
        <ele>1218.13</ele>
        <time>2016-03-01T07:58:47Z</time>
      </trkpt>
      <trkpt lat="45.50981" lon="6.59414">
        <ele>1218.61</ele>
        <time>2016-03-01T07:58:59Z</time>
      </trkpt>
      <trkpt lat="45.5098" lon="6.59412">
        <ele>1217.65</ele>
        <time>2016-03-01T07:59:12Z</time>
      </trkpt>
      <trkpt lat="45.50978" lon="6.59414">
        <ele>1218.13</ele>
        <time>2016-03-01T07:59:41Z</time>
      </trkpt>
      <trkpt lat="45.50978" lon="6.59414">
        <ele>1220.05</ele>
        <time>2016-03-01T07:59:43Z</time>
      </trkpt>
      <trkpt lat="45.50978" lon="6.59417">
        <ele>1220.53</ele>
        <time>2016-03-01T08:00:04Z</time>
      </trkpt>
      <trkpt lat="45.50979" lon="6.59416">
        <ele>1221.01</ele>
        <time>2016-03-01T08:00:18Z</time>
      </trkpt>
      <trkpt lat="45.50978" lon="6.59415">
        <ele>1221.97</ele>
        <time>2016-03-01T08:00:30Z</time>
      </trkpt>
      <trkpt lat="45.50979" lon="6.59415">
        <ele>1222.45</ele>
        <time>2016-03-01T08:00:51Z</time>
      </trkpt>
      <trkpt lat="45.50975" lon="6.59417">
        <ele>1222.93</ele>
        <time>2016-03-01T08:01:13Z</time>
      </trkpt>
      <trkpt lat="45.50973" lon="6.59417">
        <ele>1222.93</ele>
        <time>2016-03-01T08:01:15Z</time>
      </trkpt>
      <trkpt lat="45.50962" lon="6.5942">
        <ele>1223.9</ele>
        <time>2016-03-01T08:01:28Z</time>
      </trkpt>
      <trkpt lat="45.50952" lon="6.59432">
        <ele>1227.26</ele>
        <time>2016-03-01T08:01:43Z</time>
      </trkpt>
      <trkpt lat="45.50946" lon="6.59438">
        <ele>1228.7</ele>
        <time>2016-03-01T08:01:52Z</time>
      </trkpt>
      <trkpt lat="45.50937" lon="6.59446">
        <ele>1230.62</ele>
        <time>2016-03-01T08:02:03Z</time>
      </trkpt>
      <trkpt lat="45.50926" lon="6.59459">
        <ele>1233.51</ele>
        <time>2016-03-01T08:02:20Z</time>
      </trkpt>
      <trkpt lat="45.50921" lon="6.59468">
        <ele>1235.91</ele>
        <time>2016-03-01T08:02:32Z</time>
      </trkpt>
      <trkpt lat="45.50916" lon="6.5948">
        <ele>1239.28</ele>
        <time>2016-03-01T08:02:44Z</time>
      </trkpt>
      <trkpt lat="45.50913" lon="6.59492">
        <ele>1242.16</ele>
        <time>2016-03-01T08:02:57Z</time>
      </trkpt>
      <trkpt lat="45.50909" lon="6.59504">
        <ele>1244.56</ele>
        <time>2016-03-01T08:03:10Z</time>
      </trkpt>
      <trkpt lat="45.50904" lon="6.59513">
        <ele>1248.41</ele>
        <time>2016-03-01T08:03:23Z</time>
      </trkpt>
      <trkpt lat="45.50897" lon="6.59525">
        <ele>1251.77</ele>
        <time>2016-03-01T08:03:36Z</time>
      </trkpt>
      <trkpt lat="45.50891" lon="6.5953">
        <ele>1254.66</ele>
        <time>2016-03-01T08:03:48Z</time>
      </trkpt>
      <trkpt lat="45.50882" lon="6.59537">
        <ele>1258.02</ele>
        <time>2016-03-01T08:04:04Z</time>
      </trkpt>
      <trkpt lat="45.50879" lon="6.59548">
        <ele>1261.39</ele>
        <time>2016-03-01T08:04:19Z</time>
      </trkpt>
      <trkpt lat="45.50876" lon="6.59562">
        <ele>1265.23</ele>
        <time>2016-03-01T08:04:33Z</time>
      </trkpt>
      <trkpt lat="45.5087" lon="6.59562">
        <ele>1267.64</ele>
        <time>2016-03-01T08:04:44Z</time>
      </trkpt>
      <trkpt lat="45.50863" lon="6.59562">
        <ele>1270.52</ele>
        <time>2016-03-01T08:04:59Z</time>
      </trkpt>
      <trkpt lat="45.50863" lon="6.59571">
        <ele>1272.44</ele>
        <time>2016-03-01T08:05:11Z</time>
      </trkpt>
      <trkpt lat="45.50864" lon="6.59581">
        <ele>1275.33</ele>
        <time>2016-03-01T08:05:23Z</time>
      </trkpt>
      <trkpt lat="45.50861" lon="6.59583">
        <ele>1277.73</ele>
        <time>2016-03-01T08:05:34Z</time>
      </trkpt>
      <trkpt lat="45.50851" lon="6.59582">
        <ele>1281.09</ele>
        <time>2016-03-01T08:05:48Z</time>
      </trkpt>
      <trkpt lat="45.50846" lon="6.59581">
        <ele>1282.06</ele>
        <time>2016-03-01T08:05:55Z</time>
      </trkpt>
      <trkpt lat="45.50837" lon="6.5958">
        <ele>1285.9</ele>
        <time>2016-03-01T08:06:07Z</time>
      </trkpt>
      <trkpt lat="45.5083" lon="6.59576">
        <ele>1288.3</ele>
        <time>2016-03-01T08:06:21Z</time>
      </trkpt>
      <trkpt lat="45.50825" lon="6.59574">
        <ele>1290.23</ele>
        <time>2016-03-01T08:06:34Z</time>
      </trkpt>
      <trkpt lat="45.50818" lon="6.59571">
        <ele>1294.07</ele>
        <time>2016-03-01T08:06:49Z</time>
      </trkpt>
      <trkpt lat="45.50812" lon="6.5957">
        <ele>1296.48</ele>
        <time>2016-03-01T08:07:03Z</time>
      </trkpt>
      <trkpt lat="45.50811" lon="6.59577">
        <ele>1297.92</ele>
        <time>2016-03-01T08:07:17Z</time>
      </trkpt>
      <trkpt lat="45.50813" lon="6.59588">
        <ele>1301.28</ele>
        <time>2016-03-01T08:07:30Z</time>
      </trkpt>
      <trkpt lat="45.50812" lon="6.59591">
        <ele>1301.28</ele>
        <time>2016-03-01T08:07:32Z</time>
      </trkpt>
      <trkpt lat="45.50812" lon="6.59605">
        <ele>1303.69</ele>
        <time>2016-03-01T08:07:46Z</time>
      </trkpt>
      <trkpt lat="45.50812" lon="6.59615">
        <ele>1307.05</ele>
        <time>2016-03-01T08:07:59Z</time>
      </trkpt>
      <trkpt lat="45.50814" lon="6.59626">
        <ele>1310.41</ele>
        <time>2016-03-01T08:08:10Z</time>
      </trkpt>
      <trkpt lat="45.50812" lon="6.59636">
        <ele>1312.34</ele>
        <time>2016-03-01T08:08:22Z</time>
      </trkpt>
      <trkpt lat="45.50812" lon="6.59639">
        <ele>1313.78</ele>
        <time>2016-03-01T08:08:25Z</time>
      </trkpt>
      <trkpt lat="45.50806" lon="6.59652">
        <ele>1317.14</ele>
        <time>2016-03-01T08:08:39Z</time>
      </trkpt>
      <trkpt lat="45.50801" lon="6.59662">
        <ele>1320.51</ele>
        <time>2016-03-01T08:08:51Z</time>
      </trkpt>
      <trkpt lat="45.508" lon="6.59665">
        <ele>1321.95</ele>
        <time>2016-03-01T08:09:06Z</time>
      </trkpt>
      <trkpt lat="45.50794" lon="6.59671">
        <ele>1322.91</ele>
        <time>2016-03-01T08:09:17Z</time>
      </trkpt>
      <trkpt lat="45.50789" lon="6.59678">
        <ele>1325.8</ele>
        <time>2016-03-01T08:09:30Z</time>
      </trkpt>
      <trkpt lat="45.50787" lon="6.59681">
        <ele>1327.24</ele>
        <time>2016-03-01T08:09:38Z</time>
      </trkpt>
      <trkpt lat="45.50779" lon="6.59665">
        <ele>1328.68</ele>
        <time>2016-03-01T08:09:49Z</time>
      </trkpt>
      <trkpt lat="45.50775" lon="6.59658">
        <ele>1329.16</ele>
        <time>2016-03-01T08:09:54Z</time>
      </trkpt>
      <trkpt lat="45.50763" lon="6.59635">
        <ele>1331.08</ele>
        <time>2016-03-01T08:10:09Z</time>
      </trkpt>
      <trkpt lat="45.50753" lon="6.59616">
        <ele>1333.49</ele>
        <time>2016-03-01T08:10:22Z</time>
      </trkpt>
      <trkpt lat="45.50742" lon="6.59609">
        <ele>1335.89</ele>
        <time>2016-03-01T08:10:33Z</time>
      </trkpt>
      <trkpt lat="45.50734" lon="6.59608">
        <ele>1339.25</ele>
        <time>2016-03-01T08:10:44Z</time>
      </trkpt>
      <trkpt lat="45.50727" lon="6.59612">
        <ele>1341.66</ele>
        <time>2016-03-01T08:10:54Z</time>
      </trkpt>
      <trkpt lat="45.5072" lon="6.59631">
        <ele>1344.54</ele>
        <time>2016-03-01T08:11:09Z</time>
      </trkpt>
      <trkpt lat="45.50717" lon="6.59643">
        <ele>1347.91</ele>
        <time>2016-03-01T08:11:20Z</time>
      </trkpt>
      <trkpt lat="45.50714" lon="6.59654">
        <ele>1351.27</ele>
        <time>2016-03-01T08:11:31Z</time>
      </trkpt>
      <trkpt lat="45.5071" lon="6.59665">
        <ele>1355.12</ele>
        <time>2016-03-01T08:11:44Z</time>
      </trkpt>
      <trkpt lat="45.50706" lon="6.59675">
        <ele>1358</ele>
        <time>2016-03-01T08:11:55Z</time>
      </trkpt>
      <trkpt lat="45.50701" lon="6.59685">
        <ele>1361.36</ele>
        <time>2016-03-01T08:12:07Z</time>
      </trkpt>
      <trkpt lat="45.50697" lon="6.59695">
        <ele>1365.21</ele>
        <time>2016-03-01T08:12:18Z</time>
      </trkpt>
      <trkpt lat="45.50695" lon="6.59695">
        <ele>1365.21</ele>
        <time>2016-03-01T08:12:22Z</time>
      </trkpt>
      <trkpt lat="45.50691" lon="6.59692">
        <ele>1366.17</ele>
        <time>2016-03-01T08:12:27Z</time>
      </trkpt>
      <trkpt lat="45.50682" lon="6.5969">
        <ele>1369.54</ele>
        <time>2016-03-01T08:12:39Z</time>
      </trkpt>
      <trkpt lat="45.50677" lon="6.59691">
        <ele>1372.9</ele>
        <time>2016-03-01T08:12:51Z</time>
      </trkpt>
      <trkpt lat="45.50676" lon="6.59697">
        <ele>1373.86</ele>
        <time>2016-03-01T08:12:58Z</time>
      </trkpt>
      <trkpt lat="45.50676" lon="6.59703">
        <ele>1374.34</ele>
        <time>2016-03-01T08:13:02Z</time>
      </trkpt>
      <trkpt lat="45.50675" lon="6.5973">
        <ele>1376.75</ele>
        <time>2016-03-01T08:13:18Z</time>
      </trkpt>
      <trkpt lat="45.50671" lon="6.59744">
        <ele>1379.63</ele>
        <time>2016-03-01T08:13:29Z</time>
      </trkpt>
      <trkpt lat="45.5067" lon="6.59746">
        <ele>1380.11</ele>
        <time>2016-03-01T08:13:32Z</time>
      </trkpt>
      <trkpt lat="45.50663" lon="6.59748">
        <ele>1383.47</ele>
        <time>2016-03-01T08:13:42Z</time>
      </trkpt>
      <trkpt lat="45.50654" lon="6.5975">
        <ele>1387.32</ele>
        <time>2016-03-01T08:13:54Z</time>
      </trkpt>
      <trkpt lat="45.50652" lon="6.59763">
        <ele>1390.68</ele>
        <time>2016-03-01T08:14:06Z</time>
      </trkpt>
      <trkpt lat="45.50649" lon="6.59775">
        <ele>1394.05</ele>
        <time>2016-03-01T08:14:18Z</time>
      </trkpt>
      <trkpt lat="45.50649" lon="6.59776">
        <ele>1394.05</ele>
        <time>2016-03-01T08:14:19Z</time>
      </trkpt>
      <trkpt lat="45.50646" lon="6.59787">
        <ele>1397.41</ele>
        <time>2016-03-01T08:14:30Z</time>
      </trkpt>
      <trkpt lat="45.50645" lon="6.59802">
        <ele>1400.78</ele>
        <time>2016-03-01T08:14:43Z</time>
      </trkpt>
      <trkpt lat="45.50644" lon="6.59809">
        <ele>1402.7</ele>
        <time>2016-03-01T08:14:50Z</time>
      </trkpt>
      <trkpt lat="45.50644" lon="6.59815">
        <ele>1404.14</ele>
        <time>2016-03-01T08:14:55Z</time>
      </trkpt>
      <trkpt lat="45.5064" lon="6.59824">
        <ele>1407.03</ele>
        <time>2016-03-01T08:15:09Z</time>
      </trkpt>
      <trkpt lat="45.50634" lon="6.5982">
        <ele>1410.87</ele>
        <time>2016-03-01T08:15:21Z</time>
      </trkpt>
      <trkpt lat="45.50629" lon="6.59819">
        <ele>1412.79</ele>
        <time>2016-03-01T08:15:32Z</time>
      </trkpt>
      <trkpt lat="45.50622" lon="6.59823">
        <ele>1416.16</ele>
        <time>2016-03-01T08:15:42Z</time>
      </trkpt>
      <trkpt lat="45.5062" lon="6.59827">
        <ele>1417.12</ele>
        <time>2016-03-01T08:15:47Z</time>
      </trkpt>
      <trkpt lat="45.50612" lon="6.59832">
        <ele>1420.97</ele>
        <time>2016-03-01T08:15:59Z</time>
      </trkpt>
      <trkpt lat="45.50601" lon="6.59839">
        <ele>1424.81</ele>
        <time>2016-03-01T08:16:13Z</time>
      </trkpt>
      <trkpt lat="45.506" lon="6.59842">
        <ele>1425.29</ele>
        <time>2016-03-01T08:16:16Z</time>
      </trkpt>
      <trkpt lat="45.50597" lon="6.59855">
        <ele>1429.14</ele>
        <time>2016-03-01T08:16:28Z</time>
      </trkpt>
      <trkpt lat="45.50596" lon="6.59867">
        <ele>1432.02</ele>
        <time>2016-03-01T08:16:40Z</time>
      </trkpt>
      <trkpt lat="45.50594" lon="6.59875">
        <ele>1434.42</ele>
        <time>2016-03-01T08:16:48Z</time>
      </trkpt>
      <trkpt lat="45.50586" lon="6.5988">
        <ele>1438.27</ele>
        <time>2016-03-01T08:16:59Z</time>
      </trkpt>
      <trkpt lat="45.50581" lon="6.59887">
        <ele>1441.15</ele>
        <time>2016-03-01T08:17:10Z</time>
      </trkpt>
      <trkpt lat="45.50575" lon="6.59901">
        <ele>1445.48</ele>
        <time>2016-03-01T08:17:23Z</time>
      </trkpt>
      <trkpt lat="45.50575" lon="6.59902">
        <ele>1445.48</ele>
        <time>2016-03-01T08:17:24Z</time>
      </trkpt>
      <trkpt lat="45.50571" lon="6.59922">
        <ele>1447.88</ele>
        <time>2016-03-01T08:17:37Z</time>
      </trkpt>
      <trkpt lat="45.50567" lon="6.59947">
        <ele>1449.32</ele>
        <time>2016-03-01T08:17:52Z</time>
      </trkpt>
      <trkpt lat="45.50565" lon="6.59968">
        <ele>1451.25</ele>
        <time>2016-03-01T08:18:05Z</time>
      </trkpt>
      <trkpt lat="45.50564" lon="6.59992">
        <ele>1454.13</ele>
        <time>2016-03-01T08:18:20Z</time>
      </trkpt>
      <trkpt lat="45.50565" lon="6.60012">
        <ele>1457.02</ele>
        <time>2016-03-01T08:18:34Z</time>
      </trkpt>
      <trkpt lat="45.50565" lon="6.60033">
        <ele>1460.38</ele>
        <time>2016-03-01T08:18:48Z</time>
      </trkpt>
      <trkpt lat="45.50565" lon="6.60053">
        <ele>1463.26</ele>
        <time>2016-03-01T08:19:02Z</time>
      </trkpt>
      <trkpt lat="45.50564" lon="6.60064">
        <ele>1464.71</ele>
        <time>2016-03-01T08:19:10Z</time>
      </trkpt>
      <trkpt lat="45.50563" lon="6.60068">
        <ele>1465.19</ele>
        <time>2016-03-01T08:19:13Z</time>
      </trkpt>
      <trkpt lat="45.50561" lon="6.60085">
        <ele>1469.03</ele>
        <time>2016-03-01T08:19:26Z</time>
      </trkpt>
      <trkpt lat="45.50558" lon="6.60098">
        <ele>1471.92</ele>
        <time>2016-03-01T08:19:36Z</time>
      </trkpt>
      <trkpt lat="45.50557" lon="6.60111">
        <ele>1475.28</ele>
        <time>2016-03-01T08:19:47Z</time>
      </trkpt>
      <trkpt lat="45.50555" lon="6.60124">
        <ele>1478.65</ele>
        <time>2016-03-01T08:19:59Z</time>
      </trkpt>
      <trkpt lat="45.50554" lon="6.6013">
        <ele>1479.61</ele>
        <time>2016-03-01T08:20:04Z</time>
      </trkpt>
      <trkpt lat="45.50555" lon="6.60134">
        <ele>1480.57</ele>
        <time>2016-03-01T08:20:08Z</time>
      </trkpt>
      <trkpt lat="45.50556" lon="6.60137">
        <ele>1481.53</ele>
        <time>2016-03-01T08:20:10Z</time>
      </trkpt>
      <trkpt lat="45.50564" lon="6.60146">
        <ele>1482.97</ele>
        <time>2016-03-01T08:20:20Z</time>
      </trkpt>
      <trkpt lat="45.50569" lon="6.60162">
        <ele>1486.34</ele>
        <time>2016-03-01T08:20:33Z</time>
      </trkpt>
      <trkpt lat="45.50566" lon="6.60175">
        <ele>1489.7</ele>
        <time>2016-03-01T08:20:41Z</time>
      </trkpt>
      <trkpt lat="45.50564" lon="6.60182">
        <ele>1490.66</ele>
        <time>2016-03-01T08:20:45Z</time>
      </trkpt>
      <trkpt lat="45.50563" lon="6.60185">
        <ele>1491.62</ele>
        <time>2016-03-01T08:20:47Z</time>
      </trkpt>
      <trkpt lat="45.50562" lon="6.60186">
        <ele>1491.62</ele>
        <time>2016-03-01T08:20:48Z</time>
      </trkpt>
      <trkpt lat="45.50562" lon="6.60189">
        <ele>1493.55</ele>
        <time>2016-03-01T08:20:50Z</time>
      </trkpt>
      <trkpt lat="45.50562" lon="6.60192">
        <ele>1494.03</ele>
        <time>2016-03-01T08:20:52Z</time>
      </trkpt>
      <trkpt lat="45.50561" lon="6.60198">
        <ele>1495.47</ele>
        <time>2016-03-01T08:20:56Z</time>
      </trkpt>
      <trkpt lat="45.50561" lon="6.602">
        <ele>1496.43</ele>
        <time>2016-03-01T08:20:57Z</time>
      </trkpt>
      <trkpt lat="45.50558" lon="6.60204">
        <ele>1497.87</ele>
        <time>2016-03-01T08:21:01Z</time>
      </trkpt>
      <trkpt lat="45.50553" lon="6.60216">
        <ele>1500.76</ele>
        <time>2016-03-01T08:21:10Z</time>
      </trkpt>
      <trkpt lat="45.50551" lon="6.60224">
        <ele>1502.68</ele>
        <time>2016-03-01T08:21:20Z</time>
      </trkpt>
      <trkpt lat="45.50552" lon="6.60237">
        <ele>1507</ele>
        <time>2016-03-01T08:21:33Z</time>
      </trkpt>
      <trkpt lat="45.50551" lon="6.60238">
        <ele>1507.48</ele>
        <time>2016-03-01T08:21:36Z</time>
      </trkpt>
      <trkpt lat="45.50546" lon="6.60247">
        <ele>1510.85</ele>
        <time>2016-03-01T08:21:45Z</time>
      </trkpt>
      <trkpt lat="45.50537" lon="6.60248">
        <ele>1512.77</ele>
        <time>2016-03-01T08:21:52Z</time>
      </trkpt>
      <trkpt lat="45.50533" lon="6.60251">
        <ele>1513.73</ele>
        <time>2016-03-01T08:21:55Z</time>
      </trkpt>
      <trkpt lat="45.50532" lon="6.60255">
        <ele>1514.69</ele>
        <time>2016-03-01T08:21:57Z</time>
      </trkpt>
      <trkpt lat="45.50532" lon="6.60259">
        <ele>1515.66</ele>
        <time>2016-03-01T08:21:59Z</time>
      </trkpt>
      <trkpt lat="45.50534" lon="6.60262">
        <ele>1516.14</ele>
        <time>2016-03-01T08:22:01Z</time>
      </trkpt>
      <trkpt lat="45.5054" lon="6.60271">
        <ele>1519.5</ele>
        <time>2016-03-01T08:22:10Z</time>
      </trkpt>
      <trkpt lat="45.50548" lon="6.6028">
        <ele>1521.9</ele>
        <time>2016-03-01T08:22:23Z</time>
      </trkpt>
      <trkpt lat="45.5055" lon="6.60285">
        <ele>1523.35</ele>
        <time>2016-03-01T08:22:27Z</time>
      </trkpt>
      <trkpt lat="45.50555" lon="6.60294">
        <ele>1525.27</ele>
        <time>2016-03-01T08:22:36Z</time>
      </trkpt>
      <trkpt lat="45.50556" lon="6.60296">
        <ele>1526.23</ele>
        <time>2016-03-01T08:22:43Z</time>
      </trkpt>
      <trkpt lat="45.50557" lon="6.60303">
        <ele>1527.19</ele>
        <time>2016-03-01T08:22:47Z</time>
      </trkpt>
      <trkpt lat="45.50559" lon="6.60313">
        <ele>1531.52</ele>
        <time>2016-03-01T08:22:56Z</time>
      </trkpt>
      <trkpt lat="45.50567" lon="6.60322">
        <ele>1534.4</ele>
        <time>2016-03-01T08:23:04Z</time>
      </trkpt>
      <trkpt lat="45.50577" lon="6.60324">
        <ele>1537.77</ele>
        <time>2016-03-01T08:23:15Z</time>
      </trkpt>
      <trkpt lat="45.50583" lon="6.60328">
        <ele>1539.69</ele>
        <time>2016-03-01T08:23:23Z</time>
      </trkpt>
      <trkpt lat="45.50583" lon="6.6034">
        <ele>1542.09</ele>
        <time>2016-03-01T08:23:34Z</time>
      </trkpt>
      <trkpt lat="45.50585" lon="6.60343">
        <ele>1543.05</ele>
        <time>2016-03-01T08:23:38Z</time>
      </trkpt>
      <trkpt lat="45.50592" lon="6.60352">
        <ele>1546.42</ele>
        <time>2016-03-01T08:23:46Z</time>
      </trkpt>
      <trkpt lat="45.50594" lon="6.60356">
        <ele>1547.38</ele>
        <time>2016-03-01T08:23:49Z</time>
      </trkpt>
      <trkpt lat="45.50587" lon="6.60363">
        <ele>1551.71</ele>
        <time>2016-03-01T08:23:59Z</time>
      </trkpt>
      <trkpt lat="45.50586" lon="6.60364">
        <ele>1552.19</ele>
        <time>2016-03-01T08:24:01Z</time>
      </trkpt>
      <trkpt lat="45.50584" lon="6.60365">
        <ele>1554.11</ele>
        <time>2016-03-01T08:24:05Z</time>
      </trkpt>
      <trkpt lat="45.50581" lon="6.60366">
        <ele>1556.03</ele>
        <time>2016-03-01T08:24:10Z</time>
      </trkpt>
      <trkpt lat="45.50581" lon="6.60371">
        <ele>1558.43</ele>
        <time>2016-03-01T08:24:22Z</time>
      </trkpt>
      <trkpt lat="45.50589" lon="6.60378">
        <ele>1561.32</ele>
        <time>2016-03-01T08:24:35Z</time>
      </trkpt>
      <trkpt lat="45.50592" lon="6.6038">
        <ele>1562.28</ele>
        <time>2016-03-01T08:24:38Z</time>
      </trkpt>
      <trkpt lat="45.50598" lon="6.6039">
        <ele>1564.68</ele>
        <time>2016-03-01T08:24:45Z</time>
      </trkpt>
      <trkpt lat="45.50605" lon="6.60401">
        <ele>1568.05</ele>
        <time>2016-03-01T08:24:53Z</time>
      </trkpt>
      <trkpt lat="45.50608" lon="6.60402">
        <ele>1569.01</ele>
        <time>2016-03-01T08:24:55Z</time>
      </trkpt>
      <trkpt lat="45.50613" lon="6.60409">
        <ele>1571.89</ele>
        <time>2016-03-01T08:25:01Z</time>
      </trkpt>
      <trkpt lat="45.5062" lon="6.60417">
        <ele>1574.78</ele>
        <time>2016-03-01T08:25:11Z</time>
      </trkpt>
      <trkpt lat="45.50628" lon="6.60425">
        <ele>1577.66</ele>
        <time>2016-03-01T08:25:25Z</time>
      </trkpt>
      <trkpt lat="45.50636" lon="6.60432">
        <ele>1580.54</ele>
        <time>2016-03-01T08:25:37Z</time>
      </trkpt>
      <trkpt lat="45.50637" lon="6.60432">
        <ele>1581.51</ele>
        <time>2016-03-01T08:25:39Z</time>
      </trkpt>
      <trkpt lat="45.50641" lon="6.60436">
        <ele>1582.95</ele>
        <time>2016-03-01T08:25:43Z</time>
      </trkpt>
      <trkpt lat="45.50642" lon="6.60439">
        <ele>1583.91</ele>
        <time>2016-03-01T08:25:45Z</time>
      </trkpt>
      <trkpt lat="45.50644" lon="6.6044">
        <ele>1584.39</ele>
        <time>2016-03-01T08:25:47Z</time>
      </trkpt>
      <trkpt lat="45.50651" lon="6.60445">
        <ele>1587.27</ele>
        <time>2016-03-01T08:25:53Z</time>
      </trkpt>
      <trkpt lat="45.50654" lon="6.60451">
        <ele>1589.68</ele>
        <time>2016-03-01T08:25:58Z</time>
      </trkpt>
      <trkpt lat="45.50651" lon="6.60453">
        <ele>1591.12</ele>
        <time>2016-03-01T08:26:02Z</time>
      </trkpt>
      <trkpt lat="45.50639" lon="6.60459">
        <ele>1594</ele>
        <time>2016-03-01T08:26:15Z</time>
      </trkpt>
      <trkpt lat="45.50629" lon="6.60461">
        <ele>1596.89</ele>
        <time>2016-03-01T08:26:28Z</time>
      </trkpt>
      <trkpt lat="45.50619" lon="6.60463">
        <ele>1598.81</ele>
        <time>2016-03-01T08:26:38Z</time>
      </trkpt>
      <trkpt lat="45.50613" lon="6.60464">
        <ele>1601.21</ele>
        <time>2016-03-01T08:26:42Z</time>
      </trkpt>
      <trkpt lat="45.50602" lon="6.60465">
        <ele>1603.14</ele>
        <time>2016-03-01T08:26:49Z</time>
      </trkpt>
      <trkpt lat="45.50592" lon="6.60466">
        <ele>1605.54</ele>
        <time>2016-03-01T08:26:56Z</time>
      </trkpt>
      <trkpt lat="45.5059" lon="6.60467">
        <ele>1606.02</ele>
        <time>2016-03-01T08:26:58Z</time>
      </trkpt>
      <trkpt lat="45.50578" lon="6.60466">
        <ele>1608.42</ele>
        <time>2016-03-01T08:27:10Z</time>
      </trkpt>
      <trkpt lat="45.5057" lon="6.60464">
        <ele>1609.86</ele>
        <time>2016-03-01T08:27:20Z</time>
      </trkpt>
      <trkpt lat="45.50563" lon="6.60465">
        <ele>1610.83</ele>
        <time>2016-03-01T08:27:29Z</time>
      </trkpt>
      <trkpt lat="45.50569" lon="6.6047">
        <ele>1613.71</ele>
        <time>2016-03-01T08:27:39Z</time>
      </trkpt>
      <trkpt lat="45.50575" lon="6.60478">
        <ele>1616.59</ele>
        <time>2016-03-01T08:27:49Z</time>
      </trkpt>
      <trkpt lat="45.50576" lon="6.60479">
        <ele>1616.59</ele>
        <time>2016-03-01T08:27:50Z</time>
      </trkpt>
      <trkpt lat="45.50586" lon="6.60483">
        <ele>1619.96</ele>
        <time>2016-03-01T08:28:00Z</time>
      </trkpt>
      <trkpt lat="45.50597" lon="6.60492">
        <ele>1622.84</ele>
        <time>2016-03-01T08:28:09Z</time>
      </trkpt>
      <trkpt lat="45.50606" lon="6.60501">
        <ele>1625.73</ele>
        <time>2016-03-01T08:28:22Z</time>
      </trkpt>
      <trkpt lat="45.50601" lon="6.60506">
        <ele>1628.61</ele>
        <time>2016-03-01T08:28:34Z</time>
      </trkpt>
      <trkpt lat="45.50598" lon="6.60507">
        <ele>1629.09</ele>
        <time>2016-03-01T08:28:39Z</time>
      </trkpt>
      <trkpt lat="45.50588" lon="6.60509">
        <ele>1633.42</ele>
        <time>2016-03-01T08:28:49Z</time>
      </trkpt>
      <trkpt lat="45.50581" lon="6.60512">
        <ele>1634.86</ele>
        <time>2016-03-01T08:28:54Z</time>
      </trkpt>
      <trkpt lat="45.50578" lon="6.60515">
        <ele>1636.78</ele>
        <time>2016-03-01T08:28:57Z</time>
      </trkpt>
      <trkpt lat="45.50568" lon="6.60519">
        <ele>1640.15</ele>
        <time>2016-03-01T08:29:06Z</time>
      </trkpt>
      <trkpt lat="45.5056" lon="6.60521">
        <ele>1642.55</ele>
        <time>2016-03-01T08:29:20Z</time>
      </trkpt>
      <trkpt lat="45.50552" lon="6.60522">
        <ele>1645.43</ele>
        <time>2016-03-01T08:29:31Z</time>
      </trkpt>
      <trkpt lat="45.50542" lon="6.60526">
        <ele>1648.8</ele>
        <time>2016-03-01T08:29:42Z</time>
      </trkpt>
      <trkpt lat="45.50541" lon="6.60527">
        <ele>1648.8</ele>
        <time>2016-03-01T08:29:43Z</time>
      </trkpt>
      <trkpt lat="45.50537" lon="6.60529">
        <ele>1650.24</ele>
        <time>2016-03-01T08:29:47Z</time>
      </trkpt>
      <trkpt lat="45.5052" lon="6.60539">
        <ele>1654.09</ele>
        <time>2016-03-01T08:29:57Z</time>
      </trkpt>
      <trkpt lat="45.50511" lon="6.60546">
        <ele>1656.49</ele>
        <time>2016-03-01T08:30:07Z</time>
      </trkpt>
      <trkpt lat="45.50508" lon="6.60553">
        <ele>1658.89</ele>
        <time>2016-03-01T08:30:20Z</time>
      </trkpt>
      <trkpt lat="45.50509" lon="6.60555">
        <ele>1659.85</ele>
        <time>2016-03-01T08:30:28Z</time>
      </trkpt>
      <trkpt lat="45.5051" lon="6.60554">
        <ele>1662.26</ele>
        <time>2016-03-01T08:30:38Z</time>
      </trkpt>
      <trkpt lat="45.50515" lon="6.60553">
        <ele>1664.66</ele>
        <time>2016-03-01T08:30:49Z</time>
      </trkpt>
      <trkpt lat="45.5052" lon="6.60553">
        <ele>1667.06</ele>
        <time>2016-03-01T08:31:00Z</time>
      </trkpt>
      <trkpt lat="45.50519" lon="6.6056">
        <ele>1669.47</ele>
        <time>2016-03-01T08:31:13Z</time>
      </trkpt>
      <trkpt lat="45.50515" lon="6.60568">
        <ele>1671.87</ele>
        <time>2016-03-01T08:31:25Z</time>
      </trkpt>
      <trkpt lat="45.50511" lon="6.60575">
        <ele>1675.23</ele>
        <time>2016-03-01T08:31:38Z</time>
      </trkpt>
      <trkpt lat="45.50518" lon="6.60573">
        <ele>1677.16</ele>
        <time>2016-03-01T08:31:51Z</time>
      </trkpt>
      <trkpt lat="45.50525" lon="6.60577">
        <ele>1680.04</ele>
        <time>2016-03-01T08:32:04Z</time>
      </trkpt>
      <trkpt lat="45.50536" lon="6.60584">
        <ele>1682.44</ele>
        <time>2016-03-01T08:32:17Z</time>
      </trkpt>
      <trkpt lat="45.50541" lon="6.6059">
        <ele>1685.33</ele>
        <time>2016-03-01T08:32:27Z</time>
      </trkpt>
      <trkpt lat="45.5055" lon="6.60595">
        <ele>1687.73</ele>
        <time>2016-03-01T08:32:41Z</time>
      </trkpt>
      <trkpt lat="45.50555" lon="6.60603">
        <ele>1690.14</ele>
        <time>2016-03-01T08:32:53Z</time>
      </trkpt>
      <trkpt lat="45.5055" lon="6.60607">
        <ele>1692.54</ele>
        <time>2016-03-01T08:33:05Z</time>
      </trkpt>
      <trkpt lat="45.50549" lon="6.60615">
        <ele>1694.46</ele>
        <time>2016-03-01T08:33:16Z</time>
      </trkpt>
      <trkpt lat="45.50555" lon="6.60619">
        <ele>1696.38</ele>
        <time>2016-03-01T08:33:26Z</time>
      </trkpt>
      <trkpt lat="45.50565" lon="6.60624">
        <ele>1699.75</ele>
        <time>2016-03-01T08:33:42Z</time>
      </trkpt>
      <trkpt lat="45.50568" lon="6.60625">
        <ele>1700.71</ele>
        <time>2016-03-01T08:33:47Z</time>
      </trkpt>
      <trkpt lat="45.5057" lon="6.60626">
        <ele>1701.67</ele>
        <time>2016-03-01T08:33:50Z</time>
      </trkpt>
      <trkpt lat="45.50579" lon="6.60628">
        <ele>1704.07</ele>
        <time>2016-03-01T08:34:03Z</time>
      </trkpt>
      <trkpt lat="45.50578" lon="6.60635">
        <ele>1706.48</ele>
        <time>2016-03-01T08:34:17Z</time>
      </trkpt>
      <trkpt lat="45.50572" lon="6.60641">
        <ele>1709.36</ele>
        <time>2016-03-01T08:34:30Z</time>
      </trkpt>
      <trkpt lat="45.50569" lon="6.60655">
        <ele>1712.73</ele>
        <time>2016-03-01T08:34:47Z</time>
      </trkpt>
      <trkpt lat="45.50567" lon="6.60663">
        <ele>1715.13</ele>
        <time>2016-03-01T08:34:57Z</time>
      </trkpt>
      <trkpt lat="45.50565" lon="6.60667">
        <ele>1715.61</ele>
        <time>2016-03-01T08:35:02Z</time>
      </trkpt>
      <trkpt lat="45.50559" lon="6.60676">
        <ele>1718.49</ele>
        <time>2016-03-01T08:35:15Z</time>
      </trkpt>
      <trkpt lat="45.5055" lon="6.60685">
        <ele>1720.9</ele>
        <time>2016-03-01T08:35:30Z</time>
      </trkpt>
      <trkpt lat="45.50546" lon="6.60691">
        <ele>1721.86</ele>
        <time>2016-03-01T08:35:38Z</time>
      </trkpt>
      <trkpt lat="45.50536" lon="6.607">
        <ele>1724.74</ele>
        <time>2016-03-01T08:35:52Z</time>
      </trkpt>
      <trkpt lat="45.50526" lon="6.60702">
        <ele>1727.15</ele>
        <time>2016-03-01T08:36:06Z</time>
      </trkpt>
      <trkpt lat="45.50517" lon="6.60706">
        <ele>1730.03</ele>
        <time>2016-03-01T08:36:21Z</time>
      </trkpt>
      <trkpt lat="45.5051" lon="6.60713">
        <ele>1732.91</ele>
        <time>2016-03-01T08:36:35Z</time>
      </trkpt>
      <trkpt lat="45.50504" lon="6.60723">
        <ele>1735.8</ele>
        <time>2016-03-01T08:36:48Z</time>
      </trkpt>
      <trkpt lat="45.50498" lon="6.60729">
        <ele>1739.16</ele>
        <time>2016-03-01T08:37:03Z</time>
      </trkpt>
      <trkpt lat="45.50492" lon="6.60737">
        <ele>1742.05</ele>
        <time>2016-03-01T08:37:16Z</time>
      </trkpt>
      <trkpt lat="45.50489" lon="6.60747">
        <ele>1745.41</ele>
        <time>2016-03-01T08:37:31Z</time>
      </trkpt>
      <trkpt lat="45.50483" lon="6.60759">
        <ele>1748.29</ele>
        <time>2016-03-01T08:37:47Z</time>
      </trkpt>
      <trkpt lat="45.50475" lon="6.60767">
        <ele>1750.7</ele>
        <time>2016-03-01T08:38:03Z</time>
      </trkpt>
      <trkpt lat="45.50471" lon="6.60775">
        <ele>1754.06</ele>
        <time>2016-03-01T08:38:15Z</time>
      </trkpt>
      <trkpt lat="45.50467" lon="6.60785">
        <ele>1756.95</ele>
        <time>2016-03-01T08:38:29Z</time>
      </trkpt>
      <trkpt lat="45.50457" lon="6.60795">
        <ele>1759.83</ele>
        <time>2016-03-01T08:38:45Z</time>
      </trkpt>
      <trkpt lat="45.50449" lon="6.60799">
        <ele>1762.71</ele>
        <time>2016-03-01T08:38:57Z</time>
      </trkpt>
      <trkpt lat="45.50436" lon="6.60803">
        <ele>1765.6</ele>
        <time>2016-03-01T08:39:14Z</time>
      </trkpt>
      <trkpt lat="45.50425" lon="6.60809">
        <ele>1768.48</ele>
        <time>2016-03-01T08:39:29Z</time>
      </trkpt>
      <trkpt lat="45.50415" lon="6.60818">
        <ele>1771.37</ele>
        <time>2016-03-01T08:39:44Z</time>
      </trkpt>
      <trkpt lat="45.50411" lon="6.60823">
        <ele>1772.33</ele>
        <time>2016-03-01T08:39:51Z</time>
      </trkpt>
      <trkpt lat="45.50405" lon="6.60831">
        <ele>1774.73</ele>
        <time>2016-03-01T08:40:03Z</time>
      </trkpt>
      <trkpt lat="45.50397" lon="6.6084">
        <ele>1778.1</ele>
        <time>2016-03-01T08:40:17Z</time>
      </trkpt>
      <trkpt lat="45.50391" lon="6.60849">
        <ele>1780.5</ele>
        <time>2016-03-01T08:40:31Z</time>
      </trkpt>
      <trkpt lat="45.50382" lon="6.60855">
        <ele>1783.38</ele>
        <time>2016-03-01T08:40:39Z</time>
      </trkpt>
      <trkpt lat="45.50381" lon="6.60858">
        <ele>1784.34</ele>
        <time>2016-03-01T08:40:41Z</time>
      </trkpt>
      <trkpt lat="45.5038" lon="6.60859">
        <ele>1784.34</ele>
        <time>2016-03-01T08:40:42Z</time>
      </trkpt>
      <trkpt lat="45.50378" lon="6.60863">
        <ele>1785.79</ele>
        <time>2016-03-01T08:40:45Z</time>
      </trkpt>
      <trkpt lat="45.50378" lon="6.60864">
        <ele>1785.79</ele>
        <time>2016-03-01T08:40:46Z</time>
      </trkpt>
      <trkpt lat="45.50373" lon="6.60866">
        <ele>1787.71</ele>
        <time>2016-03-01T08:40:52Z</time>
      </trkpt>
      <trkpt lat="45.50377" lon="6.60871">
        <ele>1788.67</ele>
        <time>2016-03-01T08:40:56Z</time>
      </trkpt>
      <trkpt lat="45.50381" lon="6.60876">
        <ele>1790.11</ele>
        <time>2016-03-01T08:41:00Z</time>
      </trkpt>
      <trkpt lat="45.5038" lon="6.60884">
        <ele>1792.52</ele>
        <time>2016-03-01T08:41:07Z</time>
      </trkpt>
      <trkpt lat="45.50374" lon="6.60892">
        <ele>1795.4</ele>
        <time>2016-03-01T08:41:21Z</time>
      </trkpt>
      <trkpt lat="45.50365" lon="6.60892">
        <ele>1798.76</ele>
        <time>2016-03-01T08:41:33Z</time>
      </trkpt>
      <trkpt lat="45.50363" lon="6.60892">
        <ele>1798.76</ele>
        <time>2016-03-01T08:41:36Z</time>
      </trkpt>
      <trkpt lat="45.50353" lon="6.60893">
        <ele>1802.13</ele>
        <time>2016-03-01T08:41:44Z</time>
      </trkpt>
      <trkpt lat="45.50348" lon="6.60896">
        <ele>1804.53</ele>
        <time>2016-03-01T08:41:48Z</time>
      </trkpt>
      <trkpt lat="45.50338" lon="6.60899">
        <ele>1807.9</ele>
        <time>2016-03-01T08:41:56Z</time>
      </trkpt>
      <trkpt lat="45.50329" lon="6.60904">
        <ele>1810.3</ele>
        <time>2016-03-01T08:42:03Z</time>
      </trkpt>
      <trkpt lat="45.50326" lon="6.60905">
        <ele>1811.26</ele>
        <time>2016-03-01T08:42:05Z</time>
      </trkpt>
      <trkpt lat="45.5032" lon="6.6091">
        <ele>1814.63</ele>
        <time>2016-03-01T08:42:17Z</time>
      </trkpt>
      <trkpt lat="45.50312" lon="6.60913">
        <ele>1817.03</ele>
        <time>2016-03-01T08:42:28Z</time>
      </trkpt>
      <trkpt lat="45.50307" lon="6.60916">
        <ele>1820.39</ele>
        <time>2016-03-01T08:42:39Z</time>
      </trkpt>
      <trkpt lat="45.50305" lon="6.60919">
        <ele>1821.84</ele>
        <time>2016-03-01T08:42:42Z</time>
      </trkpt>
      <trkpt lat="45.50294" lon="6.60929">
        <ele>1825.68</ele>
        <time>2016-03-01T08:42:52Z</time>
      </trkpt>
      <trkpt lat="45.50293" lon="6.60932">
        <ele>1826.16</ele>
        <time>2016-03-01T08:42:54Z</time>
      </trkpt>
      <trkpt lat="45.50286" lon="6.60941">
        <ele>1829.53</ele>
        <time>2016-03-01T08:43:01Z</time>
      </trkpt>
      <trkpt lat="45.50268" lon="6.60952">
        <ele>1832.41</ele>
        <time>2016-03-01T08:43:17Z</time>
      </trkpt>
      <trkpt lat="45.50254" lon="6.60954">
        <ele>1834.33</ele>
        <time>2016-03-01T08:43:32Z</time>
      </trkpt>
      <trkpt lat="45.50244" lon="6.60952">
        <ele>1837.7</ele>
        <time>2016-03-01T08:43:41Z</time>
      </trkpt>
      <trkpt lat="45.50238" lon="6.60956">
        <ele>1841.06</ele>
        <time>2016-03-01T08:43:47Z</time>
      </trkpt>
      <trkpt lat="45.50237" lon="6.60956">
        <ele>1841.06</ele>
        <time>2016-03-01T08:43:48Z</time>
      </trkpt>
      <trkpt lat="45.50236" lon="6.60962">
        <ele>1842.98</ele>
        <time>2016-03-01T08:43:52Z</time>
      </trkpt>
      <trkpt lat="45.50238" lon="6.60969">
        <ele>1843.95</ele>
        <time>2016-03-01T08:43:57Z</time>
      </trkpt>
      <trkpt lat="45.50247" lon="6.60982">
        <ele>1847.31</ele>
        <time>2016-03-01T08:44:10Z</time>
      </trkpt>
      <trkpt lat="45.5025" lon="6.6099">
        <ele>1849.23</ele>
        <time>2016-03-01T08:44:20Z</time>
      </trkpt>
      <trkpt lat="45.50253" lon="6.61003">
        <ele>1850.19</ele>
        <time>2016-03-01T08:44:31Z</time>
      </trkpt>
      <trkpt lat="45.50257" lon="6.61005">
        <ele>1852.12</ele>
        <time>2016-03-01T08:44:38Z</time>
      </trkpt>
      <trkpt lat="45.50258" lon="6.61011">
        <ele>1854.04</ele>
        <time>2016-03-01T08:44:42Z</time>
      </trkpt>
      <trkpt lat="45.5025" lon="6.61014">
        <ele>1854.52</ele>
        <time>2016-03-01T08:44:47Z</time>
      </trkpt>
      <trkpt lat="45.50248" lon="6.61013">
        <ele>1854.52</ele>
        <time>2016-03-01T08:44:48Z</time>
      </trkpt>
      <trkpt lat="45.50247" lon="6.61013">
        <ele>1854.52</ele>
        <time>2016-03-01T08:44:49Z</time>
      </trkpt>
      <trkpt lat="45.50245" lon="6.61013">
        <ele>1854.52</ele>
        <time>2016-03-01T08:44:50Z</time>
      </trkpt>
      <trkpt lat="45.50243" lon="6.61012">
        <ele>1854.52</ele>
        <time>2016-03-01T08:44:51Z</time>
      </trkpt>
      <trkpt lat="45.50241" lon="6.61011">
        <ele>1854.52</ele>
        <time>2016-03-01T08:44:52Z</time>
      </trkpt>
      <trkpt lat="45.50225" lon="6.61013">
        <ele>1857.4</ele>
        <time>2016-03-01T08:45:06Z</time>
      </trkpt>
      <trkpt lat="45.50218" lon="6.61014">
        <ele>1859.33</ele>
        <time>2016-03-01T08:45:16Z</time>
      </trkpt>
      <trkpt lat="45.50209" lon="6.61018">
        <ele>1862.69</ele>
        <time>2016-03-01T08:45:29Z</time>
      </trkpt>
      <trkpt lat="45.50206" lon="6.61022">
        <ele>1864.61</ele>
        <time>2016-03-01T08:45:37Z</time>
      </trkpt>
      <trkpt lat="45.50199" lon="6.61038">
        <ele>1867.98</ele>
        <time>2016-03-01T08:45:48Z</time>
      </trkpt>
      <trkpt lat="45.50197" lon="6.6104">
        <ele>1868.46</ele>
        <time>2016-03-01T08:45:50Z</time>
      </trkpt>
      <trkpt lat="45.50185" lon="6.61044">
        <ele>1871.82</ele>
        <time>2016-03-01T08:46:00Z</time>
      </trkpt>
      <trkpt lat="45.50179" lon="6.61046">
        <ele>1873.27</ele>
        <time>2016-03-01T08:46:05Z</time>
      </trkpt>
      <trkpt lat="45.5017" lon="6.6105">
        <ele>1875.19</ele>
        <time>2016-03-01T08:46:19Z</time>
      </trkpt>
      <trkpt lat="45.50161" lon="6.61057">
        <ele>1876.63</ele>
        <time>2016-03-01T08:46:30Z</time>
      </trkpt>
      <trkpt lat="45.50151" lon="6.61087">
        <ele>1878.07</ele>
        <time>2016-03-01T08:46:45Z</time>
      </trkpt>
      <trkpt lat="45.5015" lon="6.61118">
        <ele>1881.44</ele>
        <time>2016-03-01T08:46:59Z</time>
      </trkpt>
      <trkpt lat="45.50149" lon="6.61145">
        <ele>1883.84</ele>
        <time>2016-03-01T08:47:13Z</time>
      </trkpt>
      <trkpt lat="45.50152" lon="6.61162">
        <ele>1886.24</ele>
        <time>2016-03-01T08:47:29Z</time>
      </trkpt>
      <trkpt lat="45.50154" lon="6.61165">
        <ele>1887.69</ele>
        <time>2016-03-01T08:47:41Z</time>
      </trkpt>
      <trkpt lat="45.50149" lon="6.61162">
        <ele>1889.13</ele>
        <time>2016-03-01T08:47:50Z</time>
      </trkpt>
      <trkpt lat="45.50144" lon="6.61158">
        <ele>1890.09</ele>
        <time>2016-03-01T08:47:54Z</time>
      </trkpt>
      <trkpt lat="45.50141" lon="6.61151">
        <ele>1891.53</ele>
        <time>2016-03-01T08:47:58Z</time>
      </trkpt>
      <trkpt lat="45.5014" lon="6.61152">
        <ele>1892.01</ele>
        <time>2016-03-01T08:48:01Z</time>
      </trkpt>
      <trkpt lat="45.50141" lon="6.61167">
        <ele>1894.9</ele>
        <time>2016-03-01T08:48:14Z</time>
      </trkpt>
      <trkpt lat="45.50139" lon="6.61178">
        <ele>1897.78</ele>
        <time>2016-03-01T08:48:26Z</time>
      </trkpt>
      <trkpt lat="45.50136" lon="6.61178">
        <ele>1898.26</ele>
        <time>2016-03-01T08:48:31Z</time>
      </trkpt>
      <trkpt lat="45.50132" lon="6.61181">
        <ele>1899.7</ele>
        <time>2016-03-01T08:48:37Z</time>
      </trkpt>
      <trkpt lat="45.50128" lon="6.61185">
        <ele>1900.66</ele>
        <time>2016-03-01T08:48:41Z</time>
      </trkpt>
      <trkpt lat="45.50126" lon="6.61191">
        <ele>1902.11</ele>
        <time>2016-03-01T08:48:45Z</time>
      </trkpt>
      <trkpt lat="45.50125" lon="6.61195">
        <ele>1903.55</ele>
        <time>2016-03-01T08:48:48Z</time>
      </trkpt>
      <trkpt lat="45.50131" lon="6.61215">
        <ele>1906.91</ele>
        <time>2016-03-01T08:49:00Z</time>
      </trkpt>
      <trkpt lat="45.50135" lon="6.61228">
        <ele>1910.76</ele>
        <time>2016-03-01T08:49:11Z</time>
      </trkpt>
      <trkpt lat="45.50136" lon="6.61241">
        <ele>1913.16</ele>
        <time>2016-03-01T08:49:24Z</time>
      </trkpt>
      <trkpt lat="45.50136" lon="6.61251">
        <ele>1916.04</ele>
        <time>2016-03-01T08:49:35Z</time>
      </trkpt>
      <trkpt lat="45.50137" lon="6.61254">
        <ele>1916.04</ele>
        <time>2016-03-01T08:49:38Z</time>
      </trkpt>
      <trkpt lat="45.50135" lon="6.61263">
        <ele>1918.45</ele>
        <time>2016-03-01T08:49:43Z</time>
      </trkpt>
      <trkpt lat="45.5013" lon="6.61277">
        <ele>1921.33</ele>
        <time>2016-03-01T08:49:51Z</time>
      </trkpt>
      <trkpt lat="45.50124" lon="6.61293">
        <ele>1924.7</ele>
        <time>2016-03-01T08:50:02Z</time>
      </trkpt>
      <trkpt lat="45.50122" lon="6.61304">
        <ele>1927.58</ele>
        <time>2016-03-01T08:50:15Z</time>
      </trkpt>
      <trkpt lat="45.50119" lon="6.61313">
        <ele>1929.98</ele>
        <time>2016-03-01T08:50:24Z</time>
      </trkpt>
      <trkpt lat="45.50115" lon="6.61323">
        <ele>1930.95</ele>
        <time>2016-03-01T08:50:34Z</time>
      </trkpt>
      <trkpt lat="45.50111" lon="6.61338">
        <ele>1933.83</ele>
        <time>2016-03-01T08:50:48Z</time>
      </trkpt>
      <trkpt lat="45.50111" lon="6.61342">
        <ele>1934.31</ele>
        <time>2016-03-01T08:50:51Z</time>
      </trkpt>
      <trkpt lat="45.50102" lon="6.61347">
        <ele>1936.71</ele>
        <time>2016-03-01T08:51:04Z</time>
      </trkpt>
      <trkpt lat="45.501" lon="6.61348">
        <ele>1937.19</ele>
        <time>2016-03-01T08:51:07Z</time>
      </trkpt>
      <trkpt lat="45.50084" lon="6.61352">
        <ele>1939.6</ele>
        <time>2016-03-01T08:51:25Z</time>
      </trkpt>
      <trkpt lat="45.50077" lon="6.61362">
        <ele>1942.96</ele>
        <time>2016-03-01T08:51:38Z</time>
      </trkpt>
      <trkpt lat="45.50073" lon="6.61373">
        <ele>1944.88</ele>
        <time>2016-03-01T08:51:51Z</time>
      </trkpt>
      <trkpt lat="45.5007" lon="6.61386">
        <ele>1947.29</ele>
        <time>2016-03-01T08:52:06Z</time>
      </trkpt>
      <trkpt lat="45.50068" lon="6.61393">
        <ele>1948.73</ele>
        <time>2016-03-01T08:52:13Z</time>
      </trkpt>
      <trkpt lat="45.50066" lon="6.61407">
        <ele>1951.61</ele>
        <time>2016-03-01T08:52:27Z</time>
      </trkpt>
      <trkpt lat="45.50064" lon="6.61421">
        <ele>1954.98</ele>
        <time>2016-03-01T08:52:39Z</time>
      </trkpt>
      <trkpt lat="45.50059" lon="6.61437">
        <ele>1957.86</ele>
        <time>2016-03-01T08:52:54Z</time>
      </trkpt>
      <trkpt lat="45.50055" lon="6.61451">
        <ele>1960.75</ele>
        <time>2016-03-01T08:53:09Z</time>
      </trkpt>
      <trkpt lat="45.50052" lon="6.61455">
        <ele>1962.19</ele>
        <time>2016-03-01T08:53:16Z</time>
      </trkpt>
      <trkpt lat="45.50039" lon="6.61461">
        <ele>1965.55</ele>
        <time>2016-03-01T08:53:32Z</time>
      </trkpt>
      <trkpt lat="45.50027" lon="6.61465">
        <ele>1968.44</ele>
        <time>2016-03-01T08:53:48Z</time>
      </trkpt>
      <trkpt lat="45.50015" lon="6.61462">
        <ele>1971.8</ele>
        <time>2016-03-01T08:54:04Z</time>
      </trkpt>
      <trkpt lat="45.50016" lon="6.61465">
        <ele>1972.28</ele>
        <time>2016-03-01T08:54:22Z</time>
      </trkpt>
      <trkpt lat="45.50016" lon="6.61463">
        <ele>1972.28</ele>
        <time>2016-03-01T08:54:42Z</time>
      </trkpt>
      <trkpt lat="45.5001" lon="6.61462">
        <ele>1974.2</ele>
        <time>2016-03-01T08:54:50Z</time>
      </trkpt>
      <trkpt lat="45.49999" lon="6.61459">
        <ele>1977.57</ele>
        <time>2016-03-01T08:55:02Z</time>
      </trkpt>
      <trkpt lat="45.49995" lon="6.61463">
        <ele>1979.49</ele>
        <time>2016-03-01T08:55:13Z</time>
      </trkpt>
      <trkpt lat="45.49995" lon="6.61464">
        <ele>1979.97</ele>
        <time>2016-03-01T08:55:14Z</time>
      </trkpt>
      <trkpt lat="45.49997" lon="6.61476">
        <ele>1982.86</ele>
        <time>2016-03-01T08:55:25Z</time>
      </trkpt>
      <trkpt lat="45.49998" lon="6.61493">
        <ele>1985.74</ele>
        <time>2016-03-01T08:55:39Z</time>
      </trkpt>
      <trkpt lat="45.49998" lon="6.615">
        <ele>1986.7</ele>
        <time>2016-03-01T08:55:44Z</time>
      </trkpt>
      <trkpt lat="45.5" lon="6.61511">
        <ele>1988.62</ele>
        <time>2016-03-01T08:55:53Z</time>
      </trkpt>
      <trkpt lat="45.50002" lon="6.61525">
        <ele>1990.55</ele>
        <time>2016-03-01T08:56:07Z</time>
      </trkpt>
      <trkpt lat="45.50001" lon="6.61523">
        <ele>1990.55</ele>
        <time>2016-03-01T08:56:31Z</time>
      </trkpt>
      <trkpt lat="45.50001" lon="6.61525">
        <ele>1990.55</ele>
        <time>2016-03-01T08:56:56Z</time>
      </trkpt>
      <trkpt lat="45.50001" lon="6.61526">
        <ele>1990.55</ele>
        <time>2016-03-01T08:57:19Z</time>
      </trkpt>
      <trkpt lat="45.50002" lon="6.6153">
        <ele>1991.03</ele>
        <time>2016-03-01T08:57:25Z</time>
      </trkpt>
      <trkpt lat="45.50002" lon="6.61537">
        <ele>1991.03</ele>
        <time>2016-03-01T08:57:39Z</time>
      </trkpt>
      <trkpt lat="45.5" lon="6.61549">
        <ele>1991.51</ele>
        <time>2016-03-01T08:57:58Z</time>
      </trkpt>
      <trkpt lat="45.49995" lon="6.61568">
        <ele>1993.91</ele>
        <time>2016-03-01T08:58:13Z</time>
      </trkpt>
      <trkpt lat="45.49995" lon="6.61584">
        <ele>1996.8</ele>
        <time>2016-03-01T08:58:27Z</time>
      </trkpt>
      <trkpt lat="45.49998" lon="6.61607">
        <ele>1999.68</ele>
        <time>2016-03-01T08:58:43Z</time>
      </trkpt>
      <trkpt lat="45.50002" lon="6.61622">
        <ele>2002.08</ele>
        <time>2016-03-01T08:58:56Z</time>
      </trkpt>
      <trkpt lat="45.50008" lon="6.61634">
        <ele>2004.49</ele>
        <time>2016-03-01T08:59:10Z</time>
      </trkpt>
      <trkpt lat="45.50011" lon="6.6164">
        <ele>2006.89</ele>
        <time>2016-03-01T08:59:17Z</time>
      </trkpt>
      <trkpt lat="45.50017" lon="6.61654">
        <ele>2009.77</ele>
        <time>2016-03-01T08:59:32Z</time>
      </trkpt>
      <trkpt lat="45.50018" lon="6.61657">
        <ele>2010.73</ele>
        <time>2016-03-01T08:59:36Z</time>
      </trkpt>
      <trkpt lat="45.50023" lon="6.6167">
        <ele>2013.62</ele>
        <time>2016-03-01T08:59:50Z</time>
      </trkpt>
      <trkpt lat="45.50028" lon="6.61682">
        <ele>2016.5</ele>
        <time>2016-03-01T09:00:03Z</time>
      </trkpt>
      <trkpt lat="45.50031" lon="6.61693">
        <ele>2019.87</ele>
        <time>2016-03-01T09:00:15Z</time>
      </trkpt>
      <trkpt lat="45.50035" lon="6.61709">
        <ele>2023.23</ele>
        <time>2016-03-01T09:00:30Z</time>
      </trkpt>
      <trkpt lat="45.50038" lon="6.61723">
        <ele>2026.12</ele>
        <time>2016-03-01T09:00:41Z</time>
      </trkpt>
      <trkpt lat="45.50043" lon="6.61741">
        <ele>2029.96</ele>
        <time>2016-03-01T09:00:53Z</time>
      </trkpt>
      <trkpt lat="45.50047" lon="6.61755">
        <ele>2033.81</ele>
        <time>2016-03-01T09:01:03Z</time>
      </trkpt>
      <trkpt lat="45.50051" lon="6.61769">
        <ele>2037.17</ele>
        <time>2016-03-01T09:01:15Z</time>
      </trkpt>
      <trkpt lat="45.50056" lon="6.6178">
        <ele>2039.57</ele>
        <time>2016-03-01T09:01:28Z</time>
      </trkpt>
      <trkpt lat="45.50061" lon="6.6179">
        <ele>2043.42</ele>
        <time>2016-03-01T09:01:40Z</time>
      </trkpt>
      <trkpt lat="45.50066" lon="6.61802">
        <ele>2046.3</ele>
        <time>2016-03-01T09:01:50Z</time>
      </trkpt>
      <trkpt lat="45.50067" lon="6.61814">
        <ele>2049.19</ele>
        <time>2016-03-01T09:02:04Z</time>
      </trkpt>
      <trkpt lat="45.50057" lon="6.61808">
        <ele>2052.07</ele>
        <time>2016-03-01T09:02:19Z</time>
      </trkpt>
      <trkpt lat="45.50046" lon="6.61806">
        <ele>2053.99</ele>
        <time>2016-03-01T09:02:34Z</time>
      </trkpt>
      <trkpt lat="45.50029" lon="6.61799">
        <ele>2055.44</ele>
        <time>2016-03-01T09:02:47Z</time>
      </trkpt>
      <trkpt lat="45.5002" lon="6.61797">
        <ele>2058.8</ele>
        <time>2016-03-01T09:02:59Z</time>
      </trkpt>
      <trkpt lat="45.50009" lon="6.61793">
        <ele>2061.68</ele>
        <time>2016-03-01T09:03:12Z</time>
      </trkpt>
      <trkpt lat="45.49999" lon="6.61791">
        <ele>2065.05</ele>
        <time>2016-03-01T09:03:26Z</time>
      </trkpt>
      <trkpt lat="45.49987" lon="6.6179">
        <ele>2067.93</ele>
        <time>2016-03-01T09:03:39Z</time>
      </trkpt>
      <trkpt lat="45.49978" lon="6.61787">
        <ele>2070.82</ele>
        <time>2016-03-01T09:03:48Z</time>
      </trkpt>
      <trkpt lat="45.49961" lon="6.61781">
        <ele>2073.7</ele>
        <time>2016-03-01T09:04:02Z</time>
      </trkpt>
      <trkpt lat="45.49943" lon="6.6177">
        <ele>2076.1</ele>
        <time>2016-03-01T09:04:16Z</time>
      </trkpt>
      <trkpt lat="45.49929" lon="6.61762">
        <ele>2077.55</ele>
        <time>2016-03-01T09:04:29Z</time>
      </trkpt>
      <trkpt lat="45.49909" lon="6.61751">
        <ele>2079.47</ele>
        <time>2016-03-01T09:04:44Z</time>
      </trkpt>
      <trkpt lat="45.49892" lon="6.6175">
        <ele>2081.39</ele>
        <time>2016-03-01T09:04:55Z</time>
      </trkpt>
      <trkpt lat="45.4987" lon="6.61749">
        <ele>2084.76</ele>
        <time>2016-03-01T09:05:07Z</time>
      </trkpt>
      <trkpt lat="45.49854" lon="6.61745">
        <ele>2084.76</ele>
        <time>2016-03-01T09:05:20Z</time>
      </trkpt>
      <trkpt lat="45.49838" lon="6.6174">
        <ele>2086.68</ele>
        <time>2016-03-01T09:05:35Z</time>
      </trkpt>
      <trkpt lat="45.49816" lon="6.61736">
        <ele>2089.08</ele>
        <time>2016-03-01T09:05:49Z</time>
      </trkpt>
      <trkpt lat="45.49798" lon="6.61731">
        <ele>2091.97</ele>
        <time>2016-03-01T09:06:00Z</time>
      </trkpt>
      <trkpt lat="45.49794" lon="6.6173">
        <ele>2092.93</ele>
        <time>2016-03-01T09:06:02Z</time>
      </trkpt>
      <trkpt lat="45.49787" lon="6.61728">
        <ele>2094.37</ele>
        <time>2016-03-01T09:06:07Z</time>
      </trkpt>
      <trkpt lat="45.49771" lon="6.61718">
        <ele>2095.33</ele>
        <time>2016-03-01T09:06:21Z</time>
      </trkpt>
      <trkpt lat="45.49757" lon="6.61713">
        <ele>2096.77</ele>
        <time>2016-03-01T09:06:35Z</time>
      </trkpt>
      <trkpt lat="45.49754" lon="6.61712">
        <ele>2096.77</ele>
        <time>2016-03-01T09:06:38Z</time>
      </trkpt>
      <trkpt lat="45.49735" lon="6.61713">
        <ele>2098.7</ele>
        <time>2016-03-01T09:06:54Z</time>
      </trkpt>
      <trkpt lat="45.49725" lon="6.61712">
        <ele>2102.54</ele>
        <time>2016-03-01T09:07:05Z</time>
      </trkpt>
      <trkpt lat="45.49724" lon="6.61712">
        <ele>2102.54</ele>
        <time>2016-03-01T09:07:06Z</time>
      </trkpt>
      <trkpt lat="45.49714" lon="6.61712">
        <ele>2105.91</ele>
        <time>2016-03-01T09:07:18Z</time>
      </trkpt>
      <trkpt lat="45.49707" lon="6.61711">
        <ele>2107.83</ele>
        <time>2016-03-01T09:07:32Z</time>
      </trkpt>
      <trkpt lat="45.49697" lon="6.61712">
        <ele>2111.19</ele>
        <time>2016-03-01T09:07:43Z</time>
      </trkpt>
      <trkpt lat="45.49692" lon="6.61712">
        <ele>2113.12</ele>
        <time>2016-03-01T09:07:48Z</time>
      </trkpt>
      <trkpt lat="45.49693" lon="6.61714">
        <ele>2113.6</ele>
        <time>2016-03-01T09:07:52Z</time>
      </trkpt>
      <trkpt lat="45.49699" lon="6.61724">
        <ele>2116.48</ele>
        <time>2016-03-01T09:07:59Z</time>
      </trkpt>
      <trkpt lat="45.49706" lon="6.61738">
        <ele>2118.4</ele>
        <time>2016-03-01T09:08:11Z</time>
      </trkpt>
      <trkpt lat="45.49713" lon="6.61751">
        <ele>2121.77</ele>
        <time>2016-03-01T09:08:26Z</time>
      </trkpt>
      <trkpt lat="45.4972" lon="6.61762">
        <ele>2124.17</ele>
        <time>2016-03-01T09:08:40Z</time>
      </trkpt>
      <trkpt lat="45.49726" lon="6.61766">
        <ele>2125.61</ele>
        <time>2016-03-01T09:08:47Z</time>
      </trkpt>
      <trkpt lat="45.49733" lon="6.6177">
        <ele>2128.02</ele>
        <time>2016-03-01T09:08:53Z</time>
      </trkpt>
      <trkpt lat="45.49737" lon="6.61775">
        <ele>2129.94</ele>
        <time>2016-03-01T09:09:05Z</time>
      </trkpt>
      <trkpt lat="45.49736" lon="6.61775">
        <ele>2129.94</ele>
        <time>2016-03-01T09:09:06Z</time>
      </trkpt>
      <trkpt lat="45.49726" lon="6.61783">
        <ele>2134.74</ele>
        <time>2016-03-01T09:09:22Z</time>
      </trkpt>
      <trkpt lat="45.49721" lon="6.61787">
        <ele>2136.19</ele>
        <time>2016-03-01T09:09:32Z</time>
      </trkpt>
      <trkpt lat="45.49718" lon="6.6179">
        <ele>2137.63</ele>
        <time>2016-03-01T09:09:44Z</time>
      </trkpt>
      <trkpt lat="45.49724" lon="6.61796">
        <ele>2140.51</ele>
        <time>2016-03-01T09:09:56Z</time>
      </trkpt>
      <trkpt lat="45.49721" lon="6.61799">
        <ele>2140.99</ele>
        <time>2016-03-01T09:10:06Z</time>
      </trkpt>
      <trkpt lat="45.49718" lon="6.61801">
        <ele>2142.44</ele>
        <time>2016-03-01T09:10:19Z</time>
      </trkpt>
      <trkpt lat="45.49715" lon="6.61804">
        <ele>2143.88</ele>
        <time>2016-03-01T09:10:34Z</time>
      </trkpt>
      <trkpt lat="45.49713" lon="6.61806">
        <ele>2145.32</ele>
        <time>2016-03-01T09:10:47Z</time>
      </trkpt>
      <trkpt lat="45.49714" lon="6.61811">
        <ele>2146.76</ele>
        <time>2016-03-01T09:10:59Z</time>
      </trkpt>
      <trkpt lat="45.49712" lon="6.61817">
        <ele>2149.65</ele>
        <time>2016-03-01T09:11:11Z</time>
      </trkpt>
      <trkpt lat="45.49716" lon="6.61826">
        <ele>2153.01</ele>
        <time>2016-03-01T09:11:25Z</time>
      </trkpt>
      <trkpt lat="45.49715" lon="6.61828">
        <ele>2153.49</ele>
        <time>2016-03-01T09:11:37Z</time>
      </trkpt>
      <trkpt lat="45.49715" lon="6.61839">
        <ele>2155.41</ele>
        <time>2016-03-01T09:11:48Z</time>
      </trkpt>
      <trkpt lat="45.49715" lon="6.61842">
        <ele>2156.37</ele>
        <time>2016-03-01T09:11:51Z</time>
      </trkpt>
      <trkpt lat="45.49714" lon="6.61845">
        <ele>2156.86</ele>
        <time>2016-03-01T09:12:04Z</time>
      </trkpt>
      <trkpt lat="45.49715" lon="6.61844">
        <ele>2156.86</ele>
        <time>2016-03-01T09:12:29Z</time>
      </trkpt>
      <trkpt lat="45.49713" lon="6.61844">
        <ele>2156.37</ele>
        <time>2016-03-01T09:12:49Z</time>
      </trkpt>
      <trkpt lat="45.49713" lon="6.61852">
        <ele>2157.82</ele>
        <time>2016-03-01T09:13:03Z</time>
      </trkpt>
      <trkpt lat="45.49713" lon="6.61859">
        <ele>2158.78</ele>
        <time>2016-03-01T09:13:10Z</time>
      </trkpt>
      <trkpt lat="45.49713" lon="6.6187">
        <ele>2163.1</ele>
        <time>2016-03-01T09:13:23Z</time>
      </trkpt>
      <trkpt lat="45.49712" lon="6.61879">
        <ele>2165.99</ele>
        <time>2016-03-01T09:13:32Z</time>
      </trkpt>
      <trkpt lat="45.4971" lon="6.61888">
        <ele>2168.39</ele>
        <time>2016-03-01T09:13:44Z</time>
      </trkpt>
      <trkpt lat="45.49712" lon="6.61899">
        <ele>2171.76</ele>
        <time>2016-03-01T09:13:57Z</time>
      </trkpt>
      <trkpt lat="45.49712" lon="6.61897">
        <ele>2171.76</ele>
        <time>2016-03-01T09:14:19Z</time>
      </trkpt>
      <trkpt lat="45.49711" lon="6.61897">
        <ele>2171.76</ele>
        <time>2016-03-01T09:14:37Z</time>
      </trkpt>
      <trkpt lat="45.49711" lon="6.61896">
        <ele>2171.76</ele>
        <time>2016-03-01T09:15:03Z</time>
      </trkpt>
      <trkpt lat="45.49711" lon="6.61896">
        <ele>2172.24</ele>
        <time>2016-03-01T09:15:30Z</time>
      </trkpt>
      <trkpt lat="45.49712" lon="6.61901">
        <ele>2172.24</ele>
        <time>2016-03-01T09:15:58Z</time>
      </trkpt>
      <trkpt lat="45.49715" lon="6.61914">
        <ele>2175.6</ele>
        <time>2016-03-01T09:16:12Z</time>
      </trkpt>
      <trkpt lat="45.49718" lon="6.6193">
        <ele>2178.48</ele>
        <time>2016-03-01T09:16:28Z</time>
      </trkpt>
      <trkpt lat="45.4972" lon="6.61934">
        <ele>2179.45</ele>
        <time>2016-03-01T09:16:32Z</time>
      </trkpt>
      <trkpt lat="45.49724" lon="6.61945">
        <ele>2182.33</ele>
        <time>2016-03-01T09:16:46Z</time>
      </trkpt>
      <trkpt lat="45.49731" lon="6.61955">
        <ele>2185.69</ele>
        <time>2016-03-01T09:17:00Z</time>
      </trkpt>
      <trkpt lat="45.49739" lon="6.61968">
        <ele>2188.1</ele>
        <time>2016-03-01T09:17:17Z</time>
      </trkpt>
      <trkpt lat="45.49742" lon="6.61971">
        <ele>2189.06</ele>
        <time>2016-03-01T09:17:21Z</time>
      </trkpt>
      <trkpt lat="45.49748" lon="6.6198">
        <ele>2192.42</ele>
        <time>2016-03-01T09:17:36Z</time>
      </trkpt>
      <trkpt lat="45.4975" lon="6.61985">
        <ele>2194.35</ele>
        <time>2016-03-01T09:17:51Z</time>
      </trkpt>
      <trkpt lat="45.49754" lon="6.61996">
        <ele>2197.23</ele>
        <time>2016-03-01T09:18:06Z</time>
      </trkpt>
      <trkpt lat="45.49756" lon="6.62005">
        <ele>2200.11</ele>
        <time>2016-03-01T09:18:20Z</time>
      </trkpt>
      <trkpt lat="45.49758" lon="6.62016">
        <ele>2202.52</ele>
        <time>2016-03-01T09:18:33Z</time>
      </trkpt>
      <trkpt lat="45.4976" lon="6.62025">
        <ele>2205.88</ele>
        <time>2016-03-01T09:18:45Z</time>
      </trkpt>
      <trkpt lat="45.49762" lon="6.62038">
        <ele>2209.25</ele>
        <time>2016-03-01T09:19:02Z</time>
      </trkpt>
      <trkpt lat="45.49766" lon="6.62049">
        <ele>2212.61</ele>
        <time>2016-03-01T09:19:18Z</time>
      </trkpt>
      <trkpt lat="45.49767" lon="6.6206">
        <ele>2215.5</ele>
        <time>2016-03-01T09:19:32Z</time>
      </trkpt>
      <trkpt lat="45.49773" lon="6.62065">
        <ele>2218.38</ele>
        <time>2016-03-01T09:19:47Z</time>
      </trkpt>
      <trkpt lat="45.49781" lon="6.62065">
        <ele>2221.26</ele>
        <time>2016-03-01T09:20:00Z</time>
      </trkpt>
      <trkpt lat="45.49781" lon="6.62065">
        <ele>2221.26</ele>
        <time>2016-03-01T09:20:22Z</time>
      </trkpt>
      <trkpt lat="45.49787" lon="6.62064">
        <ele>2223.19</ele>
        <time>2016-03-01T09:20:36Z</time>
      </trkpt>
      <trkpt lat="45.49796" lon="6.62061">
        <ele>2226.55</ele>
        <time>2016-03-01T09:20:52Z</time>
      </trkpt>
      <trkpt lat="45.49805" lon="6.62057">
        <ele>2229.43</ele>
        <time>2016-03-01T09:21:07Z</time>
      </trkpt>
      <trkpt lat="45.49806" lon="6.62058">
        <ele>2230.4</ele>
        <time>2016-03-01T09:21:21Z</time>
      </trkpt>
      <trkpt lat="45.49807" lon="6.62068">
        <ele>2232.8</ele>
        <time>2016-03-01T09:21:37Z</time>
      </trkpt>
      <trkpt lat="45.49806" lon="6.62084">
        <ele>2236.16</ele>
        <time>2016-03-01T09:21:52Z</time>
      </trkpt>
      <trkpt lat="45.49804" lon="6.62097">
        <ele>2239.05</ele>
        <time>2016-03-01T09:22:08Z</time>
      </trkpt>
      <trkpt lat="45.498" lon="6.62114">
        <ele>2240.97</ele>
        <time>2016-03-01T09:22:25Z</time>
      </trkpt>
      <trkpt lat="45.498" lon="6.62115">
        <ele>2241.93</ele>
        <time>2016-03-01T09:22:26Z</time>
      </trkpt>
      <trkpt lat="45.49797" lon="6.62127">
        <ele>2244.33</ele>
        <time>2016-03-01T09:22:38Z</time>
      </trkpt>
      <trkpt lat="45.49798" lon="6.62138">
        <ele>2246.74</ele>
        <time>2016-03-01T09:22:52Z</time>
      </trkpt>
      <trkpt lat="45.49806" lon="6.62151">
        <ele>2249.62</ele>
        <time>2016-03-01T09:23:07Z</time>
      </trkpt>
      <trkpt lat="45.49811" lon="6.6216">
        <ele>2252.51</ele>
        <time>2016-03-01T09:23:22Z</time>
      </trkpt>
      <trkpt lat="45.49812" lon="6.62168">
        <ele>2255.39</ele>
        <time>2016-03-01T09:23:34Z</time>
      </trkpt>
      <trkpt lat="45.4982" lon="6.62173">
        <ele>2257.79</ele>
        <time>2016-03-01T09:23:47Z</time>
      </trkpt>
      <trkpt lat="45.49822" lon="6.62179">
        <ele>2261.16</ele>
        <time>2016-03-01T09:24:02Z</time>
      </trkpt>
      <trkpt lat="45.49827" lon="6.62186">
        <ele>2264.04</ele>
        <time>2016-03-01T09:24:16Z</time>
      </trkpt>
      <trkpt lat="45.49834" lon="6.62193">
        <ele>2266.93</ele>
        <time>2016-03-01T09:24:30Z</time>
      </trkpt>
      <trkpt lat="45.4984" lon="6.62199">
        <ele>2270.77</ele>
        <time>2016-03-01T09:24:46Z</time>
      </trkpt>
      <trkpt lat="45.49847" lon="6.62208">
        <ele>2273.17</ele>
        <time>2016-03-01T09:25:01Z</time>
      </trkpt>
      <trkpt lat="45.49854" lon="6.62215">
        <ele>2275.1</ele>
        <time>2016-03-01T09:25:13Z</time>
      </trkpt>
      <trkpt lat="45.49861" lon="6.62227">
        <ele>2278.46</ele>
        <time>2016-03-01T09:25:28Z</time>
      </trkpt>
      <trkpt lat="45.49866" lon="6.62238">
        <ele>2280.87</ele>
        <time>2016-03-01T09:25:42Z</time>
      </trkpt>
      <trkpt lat="45.49868" lon="6.62246">
        <ele>2284.23</ele>
        <time>2016-03-01T09:25:55Z</time>
      </trkpt>
      <trkpt lat="45.49871" lon="6.62256">
        <ele>2285.67</ele>
        <time>2016-03-01T09:26:07Z</time>
      </trkpt>
      <trkpt lat="45.49866" lon="6.6226">
        <ele>2288.56</ele>
        <time>2016-03-01T09:26:20Z</time>
      </trkpt>
      <trkpt lat="45.49859" lon="6.62265">
        <ele>2291.44</ele>
        <time>2016-03-01T09:26:33Z</time>
      </trkpt>
      <trkpt lat="45.49853" lon="6.62272">
        <ele>2295.28</ele>
        <time>2016-03-01T09:26:48Z</time>
      </trkpt>
      <trkpt lat="45.49847" lon="6.62281">
        <ele>2298.65</ele>
        <time>2016-03-01T09:27:04Z</time>
      </trkpt>
      <trkpt lat="45.49843" lon="6.62294">
        <ele>2302.01</ele>
        <time>2016-03-01T09:27:20Z</time>
      </trkpt>
      <trkpt lat="45.49839" lon="6.62309">
        <ele>2304.42</ele>
        <time>2016-03-01T09:27:37Z</time>
      </trkpt>
      <trkpt lat="45.49836" lon="6.62325">
        <ele>2307.78</ele>
        <time>2016-03-01T09:27:52Z</time>
      </trkpt>
      <trkpt lat="45.49835" lon="6.62331">
        <ele>2308.74</ele>
        <time>2016-03-01T09:27:57Z</time>
      </trkpt>
      <trkpt lat="45.49833" lon="6.62342">
        <ele>2312.11</ele>
        <time>2016-03-01T09:28:14Z</time>
      </trkpt>
      <trkpt lat="45.49829" lon="6.62358">
        <ele>2315.47</ele>
        <time>2016-03-01T09:28:31Z</time>
      </trkpt>
      <trkpt lat="45.4983" lon="6.62375">
        <ele>2317.4</ele>
        <time>2016-03-01T09:28:49Z</time>
      </trkpt>
      <trkpt lat="45.4984" lon="6.6239">
        <ele>2320.28</ele>
        <time>2016-03-01T09:29:08Z</time>
      </trkpt>
      <trkpt lat="45.49842" lon="6.62392">
        <ele>2320.76</ele>
        <time>2016-03-01T09:29:10Z</time>
      </trkpt>
      <trkpt lat="45.49849" lon="6.62401">
        <ele>2323.64</ele>
        <time>2016-03-01T09:29:25Z</time>
      </trkpt>
      <trkpt lat="45.49854" lon="6.62406">
        <ele>2327.01</ele>
        <time>2016-03-01T09:29:39Z</time>
      </trkpt>
      <trkpt lat="45.49861" lon="6.62406">
        <ele>2329.41</ele>
        <time>2016-03-01T09:29:53Z</time>
      </trkpt>
      <trkpt lat="45.49868" lon="6.624">
        <ele>2332.3</ele>
        <time>2016-03-01T09:30:06Z</time>
      </trkpt>
      <trkpt lat="45.49875" lon="6.62394">
        <ele>2334.7</ele>
        <time>2016-03-01T09:30:20Z</time>
      </trkpt>
      <trkpt lat="45.49881" lon="6.62383">
        <ele>2337.58</ele>
        <time>2016-03-01T09:30:37Z</time>
      </trkpt>
      <trkpt lat="45.49886" lon="6.62379">
        <ele>2339.51</ele>
        <time>2016-03-01T09:30:52Z</time>
      </trkpt>
      <trkpt lat="45.49893" lon="6.62378">
        <ele>2341.43</ele>
        <time>2016-03-01T09:31:04Z</time>
      </trkpt>
      <trkpt lat="45.499" lon="6.62381">
        <ele>2343.83</ele>
        <time>2016-03-01T09:31:16Z</time>
      </trkpt>
      <trkpt lat="45.49902" lon="6.62381">
        <ele>2343.83</ele>
        <time>2016-03-01T09:31:29Z</time>
      </trkpt>
      <trkpt lat="45.49901" lon="6.62383">
        <ele>2343.83</ele>
        <time>2016-03-01T09:31:47Z</time>
      </trkpt>
      <trkpt lat="45.49901" lon="6.62381">
        <ele>2343.83</ele>
        <time>2016-03-01T09:32:11Z</time>
      </trkpt>
      <trkpt lat="45.49899" lon="6.62392">
        <ele>2347.2</ele>
        <time>2016-03-01T09:32:26Z</time>
      </trkpt>
      <trkpt lat="45.49897" lon="6.62404">
        <ele>2349.6</ele>
        <time>2016-03-01T09:32:42Z</time>
      </trkpt>
      <trkpt lat="45.49897" lon="6.62413">
        <ele>2351.52</ele>
        <time>2016-03-01T09:32:55Z</time>
      </trkpt>
      <trkpt lat="45.49899" lon="6.62426">
        <ele>2353.44</ele>
        <time>2016-03-01T09:33:10Z</time>
      </trkpt>
      <trkpt lat="45.49901" lon="6.62444">
        <ele>2356.33</ele>
        <time>2016-03-01T09:33:28Z</time>
      </trkpt>
      <trkpt lat="45.49902" lon="6.62452">
        <ele>2357.77</ele>
        <time>2016-03-01T09:33:44Z</time>
      </trkpt>
      <trkpt lat="45.49903" lon="6.62457">
        <ele>2359.21</ele>
        <time>2016-03-01T09:33:58Z</time>
      </trkpt>
      <trkpt lat="45.49906" lon="6.62451">
        <ele>2360.17</ele>
        <time>2016-03-01T09:34:12Z</time>
      </trkpt>
      <trkpt lat="45.49913" lon="6.62442">
        <ele>2362.58</ele>
        <time>2016-03-01T09:34:26Z</time>
      </trkpt>
      <trkpt lat="45.49923" lon="6.62438">
        <ele>2365.46</ele>
        <time>2016-03-01T09:34:43Z</time>
      </trkpt>
      <trkpt lat="45.49931" lon="6.62443">
        <ele>2367.86</ele>
        <time>2016-03-01T09:34:55Z</time>
      </trkpt>
      <trkpt lat="45.4994" lon="6.62452">
        <ele>2371.23</ele>
        <time>2016-03-01T09:35:12Z</time>
      </trkpt>
      <trkpt lat="45.49951" lon="6.62463">
        <ele>2374.11</ele>
        <time>2016-03-01T09:35:30Z</time>
      </trkpt>
      <trkpt lat="45.49957" lon="6.62475">
        <ele>2377.48</ele>
        <time>2016-03-01T09:35:46Z</time>
      </trkpt>
      <trkpt lat="45.49956" lon="6.62484">
        <ele>2380.84</ele>
        <time>2016-03-01T09:36:00Z</time>
      </trkpt>
      <trkpt lat="45.49955" lon="6.62496">
        <ele>2383.73</ele>
        <time>2016-03-01T09:36:14Z</time>
      </trkpt>
      <trkpt lat="45.49957" lon="6.62508">
        <ele>2387.09</ele>
        <time>2016-03-01T09:36:26Z</time>
      </trkpt>
      <trkpt lat="45.49959" lon="6.62519">
        <ele>2390.46</ele>
        <time>2016-03-01T09:36:39Z</time>
      </trkpt>
      <trkpt lat="45.4996" lon="6.6253">
        <ele>2393.34</ele>
        <time>2016-03-01T09:36:52Z</time>
      </trkpt>
      <trkpt lat="45.49962" lon="6.6254">
        <ele>2396.7</ele>
        <time>2016-03-01T09:37:06Z</time>
      </trkpt>
      <trkpt lat="45.49965" lon="6.62546">
        <ele>2399.11</ele>
        <time>2016-03-01T09:37:17Z</time>
      </trkpt>
      <trkpt lat="45.49967" lon="6.62552">
        <ele>2401.51</ele>
        <time>2016-03-01T09:37:36Z</time>
      </trkpt>
      <trkpt lat="45.49972" lon="6.62562">
        <ele>2404.39</ele>
        <time>2016-03-01T09:37:50Z</time>
      </trkpt>
      <trkpt lat="45.49977" lon="6.62571">
        <ele>2407.28</ele>
        <time>2016-03-01T09:38:03Z</time>
      </trkpt>
      <trkpt lat="45.49983" lon="6.62582">
        <ele>2410.64</ele>
        <time>2016-03-01T09:38:18Z</time>
      </trkpt>
      <trkpt lat="45.49988" lon="6.62591">
        <ele>2413.53</ele>
        <time>2016-03-01T09:38:29Z</time>
      </trkpt>
      <trkpt lat="45.49994" lon="6.62606">
        <ele>2417.37</ele>
        <time>2016-03-01T09:38:45Z</time>
      </trkpt>
      <trkpt lat="45.50002" lon="6.62619">
        <ele>2420.26</ele>
        <time>2016-03-01T09:39:01Z</time>
      </trkpt>
      <trkpt lat="45.50005" lon="6.62624">
        <ele>2420.74</ele>
        <time>2016-03-01T09:39:07Z</time>
      </trkpt>
      <trkpt lat="45.50011" lon="6.62641">
        <ele>2424.58</ele>
        <time>2016-03-01T09:39:24Z</time>
      </trkpt>
      <trkpt lat="45.50015" lon="6.62655">
        <ele>2426.99</ele>
        <time>2016-03-01T09:39:37Z</time>
      </trkpt>
      <trkpt lat="45.5002" lon="6.62669">
        <ele>2430.35</ele>
        <time>2016-03-01T09:39:53Z</time>
      </trkpt>
      <trkpt lat="45.50025" lon="6.62685">
        <ele>2433.23</ele>
        <time>2016-03-01T09:40:08Z</time>
      </trkpt>
      <trkpt lat="45.5003" lon="6.627">
        <ele>2436.6</ele>
        <time>2016-03-01T09:40:23Z</time>
      </trkpt>
      <trkpt lat="45.50035" lon="6.62711">
        <ele>2439.48</ele>
        <time>2016-03-01T09:40:37Z</time>
      </trkpt>
      <trkpt lat="45.50038" lon="6.6272">
        <ele>2442.37</ele>
        <time>2016-03-01T09:40:49Z</time>
      </trkpt>
      <trkpt lat="45.50037" lon="6.6272">
        <ele>2442.37</ele>
        <time>2016-03-01T09:41:12Z</time>
      </trkpt>
      <trkpt lat="45.50038" lon="6.62731">
        <ele>2442.85</ele>
        <time>2016-03-01T09:41:26Z</time>
      </trkpt>
      <trkpt lat="45.50032" lon="6.6275">
        <ele>2439</ele>
        <time>2016-03-01T09:41:36Z</time>
      </trkpt>
      <trkpt lat="45.50023" lon="6.62772">
        <ele>2435.64</ele>
        <time>2016-03-01T09:41:42Z</time>
      </trkpt>
      <trkpt lat="45.50021" lon="6.62777">
        <ele>2433.71</ele>
        <time>2016-03-01T09:41:56Z</time>
      </trkpt>
      <trkpt lat="45.50022" lon="6.62777">
        <ele>2433.71</ele>
        <time>2016-03-01T09:42:18Z</time>
      </trkpt>
      <trkpt lat="45.50023" lon="6.62779">
        <ele>2433.71</ele>
        <time>2016-03-01T09:42:45Z</time>
      </trkpt>
      <trkpt lat="45.50021" lon="6.62797">
        <ele>2433.71</ele>
        <time>2016-03-01T09:42:58Z</time>
      </trkpt>
      <trkpt lat="45.50025" lon="6.62818">
        <ele>2436.12</ele>
        <time>2016-03-01T09:43:14Z</time>
      </trkpt>
      <trkpt lat="45.50023" lon="6.62845">
        <ele>2434.68</ele>
        <time>2016-03-01T09:43:28Z</time>
      </trkpt>
      <trkpt lat="45.50021" lon="6.62873">
        <ele>2431.79</ele>
        <time>2016-03-01T09:43:40Z</time>
      </trkpt>
      <trkpt lat="45.50019" lon="6.62889">
        <ele>2429.87</ele>
        <time>2016-03-01T09:43:47Z</time>
      </trkpt>
      <trkpt lat="45.50016" lon="6.62897">
        <ele>2429.39</ele>
        <time>2016-03-01T09:43:52Z</time>
      </trkpt>
      <trkpt lat="45.50006" lon="6.6292">
        <ele>2430.83</ele>
        <time>2016-03-01T09:44:10Z</time>
      </trkpt>
      <trkpt lat="45.50005" lon="6.62922">
        <ele>2430.83</ele>
        <time>2016-03-01T09:44:11Z</time>
      </trkpt>
      <trkpt lat="45.49995" lon="6.62932">
        <ele>2432.75</ele>
        <time>2016-03-01T09:44:25Z</time>
      </trkpt>
      <trkpt lat="45.49982" lon="6.62938">
        <ele>2435.16</ele>
        <time>2016-03-01T09:44:42Z</time>
      </trkpt>
      <trkpt lat="45.49971" lon="6.62941">
        <ele>2438.04</ele>
        <time>2016-03-01T09:44:57Z</time>
      </trkpt>
      <trkpt lat="45.49957" lon="6.62946">
        <ele>2440.44</ele>
        <time>2016-03-01T09:45:14Z</time>
      </trkpt>
      <trkpt lat="45.49942" lon="6.62961">
        <ele>2439</ele>
        <time>2016-03-01T09:45:28Z</time>
      </trkpt>
      <trkpt lat="45.49929" lon="6.62976">
        <ele>2438.04</ele>
        <time>2016-03-01T09:45:43Z</time>
      </trkpt>
      <trkpt lat="45.49918" lon="6.62986">
        <ele>2441.41</ele>
        <time>2016-03-01T09:45:57Z</time>
      </trkpt>
      <trkpt lat="45.49908" lon="6.62987">
        <ele>2442.85</ele>
        <time>2016-03-01T09:46:09Z</time>
      </trkpt>
      <trkpt lat="45.49893" lon="6.62992">
        <ele>2446.21</ele>
        <time>2016-03-01T09:46:25Z</time>
      </trkpt>
      <trkpt lat="45.49885" lon="6.62998">
        <ele>2449.58</ele>
        <time>2016-03-01T09:46:38Z</time>
      </trkpt>
      <trkpt lat="45.49888" lon="6.63006">
        <ele>2451.02</ele>
        <time>2016-03-01T09:46:48Z</time>
      </trkpt>
      <trkpt lat="45.49886" lon="6.63016">
        <ele>2454.38</ele>
        <time>2016-03-01T09:47:01Z</time>
      </trkpt>
      <trkpt lat="45.49876" lon="6.63021">
        <ele>2455.82</ele>
        <time>2016-03-01T09:47:16Z</time>
      </trkpt>
      <trkpt lat="45.49866" lon="6.63039">
        <ele>2458.71</ele>
        <time>2016-03-01T09:47:34Z</time>
      </trkpt>
      <trkpt lat="45.4986" lon="6.63056">
        <ele>2462.07</ele>
        <time>2016-03-01T09:47:50Z</time>
      </trkpt>
      <trkpt lat="45.49853" lon="6.6307">
        <ele>2464.96</ele>
        <time>2016-03-01T09:48:05Z</time>
      </trkpt>
      <trkpt lat="45.49848" lon="6.63081">
        <ele>2468.32</ele>
        <time>2016-03-01T09:48:19Z</time>
      </trkpt>
      <trkpt lat="45.49848" lon="6.63086">
        <ele>2468.8</ele>
        <time>2016-03-01T09:48:24Z</time>
      </trkpt>
      <trkpt lat="45.49842" lon="6.63107">
        <ele>2469.28</ele>
        <time>2016-03-01T09:48:40Z</time>
      </trkpt>
      <trkpt lat="45.49838" lon="6.6312">
        <ele>2465.92</ele>
        <time>2016-03-01T09:48:47Z</time>
      </trkpt>
      <trkpt lat="45.49833" lon="6.63136">
        <ele>2463.04</ele>
        <time>2016-03-01T09:48:56Z</time>
      </trkpt>
      <trkpt lat="45.49822" lon="6.63162">
        <ele>2460.63</ele>
        <time>2016-03-01T09:49:10Z</time>
      </trkpt>
      <trkpt lat="45.49819" lon="6.63184">
        <ele>2462.07</ele>
        <time>2016-03-01T09:49:25Z</time>
      </trkpt>
      <trkpt lat="45.49816" lon="6.63203">
        <ele>2463.52</ele>
        <time>2016-03-01T09:49:39Z</time>
      </trkpt>
      <trkpt lat="45.49814" lon="6.6322">
        <ele>2461.59</ele>
        <time>2016-03-01T09:49:47Z</time>
      </trkpt>
      <trkpt lat="45.49809" lon="6.63237">
        <ele>2460.63</ele>
        <time>2016-03-01T09:50:00Z</time>
      </trkpt>
      <trkpt lat="45.49809" lon="6.63237">
        <ele>2460.63</ele>
        <time>2016-03-01T09:50:20Z</time>
      </trkpt>
      <trkpt lat="45.49809" lon="6.63237">
        <ele>2460.63</ele>
        <time>2016-03-01T09:50:23Z</time>
      </trkpt>
      <trkpt lat="45.49806" lon="6.63241">
        <ele>2460.63</ele>
        <time>2016-03-01T09:50:27Z</time>
      </trkpt>
      <trkpt lat="45.49796" lon="6.63257">
        <ele>2463.52</ele>
        <time>2016-03-01T09:50:42Z</time>
      </trkpt>
      <trkpt lat="45.49787" lon="6.63274">
        <ele>2464.48</ele>
        <time>2016-03-01T09:50:58Z</time>
      </trkpt>
      <trkpt lat="45.49785" lon="6.63276">
        <ele>2464.96</ele>
        <time>2016-03-01T09:51:14Z</time>
      </trkpt>
      <trkpt lat="45.49785" lon="6.63276">
        <ele>2464.96</ele>
        <time>2016-03-01T09:51:23Z</time>
      </trkpt>
      <trkpt lat="45.49773" lon="6.63293">
        <ele>2465.44</ele>
        <time>2016-03-01T09:51:39Z</time>
      </trkpt>
      <trkpt lat="45.49772" lon="6.63294">
        <ele>2465.44</ele>
        <time>2016-03-01T09:51:40Z</time>
      </trkpt>
      <trkpt lat="45.49761" lon="6.63306">
        <ele>2466.4</ele>
        <time>2016-03-01T09:51:56Z</time>
      </trkpt>
      <trkpt lat="45.49753" lon="6.63313">
        <ele>2467.36</ele>
        <time>2016-03-01T09:52:09Z</time>
      </trkpt>
      <trkpt lat="45.49748" lon="6.63321">
        <ele>2467.84</ele>
        <time>2016-03-01T09:52:23Z</time>
      </trkpt>
      <trkpt lat="45.49736" lon="6.63335">
        <ele>2467.84</ele>
        <time>2016-03-01T09:52:38Z</time>
      </trkpt>
      <trkpt lat="45.49733" lon="6.63339">
        <ele>2467.84</ele>
        <time>2016-03-01T09:52:42Z</time>
      </trkpt>
      <trkpt lat="45.49724" lon="6.63355">
        <ele>2467.84</ele>
        <time>2016-03-01T09:52:57Z</time>
      </trkpt>
      <trkpt lat="45.49713" lon="6.63373">
        <ele>2468.8</ele>
        <time>2016-03-01T09:53:14Z</time>
      </trkpt>
      <trkpt lat="45.49704" lon="6.63389">
        <ele>2469.76</ele>
        <time>2016-03-01T09:53:28Z</time>
      </trkpt>
      <trkpt lat="45.49698" lon="6.63398">
        <ele>2470.24</ele>
        <time>2016-03-01T09:53:42Z</time>
      </trkpt>
      <trkpt lat="45.49689" lon="6.6341">
        <ele>2470.73</ele>
        <time>2016-03-01T09:53:56Z</time>
      </trkpt>
      <trkpt lat="45.49685" lon="6.63415">
        <ele>2471.21</ele>
        <time>2016-03-01T09:54:11Z</time>
      </trkpt>
      <trkpt lat="45.49675" lon="6.63427">
        <ele>2471.21</ele>
        <time>2016-03-01T09:54:28Z</time>
      </trkpt>
      <trkpt lat="45.49655" lon="6.63442">
        <ele>2467.36</ele>
        <time>2016-03-01T09:54:40Z</time>
      </trkpt>
      <trkpt lat="45.49648" lon="6.63446">
        <ele>2464.96</ele>
        <time>2016-03-01T09:54:51Z</time>
      </trkpt>
      <trkpt lat="45.49638" lon="6.63447">
        <ele>2461.59</ele>
        <time>2016-03-01T09:55:04Z</time>
      </trkpt>
      <trkpt lat="45.49635" lon="6.63448">
        <ele>2459.67</ele>
        <time>2016-03-01T09:55:19Z</time>
      </trkpt>
      <trkpt lat="45.49634" lon="6.63448">
        <ele>2459.67</ele>
        <time>2016-03-01T09:55:21Z</time>
      </trkpt>
      <trkpt lat="45.4963" lon="6.6345">
        <ele>2458.23</ele>
        <time>2016-03-01T09:55:25Z</time>
      </trkpt>
      <trkpt lat="45.49627" lon="6.63452">
        <ele>2456.79</ele>
        <time>2016-03-01T09:55:27Z</time>
      </trkpt>
      <trkpt lat="45.49618" lon="6.63466">
        <ele>2452.94</ele>
        <time>2016-03-01T09:55:33Z</time>
      </trkpt>
      <trkpt lat="45.49613" lon="6.63479">
        <ele>2450.54</ele>
        <time>2016-03-01T09:55:39Z</time>
      </trkpt>
      <trkpt lat="45.49606" lon="6.63484">
        <ele>2452.46</ele>
        <time>2016-03-01T09:55:53Z</time>
      </trkpt>
      <trkpt lat="45.49606" lon="6.63485">
        <ele>2452.46</ele>
        <time>2016-03-01T09:55:54Z</time>
      </trkpt>
      <trkpt lat="45.49604" lon="6.63492">
        <ele>2454.86</ele>
        <time>2016-03-01T09:56:05Z</time>
      </trkpt>
      <trkpt lat="45.49605" lon="6.63503">
        <ele>2457.75</ele>
        <time>2016-03-01T09:56:19Z</time>
      </trkpt>
      <trkpt lat="45.49603" lon="6.63508">
        <ele>2459.19</ele>
        <time>2016-03-01T09:56:29Z</time>
      </trkpt>
      <trkpt lat="45.49596" lon="6.63514">
        <ele>2462.07</ele>
        <time>2016-03-01T09:56:43Z</time>
      </trkpt>
      <trkpt lat="45.49597" lon="6.63526">
        <ele>2465.44</ele>
        <time>2016-03-01T09:56:55Z</time>
      </trkpt>
      <trkpt lat="45.49589" lon="6.63534">
        <ele>2467.36</ele>
        <time>2016-03-01T09:57:09Z</time>
      </trkpt>
      <trkpt lat="45.49589" lon="6.63534">
        <ele>2467.84</ele>
        <time>2016-03-01T09:57:12Z</time>
      </trkpt>
      <trkpt lat="45.49579" lon="6.6354">
        <ele>2471.21</ele>
        <time>2016-03-01T09:57:26Z</time>
      </trkpt>
      <trkpt lat="45.4958" lon="6.63547">
        <ele>2472.65</ele>
        <time>2016-03-01T09:57:37Z</time>
      </trkpt>
      <trkpt lat="45.49581" lon="6.63556">
        <ele>2474.57</ele>
        <time>2016-03-01T09:57:49Z</time>
      </trkpt>
      <trkpt lat="45.49573" lon="6.63558">
        <ele>2477.94</ele>
        <time>2016-03-01T09:58:02Z</time>
      </trkpt>
      <trkpt lat="45.49574" lon="6.6357">
        <ele>2481.3</ele>
        <time>2016-03-01T09:58:18Z</time>
      </trkpt>
      <trkpt lat="45.4957" lon="6.63576">
        <ele>2483.22</ele>
        <time>2016-03-01T09:58:29Z</time>
      </trkpt>
      <trkpt lat="45.49567" lon="6.63575">
        <ele>2483.22</ele>
        <time>2016-03-01T09:58:39Z</time>
      </trkpt>
      <trkpt lat="45.49562" lon="6.63581">
        <ele>2487.07</ele>
        <time>2016-03-01T09:58:52Z</time>
      </trkpt>
      <trkpt lat="45.49561" lon="6.63593">
        <ele>2489.95</ele>
        <time>2016-03-01T09:59:06Z</time>
      </trkpt>
      <trkpt lat="45.49555" lon="6.636">
        <ele>2492.84</ele>
        <time>2016-03-01T09:59:19Z</time>
      </trkpt>
      <trkpt lat="45.49553" lon="6.63609">
        <ele>2496.2</ele>
        <time>2016-03-01T09:59:32Z</time>
      </trkpt>
      <trkpt lat="45.49547" lon="6.63621">
        <ele>2499.57</ele>
        <time>2016-03-01T09:59:46Z</time>
      </trkpt>
      <trkpt lat="45.49538" lon="6.63634">
        <ele>2502.93</ele>
        <time>2016-03-01T10:00:03Z</time>
      </trkpt>
      <trkpt lat="45.49535" lon="6.63638">
        <ele>2503.89</ele>
        <time>2016-03-01T10:00:09Z</time>
      </trkpt>
      <trkpt lat="45.49528" lon="6.63646">
        <ele>2506.77</ele>
        <time>2016-03-01T10:00:21Z</time>
      </trkpt>
      <trkpt lat="45.49523" lon="6.63661">
        <ele>2509.66</ele>
        <time>2016-03-01T10:00:37Z</time>
      </trkpt>
      <trkpt lat="45.49519" lon="6.63682">
        <ele>2512.06</ele>
        <time>2016-03-01T10:00:54Z</time>
      </trkpt>
      <trkpt lat="45.49515" lon="6.63696">
        <ele>2515.43</ele>
        <time>2016-03-01T10:01:09Z</time>
      </trkpt>
      <trkpt lat="45.49515" lon="6.63697">
        <ele>2515.43</ele>
        <time>2016-03-01T10:01:10Z</time>
      </trkpt>
      <trkpt lat="45.49511" lon="6.63712">
        <ele>2518.31</ele>
        <time>2016-03-01T10:01:25Z</time>
      </trkpt>
      <trkpt lat="45.49512" lon="6.63725">
        <ele>2521.68</ele>
        <time>2016-03-01T10:01:39Z</time>
      </trkpt>
      <trkpt lat="45.49509" lon="6.63738">
        <ele>2524.08</ele>
        <time>2016-03-01T10:01:52Z</time>
      </trkpt>
      <trkpt lat="45.49507" lon="6.63751">
        <ele>2527.44</ele>
        <time>2016-03-01T10:02:06Z</time>
      </trkpt>
      <trkpt lat="45.49503" lon="6.63764">
        <ele>2530.33</ele>
        <time>2016-03-01T10:02:21Z</time>
      </trkpt>
      <trkpt lat="45.49502" lon="6.63766">
        <ele>2530.81</ele>
        <time>2016-03-01T10:02:23Z</time>
      </trkpt>
      <trkpt lat="45.49494" lon="6.63777">
        <ele>2534.17</ele>
        <time>2016-03-01T10:02:39Z</time>
      </trkpt>
      <trkpt lat="45.49489" lon="6.63792">
        <ele>2537.54</ele>
        <time>2016-03-01T10:02:56Z</time>
      </trkpt>
      <trkpt lat="45.4949" lon="6.63797">
        <ele>2539.46</ele>
        <time>2016-03-01T10:03:08Z</time>
      </trkpt>
      <trkpt lat="45.495" lon="6.63798">
        <ele>2542.82</ele>
        <time>2016-03-01T10:03:24Z</time>
      </trkpt>
      <trkpt lat="45.49495" lon="6.6381">
        <ele>2545.71</ele>
        <time>2016-03-01T10:03:39Z</time>
      </trkpt>
      <trkpt lat="45.49494" lon="6.63813">
        <ele>2546.67</ele>
        <time>2016-03-01T10:03:42Z</time>
      </trkpt>
      <trkpt lat="45.49487" lon="6.63828">
        <ele>2550.03</ele>
        <time>2016-03-01T10:03:59Z</time>
      </trkpt>
      <trkpt lat="45.4949" lon="6.63828">
        <ele>2551.48</ele>
        <time>2016-03-01T10:04:07Z</time>
      </trkpt>
      <trkpt lat="45.49491" lon="6.63828">
        <ele>2551.48</ele>
        <time>2016-03-01T10:04:08Z</time>
      </trkpt>
      <trkpt lat="45.49493" lon="6.63836">
        <ele>2554.36</ele>
        <time>2016-03-01T10:04:21Z</time>
      </trkpt>
      <trkpt lat="45.49489" lon="6.63848">
        <ele>2557.73</ele>
        <time>2016-03-01T10:04:34Z</time>
      </trkpt>
      <trkpt lat="45.49486" lon="6.63865">
        <ele>2561.09</ele>
        <time>2016-03-01T10:04:50Z</time>
      </trkpt>
      <trkpt lat="45.49481" lon="6.63883">
        <ele>2563.97</ele>
        <time>2016-03-01T10:05:06Z</time>
      </trkpt>
      <trkpt lat="45.49478" lon="6.63901">
        <ele>2567.34</ele>
        <time>2016-03-01T10:05:23Z</time>
      </trkpt>
      <trkpt lat="45.49475" lon="6.63919">
        <ele>2571.18</ele>
        <time>2016-03-01T10:05:41Z</time>
      </trkpt>
      <trkpt lat="45.49474" lon="6.63931">
        <ele>2572.14</ele>
        <time>2016-03-01T10:06:00Z</time>
      </trkpt>
      <trkpt lat="45.49474" lon="6.63931">
        <ele>2572.63</ele>
        <time>2016-03-01T10:06:21Z</time>
      </trkpt>
      <trkpt lat="45.49474" lon="6.63931">
        <ele>2572.63</ele>
        <time>2016-03-01T10:06:44Z</time>
      </trkpt>
      <trkpt lat="45.49474" lon="6.63932">
        <ele>2572.14</ele>
        <time>2016-03-01T10:07:05Z</time>
      </trkpt>
      <trkpt lat="45.49473" lon="6.63932">
        <ele>2572.14</ele>
        <time>2016-03-01T10:07:28Z</time>
      </trkpt>
      <trkpt lat="45.49474" lon="6.6393">
        <ele>2572.63</ele>
        <time>2016-03-01T10:07:39Z</time>
      </trkpt>
      <trkpt lat="45.49474" lon="6.6393">
        <ele>2572.63</ele>
        <time>2016-03-01T10:07:57Z</time>
      </trkpt>
      <trkpt lat="45.49474" lon="6.63929">
        <ele>2572.63</ele>
        <time>2016-03-01T10:08:23Z</time>
      </trkpt>
      <trkpt lat="45.49474" lon="6.6393">
        <ele>2572.63</ele>
        <time>2016-03-01T10:08:52Z</time>
      </trkpt>
      <trkpt lat="45.49474" lon="6.63928">
        <ele>2572.14</ele>
        <time>2016-03-01T10:09:19Z</time>
      </trkpt>
      <trkpt lat="45.49474" lon="6.63929">
        <ele>2572.14</ele>
        <time>2016-03-01T10:09:52Z</time>
      </trkpt>
      <trkpt lat="45.49474" lon="6.6393">
        <ele>2572.14</ele>
        <time>2016-03-01T10:10:07Z</time>
      </trkpt>
      <trkpt lat="45.49475" lon="6.63931">
        <ele>2570.22</ele>
        <time>2016-03-01T10:10:31Z</time>
      </trkpt>
      <trkpt lat="45.49475" lon="6.63931">
        <ele>2570.22</ele>
        <time>2016-03-01T10:11:03Z</time>
      </trkpt>
      <trkpt lat="45.49475" lon="6.63931">
        <ele>2569.74</ele>
        <time>2016-03-01T10:11:29Z</time>
      </trkpt>
      <trkpt lat="45.49476" lon="6.63932">
        <ele>2569.74</ele>
        <time>2016-03-01T10:12:00Z</time>
      </trkpt>
      <trkpt lat="45.49475" lon="6.6393">
        <ele>2568.78</ele>
        <time>2016-03-01T10:12:22Z</time>
      </trkpt>
      <trkpt lat="45.49474" lon="6.63929">
        <ele>2568.78</ele>
        <time>2016-03-01T10:12:59Z</time>
      </trkpt>
      <trkpt lat="45.49473" lon="6.63928">
        <ele>2568.78</ele>
        <time>2016-03-01T10:13:41Z</time>
      </trkpt>
      <trkpt lat="45.49475" lon="6.63928">
        <ele>2568.3</ele>
        <time>2016-03-01T10:14:20Z</time>
      </trkpt>
      <trkpt lat="45.49474" lon="6.63928">
        <ele>2569.74</ele>
        <time>2016-03-01T10:14:41Z</time>
      </trkpt>
      <trkpt lat="45.49474" lon="6.63927">
        <ele>2568.3</ele>
        <time>2016-03-01T10:14:43Z</time>
      </trkpt>
      <trkpt lat="45.49474" lon="6.63925">
        <ele>2568.3</ele>
        <time>2016-03-01T10:15:13Z</time>
      </trkpt>
      <trkpt lat="45.49474" lon="6.63924">
        <ele>2567.82</ele>
        <time>2016-03-01T10:15:48Z</time>
      </trkpt>
      <trkpt lat="45.49472" lon="6.63927">
        <ele>2567.34</ele>
        <time>2016-03-01T10:16:22Z</time>
      </trkpt>
      <trkpt lat="45.49472" lon="6.63928">
        <ele>2567.34</ele>
        <time>2016-03-01T10:17:01Z</time>
      </trkpt>
      <trkpt lat="45.49472" lon="6.63928">
        <ele>2567.34</ele>
        <time>2016-03-01T10:17:42Z</time>
      </trkpt>
      <trkpt lat="45.49473" lon="6.63929">
        <ele>2567.34</ele>
        <time>2016-03-01T10:18:15Z</time>
      </trkpt>
      <trkpt lat="45.49473" lon="6.63929">
        <ele>2566.86</ele>
        <time>2016-03-01T10:18:55Z</time>
      </trkpt>
      <trkpt lat="45.49473" lon="6.63929">
        <ele>2565.42</ele>
        <time>2016-03-01T10:19:12Z</time>
      </trkpt>
      <trkpt lat="45.49473" lon="6.63929">
        <ele>2566.86</ele>
        <time>2016-03-01T10:19:51Z</time>
      </trkpt>
      <trkpt lat="45.49471" lon="6.6393">
        <ele>2566.86</ele>
        <time>2016-03-01T10:20:28Z</time>
      </trkpt>
      <trkpt lat="45.49472" lon="6.6393">
        <ele>2566.38</ele>
        <time>2016-03-01T10:21:08Z</time>
      </trkpt>
      <trkpt lat="45.49471" lon="6.63931">
        <ele>2566.38</ele>
        <time>2016-03-01T10:21:47Z</time>
      </trkpt>
      <trkpt lat="45.49471" lon="6.63933">
        <ele>2566.38</ele>
        <time>2016-03-01T10:22:31Z</time>
      </trkpt>
      <trkpt lat="45.49472" lon="6.63931">
        <ele>2566.38</ele>
        <time>2016-03-01T10:23:05Z</time>
      </trkpt>
      <trkpt lat="45.49471" lon="6.63932">
        <ele>2565.9</ele>
        <time>2016-03-01T10:23:40Z</time>
      </trkpt>
      <trkpt lat="45.49473" lon="6.63936">
        <ele>2565.9</ele>
        <time>2016-03-01T10:24:24Z</time>
      </trkpt>
      <trkpt lat="45.49473" lon="6.63935">
        <ele>2565.9</ele>
        <time>2016-03-01T10:25:13Z</time>
      </trkpt>
      <trkpt lat="45.49473" lon="6.63934">
        <ele>2564.45</ele>
        <time>2016-03-01T10:25:53Z</time>
      </trkpt>
      <trkpt lat="45.49474" lon="6.63932">
        <ele>2564.45</ele>
        <time>2016-03-01T10:26:35Z</time>
      </trkpt>
      <trkpt lat="45.49475" lon="6.63931">
        <ele>2564.45</ele>
        <time>2016-03-01T10:27:14Z</time>
      </trkpt>
      <trkpt lat="45.49474" lon="6.6393">
        <ele>2565.9</ele>
        <time>2016-03-01T10:27:34Z</time>
      </trkpt>
      <trkpt lat="45.49474" lon="6.6393">
        <ele>2564.93</ele>
        <time>2016-03-01T10:27:39Z</time>
      </trkpt>
      <trkpt lat="45.49473" lon="6.63929">
        <ele>2564.93</ele>
        <time>2016-03-01T10:28:05Z</time>
      </trkpt>
      <trkpt lat="45.49473" lon="6.6393">
        <ele>2564.45</ele>
        <time>2016-03-01T10:28:24Z</time>
      </trkpt>
      <trkpt lat="45.49474" lon="6.63928">
        <ele>2564.45</ele>
        <time>2016-03-01T10:28:49Z</time>
      </trkpt>
      <trkpt lat="45.49473" lon="6.63929">
        <ele>2564.45</ele>
        <time>2016-03-01T10:29:20Z</time>
      </trkpt>
      <trkpt lat="45.49472" lon="6.63929">
        <ele>2564.45</ele>
        <time>2016-03-01T10:30:03Z</time>
      </trkpt>
      <trkpt lat="45.49473" lon="6.63929">
        <ele>2564.45</ele>
        <time>2016-03-01T10:30:26Z</time>
      </trkpt>
      <trkpt lat="45.49474" lon="6.63927">
        <ele>2564.45</ele>
        <time>2016-03-01T10:30:48Z</time>
      </trkpt>
      <trkpt lat="45.49475" lon="6.63928">
        <ele>2563.97</ele>
        <time>2016-03-01T10:31:08Z</time>
      </trkpt>
      <trkpt lat="45.49473" lon="6.63929">
        <ele>2563.97</ele>
        <time>2016-03-01T10:31:26Z</time>
      </trkpt>
      <trkpt lat="45.49472" lon="6.6393">
        <ele>2563.97</ele>
        <time>2016-03-01T10:31:52Z</time>
      </trkpt>
      <trkpt lat="45.49472" lon="6.6393">
        <ele>2563.01</ele>
        <time>2016-03-01T10:32:12Z</time>
      </trkpt>
      <trkpt lat="45.49473" lon="6.6393">
        <ele>2564.45</ele>
        <time>2016-03-01T10:32:14Z</time>
      </trkpt>
      <trkpt lat="45.49474" lon="6.63931">
        <ele>2564.45</ele>
        <time>2016-03-01T10:32:32Z</time>
      </trkpt>
      <trkpt lat="45.49474" lon="6.63932">
        <ele>2564.45</ele>
        <time>2016-03-01T10:32:51Z</time>
      </trkpt>
      <trkpt lat="45.49473" lon="6.6393">
        <ele>2564.45</ele>
        <time>2016-03-01T10:33:12Z</time>
      </trkpt>
      <trkpt lat="45.49472" lon="6.63927">
        <ele>2564.45</ele>
        <time>2016-03-01T10:33:14Z</time>
      </trkpt>
      <trkpt lat="45.49472" lon="6.63923">
        <ele>2562.53</ele>
        <time>2016-03-01T10:33:15Z</time>
      </trkpt>
      <trkpt lat="45.49471" lon="6.63918">
        <ele>2562.53</ele>
        <time>2016-03-01T10:33:16Z</time>
      </trkpt>
      <trkpt lat="45.49471" lon="6.63911">
        <ele>2561.57</ele>
        <time>2016-03-01T10:33:17Z</time>
      </trkpt>
      <trkpt lat="45.49472" lon="6.63904">
        <ele>2558.69</ele>
        <time>2016-03-01T10:33:18Z</time>
      </trkpt>
      <trkpt lat="45.49474" lon="6.63899">
        <ele>2557.73</ele>
        <time>2016-03-01T10:33:19Z</time>
      </trkpt>
      <trkpt lat="45.49475" lon="6.63896">
        <ele>2556.76</ele>
        <time>2016-03-01T10:33:23Z</time>
      </trkpt>
      <trkpt lat="45.49474" lon="6.63893">
        <ele>2556.28</ele>
        <time>2016-03-01T10:33:24Z</time>
      </trkpt>
      <trkpt lat="45.49473" lon="6.63886">
        <ele>2554.84</ele>
        <time>2016-03-01T10:33:25Z</time>
      </trkpt>
      <trkpt lat="45.49472" lon="6.63877">
        <ele>2551.48</ele>
        <time>2016-03-01T10:33:26Z</time>
      </trkpt>
      <trkpt lat="45.49473" lon="6.6387">
        <ele>2549.55</ele>
        <time>2016-03-01T10:33:27Z</time>
      </trkpt>
      <trkpt lat="45.49475" lon="6.63866">
        <ele>2548.59</ele>
        <time>2016-03-01T10:33:28Z</time>
      </trkpt>
      <trkpt lat="45.49476" lon="6.63861">
        <ele>2547.63</ele>
        <time>2016-03-01T10:33:32Z</time>
      </trkpt>
      <trkpt lat="45.49474" lon="6.63859">
        <ele>2546.19</ele>
        <time>2016-03-01T10:33:33Z</time>
      </trkpt>
      <trkpt lat="45.49472" lon="6.63858">
        <ele>2544.75</ele>
        <time>2016-03-01T10:33:34Z</time>
      </trkpt>
      <trkpt lat="45.49469" lon="6.63859">
        <ele>2543.31</ele>
        <time>2016-03-01T10:33:35Z</time>
      </trkpt>
      <trkpt lat="45.49467" lon="6.63858">
        <ele>2542.82</ele>
        <time>2016-03-01T10:33:36Z</time>
      </trkpt>
      <trkpt lat="45.49465" lon="6.63851">
        <ele>2539.46</ele>
        <time>2016-03-01T10:33:38Z</time>
      </trkpt>
      <trkpt lat="45.49467" lon="6.63845">
        <ele>2538.02</ele>
        <time>2016-03-01T10:33:39Z</time>
      </trkpt>
      <trkpt lat="45.4947" lon="6.63838">
        <ele>2536.58</ele>
        <time>2016-03-01T10:33:40Z</time>
      </trkpt>
      <trkpt lat="45.49474" lon="6.63824">
        <ele>2533.69</ele>
        <time>2016-03-01T10:33:43Z</time>
      </trkpt>
      <trkpt lat="45.49474" lon="6.6382">
        <ele>2531.29</ele>
        <time>2016-03-01T10:33:44Z</time>
      </trkpt>
      <trkpt lat="45.4947" lon="6.6382">
        <ele>2528.89</ele>
        <time>2016-03-01T10:33:46Z</time>
      </trkpt>
      <trkpt lat="45.49468" lon="6.63819">
        <ele>2528.4</ele>
        <time>2016-03-01T10:33:47Z</time>
      </trkpt>
      <trkpt lat="45.49466" lon="6.63817">
        <ele>2525.52</ele>
        <time>2016-03-01T10:33:48Z</time>
      </trkpt>
      <trkpt lat="45.49466" lon="6.63816">
        <ele>2525.04</ele>
        <time>2016-03-01T10:33:49Z</time>
      </trkpt>
      <trkpt lat="45.49466" lon="6.63809">
        <ele>2523.6</ele>
        <time>2016-03-01T10:33:50Z</time>
      </trkpt>
      <trkpt lat="45.49471" lon="6.63793">
        <ele>2520.23</ele>
        <time>2016-03-01T10:33:56Z</time>
      </trkpt>
      <trkpt lat="45.49471" lon="6.63789">
        <ele>2519.75</ele>
        <time>2016-03-01T10:33:58Z</time>
      </trkpt>
      <trkpt lat="45.49472" lon="6.63785">
        <ele>2519.27</ele>
        <time>2016-03-01T10:34:00Z</time>
      </trkpt>
      <trkpt lat="45.49468" lon="6.6378">
        <ele>2515.43</ele>
        <time>2016-03-01T10:34:02Z</time>
      </trkpt>
      <trkpt lat="45.49466" lon="6.6378">
        <ele>2515.43</ele>
        <time>2016-03-01T10:34:03Z</time>
      </trkpt>
      <trkpt lat="45.49463" lon="6.63771">
        <ele>2511.58</ele>
        <time>2016-03-01T10:34:06Z</time>
      </trkpt>
      <trkpt lat="45.49464" lon="6.63766">
        <ele>2509.66</ele>
        <time>2016-03-01T10:34:07Z</time>
      </trkpt>
      <trkpt lat="45.49462" lon="6.63759">
        <ele>2506.29</ele>
        <time>2016-03-01T10:34:09Z</time>
      </trkpt>
      <trkpt lat="45.49459" lon="6.63757">
        <ele>2506.29</ele>
        <time>2016-03-01T10:34:10Z</time>
      </trkpt>
      <trkpt lat="45.49456" lon="6.63756">
        <ele>2505.33</ele>
        <time>2016-03-01T10:34:11Z</time>
      </trkpt>
      <trkpt lat="45.49452" lon="6.63755">
        <ele>2504.37</ele>
        <time>2016-03-01T10:34:13Z</time>
      </trkpt>
      <trkpt lat="45.49453" lon="6.6376">
        <ele>2503.89</ele>
        <time>2016-03-01T10:34:24Z</time>
      </trkpt>
      <trkpt lat="45.49451" lon="6.63749">
        <ele>2499.57</ele>
        <time>2016-03-01T10:34:27Z</time>
      </trkpt>
      <trkpt lat="45.49454" lon="6.63741">
        <ele>2498.12</ele>
        <time>2016-03-01T10:34:29Z</time>
      </trkpt>
      <trkpt lat="45.49457" lon="6.63734">
        <ele>2495.72</ele>
        <time>2016-03-01T10:34:31Z</time>
      </trkpt>
      <trkpt lat="45.49455" lon="6.63723">
        <ele>2491.39</ele>
        <time>2016-03-01T10:34:35Z</time>
      </trkpt>
      <trkpt lat="45.49452" lon="6.63722">
        <ele>2490.43</ele>
        <time>2016-03-01T10:34:36Z</time>
      </trkpt>
      <trkpt lat="45.49451" lon="6.63723">
        <ele>2489.95</ele>
        <time>2016-03-01T10:34:37Z</time>
      </trkpt>
      <trkpt lat="45.49449" lon="6.63724">
        <ele>2489.47</ele>
        <time>2016-03-01T10:34:38Z</time>
      </trkpt>
      <trkpt lat="45.49446" lon="6.63725">
        <ele>2488.51</ele>
        <time>2016-03-01T10:34:40Z</time>
      </trkpt>
      <trkpt lat="45.49438" lon="6.63725">
        <ele>2485.15</ele>
        <time>2016-03-01T10:34:46Z</time>
      </trkpt>
      <trkpt lat="45.49436" lon="6.63722">
        <ele>2481.78</ele>
        <time>2016-03-01T10:34:47Z</time>
      </trkpt>
      <trkpt lat="45.49433" lon="6.63718">
        <ele>2479.86</ele>
        <time>2016-03-01T10:34:52Z</time>
      </trkpt>
      <trkpt lat="45.49439" lon="6.63706">
        <ele>2477.94</ele>
        <time>2016-03-01T10:34:54Z</time>
      </trkpt>
      <trkpt lat="45.4944" lon="6.63704">
        <ele>2476.97</ele>
        <time>2016-03-01T10:34:55Z</time>
      </trkpt>
      <trkpt lat="45.49438" lon="6.63704">
        <ele>2476.97</ele>
        <time>2016-03-01T10:34:56Z</time>
      </trkpt>
      <trkpt lat="45.49437" lon="6.63704">
        <ele>2476.49</ele>
        <time>2016-03-01T10:34:57Z</time>
      </trkpt>
      <trkpt lat="45.49435" lon="6.63703">
        <ele>2475.53</ele>
        <time>2016-03-01T10:34:58Z</time>
      </trkpt>
      <trkpt lat="45.49433" lon="6.63701">
        <ele>2475.05</ele>
        <time>2016-03-01T10:34:59Z</time>
      </trkpt>
      <trkpt lat="45.49432" lon="6.63689">
        <ele>2471.69</ele>
        <time>2016-03-01T10:35:01Z</time>
      </trkpt>
      <trkpt lat="45.49437" lon="6.6368">
        <ele>2470.24</ele>
        <time>2016-03-01T10:35:04Z</time>
      </trkpt>
      <trkpt lat="45.49438" lon="6.63678">
        <ele>2470.24</ele>
        <time>2016-03-01T10:35:08Z</time>
      </trkpt>
      <trkpt lat="45.49436" lon="6.63666">
        <ele>2465.92</ele>
        <time>2016-03-01T10:35:12Z</time>
      </trkpt>
      <trkpt lat="45.49412" lon="6.6368">
        <ele>2462.55</ele>
        <time>2016-03-01T10:35:22Z</time>
      </trkpt>
      <trkpt lat="45.49393" lon="6.63677">
        <ele>2459.19</ele>
        <time>2016-03-01T10:35:28Z</time>
      </trkpt>
      <trkpt lat="45.49386" lon="6.63673">
        <ele>2458.23</ele>
        <time>2016-03-01T10:35:34Z</time>
      </trkpt>
      <trkpt lat="45.49385" lon="6.63672">
        <ele>2457.75</ele>
        <time>2016-03-01T10:35:35Z</time>
      </trkpt>
      <trkpt lat="45.49383" lon="6.6367">
        <ele>2457.27</ele>
        <time>2016-03-01T10:35:36Z</time>
      </trkpt>
      <trkpt lat="45.4937" lon="6.63664">
        <ele>2454.86</ele>
        <time>2016-03-01T10:35:43Z</time>
      </trkpt>
      <trkpt lat="45.49369" lon="6.63661">
        <ele>2454.38</ele>
        <time>2016-03-01T10:35:44Z</time>
      </trkpt>
      <trkpt lat="45.49369" lon="6.63657">
        <ele>2451.5</ele>
        <time>2016-03-01T10:35:45Z</time>
      </trkpt>
      <trkpt lat="45.49369" lon="6.63653">
        <ele>2451.5</ele>
        <time>2016-03-01T10:35:46Z</time>
      </trkpt>
      <trkpt lat="45.49371" lon="6.6365">
        <ele>2450.54</ele>
        <time>2016-03-01T10:35:47Z</time>
      </trkpt>
      <trkpt lat="45.49376" lon="6.63644">
        <ele>2449.1</ele>
        <time>2016-03-01T10:35:50Z</time>
      </trkpt>
      <trkpt lat="45.49374" lon="6.63631">
        <ele>2446.69</ele>
        <time>2016-03-01T10:35:54Z</time>
      </trkpt>
      <trkpt lat="45.49369" lon="6.63629">
        <ele>2444.77</ele>
        <time>2016-03-01T10:35:58Z</time>
      </trkpt>
      <trkpt lat="45.49376" lon="6.63619">
        <ele>2440.92</ele>
        <time>2016-03-01T10:36:10Z</time>
      </trkpt>
      <trkpt lat="45.49377" lon="6.63619">
        <ele>2440.44</ele>
        <time>2016-03-01T10:36:13Z</time>
      </trkpt>
      <trkpt lat="45.49376" lon="6.63611">
        <ele>2438.04</ele>
        <time>2016-03-01T10:36:17Z</time>
      </trkpt>
      <trkpt lat="45.49374" lon="6.63612">
        <ele>2437.56</ele>
        <time>2016-03-01T10:36:19Z</time>
      </trkpt>
      <trkpt lat="45.49374" lon="6.63603">
        <ele>2434.68</ele>
        <time>2016-03-01T10:36:22Z</time>
      </trkpt>
      <trkpt lat="45.49376" lon="6.636">
        <ele>2433.71</ele>
        <time>2016-03-01T10:36:24Z</time>
      </trkpt>
      <trkpt lat="45.49394" lon="6.63581">
        <ele>2430.35</ele>
        <time>2016-03-01T10:36:30Z</time>
      </trkpt>
      <trkpt lat="45.49403" lon="6.6357">
        <ele>2429.39</ele>
        <time>2016-03-01T10:36:33Z</time>
      </trkpt>
      <trkpt lat="45.49406" lon="6.63568">
        <ele>2429.87</ele>
        <time>2016-03-01T10:36:34Z</time>
      </trkpt>
      <trkpt lat="45.49406" lon="6.63555">
        <ele>2427.47</ele>
        <time>2016-03-01T10:36:38Z</time>
      </trkpt>
      <trkpt lat="45.49401" lon="6.6354">
        <ele>2425.54</ele>
        <time>2016-03-01T10:36:41Z</time>
      </trkpt>
      <trkpt lat="45.494" lon="6.63534">
        <ele>2424.58</ele>
        <time>2016-03-01T10:36:42Z</time>
      </trkpt>
      <trkpt lat="45.49397" lon="6.63504">
        <ele>2421.7</ele>
        <time>2016-03-01T10:36:47Z</time>
      </trkpt>
      <trkpt lat="45.49409" lon="6.6348">
        <ele>2418.81</ele>
        <time>2016-03-01T10:36:49Z</time>
      </trkpt>
      <trkpt lat="45.4941" lon="6.63473">
        <ele>2417.85</ele>
        <time>2016-03-01T10:36:50Z</time>
      </trkpt>
      <trkpt lat="45.4941" lon="6.63468">
        <ele>2417.37</ele>
        <time>2016-03-01T10:36:51Z</time>
      </trkpt>
      <trkpt lat="45.49402" lon="6.63447">
        <ele>2412.57</ele>
        <time>2016-03-01T10:36:56Z</time>
      </trkpt>
      <trkpt lat="45.49404" lon="6.63441">
        <ele>2412.57</ele>
        <time>2016-03-01T10:36:57Z</time>
      </trkpt>
      <trkpt lat="45.49406" lon="6.63435">
        <ele>2412.09</ele>
        <time>2016-03-01T10:37:10Z</time>
      </trkpt>
      <trkpt lat="45.49405" lon="6.63434">
        <ele>2412.09</ele>
        <time>2016-03-01T10:37:23Z</time>
      </trkpt>
      <trkpt lat="45.49393" lon="6.63405">
        <ele>2408.72</ele>
        <time>2016-03-01T10:37:29Z</time>
      </trkpt>
      <trkpt lat="45.49389" lon="6.63398">
        <ele>2408.72</ele>
        <time>2016-03-01T10:37:30Z</time>
      </trkpt>
      <trkpt lat="45.49384" lon="6.63383">
        <ele>2407.28</ele>
        <time>2016-03-01T10:37:32Z</time>
      </trkpt>
      <trkpt lat="45.49383" lon="6.63374">
        <ele>2406.8</ele>
        <time>2016-03-01T10:37:33Z</time>
      </trkpt>
      <trkpt lat="45.49383" lon="6.63367">
        <ele>2406.32</ele>
        <time>2016-03-01T10:37:34Z</time>
      </trkpt>
      <trkpt lat="45.49383" lon="6.63358">
        <ele>2405.36</ele>
        <time>2016-03-01T10:37:35Z</time>
      </trkpt>
      <trkpt lat="45.49384" lon="6.6335">
        <ele>2404.88</ele>
        <time>2016-03-01T10:37:36Z</time>
      </trkpt>
      <trkpt lat="45.49386" lon="6.63342">
        <ele>2404.88</ele>
        <time>2016-03-01T10:37:37Z</time>
      </trkpt>
      <trkpt lat="45.49395" lon="6.63323">
        <ele>2403.91</ele>
        <time>2016-03-01T10:37:44Z</time>
      </trkpt>
      <trkpt lat="45.49397" lon="6.63322">
        <ele>2403.43</ele>
        <time>2016-03-01T10:37:50Z</time>
      </trkpt>
      <trkpt lat="45.49405" lon="6.63309">
        <ele>2400.07</ele>
        <time>2016-03-01T10:37:56Z</time>
      </trkpt>
      <trkpt lat="45.49416" lon="6.63296">
        <ele>2398.15</ele>
        <time>2016-03-01T10:38:02Z</time>
      </trkpt>
      <trkpt lat="45.49421" lon="6.63305">
        <ele>2394.78</ele>
        <time>2016-03-01T10:38:05Z</time>
      </trkpt>
      <trkpt lat="45.49422" lon="6.6331">
        <ele>2394.78</ele>
        <time>2016-03-01T10:38:06Z</time>
      </trkpt>
      <trkpt lat="45.49428" lon="6.63311">
        <ele>2390.46</ele>
        <time>2016-03-01T10:38:09Z</time>
      </trkpt>
      <trkpt lat="45.49441" lon="6.6329">
        <ele>2389.01</ele>
        <time>2016-03-01T10:38:20Z</time>
      </trkpt>
      <trkpt lat="45.49441" lon="6.63293">
        <ele>2389.01</ele>
        <time>2016-03-01T10:38:29Z</time>
      </trkpt>
      <trkpt lat="45.49448" lon="6.63303">
        <ele>2387.09</ele>
        <time>2016-03-01T10:38:33Z</time>
      </trkpt>
      <trkpt lat="45.49454" lon="6.63317">
        <ele>2385.17</ele>
        <time>2016-03-01T10:38:35Z</time>
      </trkpt>
      <trkpt lat="45.49459" lon="6.63322">
        <ele>2383.73</ele>
        <time>2016-03-01T10:38:36Z</time>
      </trkpt>
      <trkpt lat="45.49463" lon="6.63324">
        <ele>2383.73</ele>
        <time>2016-03-01T10:38:37Z</time>
      </trkpt>
      <trkpt lat="45.49464" lon="6.63323">
        <ele>2383.73</ele>
        <time>2016-03-01T10:38:38Z</time>
      </trkpt>
      <trkpt lat="45.49466" lon="6.63321">
        <ele>2383.73</ele>
        <time>2016-03-01T10:38:40Z</time>
      </trkpt>
      <trkpt lat="45.49466" lon="6.6332">
        <ele>2383.73</ele>
        <time>2016-03-01T10:38:41Z</time>
      </trkpt>
      <trkpt lat="45.49488" lon="6.63291">
        <ele>2379.88</ele>
        <time>2016-03-01T10:38:52Z</time>
      </trkpt>
      <trkpt lat="45.49491" lon="6.6329">
        <ele>2379.4</ele>
        <time>2016-03-01T10:38:53Z</time>
      </trkpt>
      <trkpt lat="45.49502" lon="6.63287">
        <ele>2379.88</ele>
        <time>2016-03-01T10:39:04Z</time>
      </trkpt>
      <trkpt lat="45.49496" lon="6.63285">
        <ele>2378.92</ele>
        <time>2016-03-01T10:39:29Z</time>
      </trkpt>
      <trkpt lat="45.49497" lon="6.63284">
        <ele>2377.96</ele>
        <time>2016-03-01T10:39:30Z</time>
      </trkpt>
      <trkpt lat="45.49498" lon="6.63282">
        <ele>2377.96</ele>
        <time>2016-03-01T10:39:31Z</time>
      </trkpt>
      <trkpt lat="45.495" lon="6.63278">
        <ele>2377</ele>
        <time>2016-03-01T10:39:36Z</time>
      </trkpt>
      <trkpt lat="45.49502" lon="6.63275">
        <ele>2376.04</ele>
        <time>2016-03-01T10:39:37Z</time>
      </trkpt>
      <trkpt lat="45.49504" lon="6.63272">
        <ele>2374.59</ele>
        <time>2016-03-01T10:39:38Z</time>
      </trkpt>
      <trkpt lat="45.49507" lon="6.63272">
        <ele>2374.11</ele>
        <time>2016-03-01T10:39:39Z</time>
      </trkpt>
      <trkpt lat="45.49508" lon="6.63271">
        <ele>2374.11</ele>
        <time>2016-03-01T10:39:42Z</time>
      </trkpt>
      <trkpt lat="45.49507" lon="6.63271">
        <ele>2373.15</ele>
        <time>2016-03-01T10:39:43Z</time>
      </trkpt>
      <trkpt lat="45.49509" lon="6.6327">
        <ele>2373.15</ele>
        <time>2016-03-01T10:39:55Z</time>
      </trkpt>
      <trkpt lat="45.49511" lon="6.63269">
        <ele>2372.67</ele>
        <time>2016-03-01T10:39:56Z</time>
      </trkpt>
      <trkpt lat="45.49535" lon="6.63263">
        <ele>2369.31</ele>
        <time>2016-03-01T10:40:08Z</time>
      </trkpt>
      <trkpt lat="45.49542" lon="6.63262">
        <ele>2368.35</ele>
        <time>2016-03-01T10:40:17Z</time>
      </trkpt>
      <trkpt lat="45.49544" lon="6.63261">
        <ele>2367.86</ele>
        <time>2016-03-01T10:40:25Z</time>
      </trkpt>
      <trkpt lat="45.49555" lon="6.63242">
        <ele>2366.42</ele>
        <time>2016-03-01T10:40:38Z</time>
      </trkpt>
      <trkpt lat="45.49552" lon="6.63246">
        <ele>2366.42</ele>
        <time>2016-03-01T10:40:56Z</time>
      </trkpt>
      <trkpt lat="45.49569" lon="6.63228">
        <ele>2365.46</ele>
        <time>2016-03-01T10:41:08Z</time>
      </trkpt>
      <trkpt lat="45.49581" lon="6.63202">
        <ele>2364.5</ele>
        <time>2016-03-01T10:41:20Z</time>
      </trkpt>
      <trkpt lat="45.49582" lon="6.63166">
        <ele>2362.1</ele>
        <time>2016-03-01T10:41:30Z</time>
      </trkpt>
      <trkpt lat="45.49585" lon="6.63159">
        <ele>2362.58</ele>
        <time>2016-03-01T10:41:39Z</time>
      </trkpt>
      <trkpt lat="45.49588" lon="6.63144">
        <ele>2362.58</ele>
        <time>2016-03-01T10:41:52Z</time>
      </trkpt>
      <trkpt lat="45.49588" lon="6.63142">
        <ele>2362.58</ele>
        <time>2016-03-01T10:41:53Z</time>
      </trkpt>
      <trkpt lat="45.49587" lon="6.63141">
        <ele>2362.58</ele>
        <time>2016-03-01T10:41:54Z</time>
      </trkpt>
      <trkpt lat="45.49593" lon="6.63099">
        <ele>2359.21</ele>
        <time>2016-03-01T10:42:06Z</time>
      </trkpt>
      <trkpt lat="45.49596" lon="6.63086">
        <ele>2358.25</ele>
        <time>2016-03-01T10:42:08Z</time>
      </trkpt>
      <trkpt lat="45.49601" lon="6.63041">
        <ele>2354.89</ele>
        <time>2016-03-01T10:42:15Z</time>
      </trkpt>
      <trkpt lat="45.49612" lon="6.63003">
        <ele>2351.52</ele>
        <time>2016-03-01T10:42:22Z</time>
      </trkpt>
      <trkpt lat="45.49613" lon="6.62996">
        <ele>2351.04</ele>
        <time>2016-03-01T10:42:23Z</time>
      </trkpt>
      <trkpt lat="45.49616" lon="6.62981">
        <ele>2349.6</ele>
        <time>2016-03-01T10:42:25Z</time>
      </trkpt>
      <trkpt lat="45.49615" lon="6.62968">
        <ele>2346.23</ele>
        <time>2016-03-01T10:42:28Z</time>
      </trkpt>
      <trkpt lat="45.49613" lon="6.62966">
        <ele>2345.75</ele>
        <time>2016-03-01T10:42:31Z</time>
      </trkpt>
      <trkpt lat="45.49591" lon="6.62973">
        <ele>2343.35</ele>
        <time>2016-03-01T10:42:39Z</time>
      </trkpt>
      <trkpt lat="45.49586" lon="6.62972">
        <ele>2342.39</ele>
        <time>2016-03-01T10:42:40Z</time>
      </trkpt>
      <trkpt lat="45.49583" lon="6.62969">
        <ele>2340.47</ele>
        <time>2016-03-01T10:42:41Z</time>
      </trkpt>
      <trkpt lat="45.49581" lon="6.62965">
        <ele>2339.99</ele>
        <time>2016-03-01T10:42:42Z</time>
      </trkpt>
      <trkpt lat="45.49581" lon="6.62961">
        <ele>2339.51</ele>
        <time>2016-03-01T10:42:43Z</time>
      </trkpt>
      <trkpt lat="45.49581" lon="6.62957">
        <ele>2338.54</ele>
        <time>2016-03-01T10:42:44Z</time>
      </trkpt>
      <trkpt lat="45.49579" lon="6.62953">
        <ele>2336.62</ele>
        <time>2016-03-01T10:42:45Z</time>
      </trkpt>
      <trkpt lat="45.49577" lon="6.62951">
        <ele>2335.66</ele>
        <time>2016-03-01T10:42:46Z</time>
      </trkpt>
      <trkpt lat="45.49574" lon="6.62949">
        <ele>2335.66</ele>
        <time>2016-03-01T10:42:47Z</time>
      </trkpt>
      <trkpt lat="45.49571" lon="6.62948">
        <ele>2334.22</ele>
        <time>2016-03-01T10:42:48Z</time>
      </trkpt>
      <trkpt lat="45.49561" lon="6.62945">
        <ele>2331.81</ele>
        <time>2016-03-01T10:42:50Z</time>
      </trkpt>
      <trkpt lat="45.49557" lon="6.62941">
        <ele>2330.37</ele>
        <time>2016-03-01T10:42:51Z</time>
      </trkpt>
      <trkpt lat="45.49556" lon="6.62937">
        <ele>2329.89</ele>
        <time>2016-03-01T10:42:52Z</time>
      </trkpt>
      <trkpt lat="45.49557" lon="6.6293">
        <ele>2328.45</ele>
        <time>2016-03-01T10:42:53Z</time>
      </trkpt>
      <trkpt lat="45.49558" lon="6.62922">
        <ele>2327.49</ele>
        <time>2016-03-01T10:42:54Z</time>
      </trkpt>
      <trkpt lat="45.49558" lon="6.62916">
        <ele>2326.05</ele>
        <time>2016-03-01T10:42:55Z</time>
      </trkpt>
      <trkpt lat="45.49556" lon="6.62913">
        <ele>2325.09</ele>
        <time>2016-03-01T10:42:56Z</time>
      </trkpt>
      <trkpt lat="45.49555" lon="6.62911">
        <ele>2325.09</ele>
        <time>2016-03-01T10:42:57Z</time>
      </trkpt>
      <trkpt lat="45.49553" lon="6.62909">
        <ele>2324.12</ele>
        <time>2016-03-01T10:42:58Z</time>
      </trkpt>
      <trkpt lat="45.4955" lon="6.62907">
        <ele>2323.64</ele>
        <time>2016-03-01T10:42:59Z</time>
      </trkpt>
      <trkpt lat="45.49547" lon="6.62904">
        <ele>2322.68</ele>
        <time>2016-03-01T10:43:00Z</time>
      </trkpt>
      <trkpt lat="45.49545" lon="6.62899">
        <ele>2320.76</ele>
        <time>2016-03-01T10:43:01Z</time>
      </trkpt>
      <trkpt lat="45.49545" lon="6.62893">
        <ele>2320.28</ele>
        <time>2016-03-01T10:43:02Z</time>
      </trkpt>
      <trkpt lat="45.49545" lon="6.6288">
        <ele>2318.36</ele>
        <time>2016-03-01T10:43:04Z</time>
      </trkpt>
      <trkpt lat="45.49544" lon="6.62873">
        <ele>2318.36</ele>
        <time>2016-03-01T10:43:05Z</time>
      </trkpt>
      <trkpt lat="45.49543" lon="6.62864">
        <ele>2315.95</ele>
        <time>2016-03-01T10:43:06Z</time>
      </trkpt>
      <trkpt lat="45.49542" lon="6.62856">
        <ele>2314.99</ele>
        <time>2016-03-01T10:43:07Z</time>
      </trkpt>
      <trkpt lat="45.49542" lon="6.62849">
        <ele>2314.03</ele>
        <time>2016-03-01T10:43:08Z</time>
      </trkpt>
      <trkpt lat="45.4954" lon="6.62846">
        <ele>2312.59</ele>
        <time>2016-03-01T10:43:09Z</time>
      </trkpt>
      <trkpt lat="45.49538" lon="6.62845">
        <ele>2311.63</ele>
        <time>2016-03-01T10:43:10Z</time>
      </trkpt>
      <trkpt lat="45.49525" lon="6.62841">
        <ele>2309.7</ele>
        <time>2016-03-01T10:43:14Z</time>
      </trkpt>
      <trkpt lat="45.49517" lon="6.62833">
        <ele>2309.22</ele>
        <time>2016-03-01T10:43:16Z</time>
      </trkpt>
      <trkpt lat="45.49495" lon="6.62805">
        <ele>2306.82</ele>
        <time>2016-03-01T10:43:24Z</time>
      </trkpt>
      <trkpt lat="45.49491" lon="6.628">
        <ele>2306.34</ele>
        <time>2016-03-01T10:43:25Z</time>
      </trkpt>
      <trkpt lat="45.49473" lon="6.62772">
        <ele>2304.9</ele>
        <time>2016-03-01T10:43:33Z</time>
      </trkpt>
      <trkpt lat="45.49476" lon="6.62751">
        <ele>2299.61</ele>
        <time>2016-03-01T10:43:41Z</time>
      </trkpt>
      <trkpt lat="45.49474" lon="6.62748">
        <ele>2296.73</ele>
        <time>2016-03-01T10:43:43Z</time>
      </trkpt>
      <trkpt lat="45.49477" lon="6.62734">
        <ele>2294.32</ele>
        <time>2016-03-01T10:43:46Z</time>
      </trkpt>
      <trkpt lat="45.49479" lon="6.62729">
        <ele>2293.84</ele>
        <time>2016-03-01T10:43:49Z</time>
      </trkpt>
      <trkpt lat="45.49488" lon="6.62718">
        <ele>2290</ele>
        <time>2016-03-01T10:43:53Z</time>
      </trkpt>
      <trkpt lat="45.49489" lon="6.62706">
        <ele>2288.56</ele>
        <time>2016-03-01T10:43:56Z</time>
      </trkpt>
      <trkpt lat="45.49479" lon="6.62685">
        <ele>2286.15</ele>
        <time>2016-03-01T10:44:00Z</time>
      </trkpt>
      <trkpt lat="45.49477" lon="6.62664">
        <ele>2281.83</ele>
        <time>2016-03-01T10:44:03Z</time>
      </trkpt>
      <trkpt lat="45.49477" lon="6.62648">
        <ele>2278.94</ele>
        <time>2016-03-01T10:44:07Z</time>
      </trkpt>
      <trkpt lat="45.49476" lon="6.6264">
        <ele>2276.06</ele>
        <time>2016-03-01T10:44:09Z</time>
      </trkpt>
      <trkpt lat="45.49483" lon="6.62635">
        <ele>2273.66</ele>
        <time>2016-03-01T10:44:13Z</time>
      </trkpt>
      <trkpt lat="45.49483" lon="6.62629">
        <ele>2274.14</ele>
        <time>2016-03-01T10:44:26Z</time>
      </trkpt>
      <trkpt lat="45.49483" lon="6.62628">
        <ele>2274.62</ele>
        <time>2016-03-01T10:44:27Z</time>
      </trkpt>
      <trkpt lat="45.4949" lon="6.62618">
        <ele>2270.29</ele>
        <time>2016-03-01T10:44:31Z</time>
      </trkpt>
      <trkpt lat="45.49491" lon="6.62612">
        <ele>2269.81</ele>
        <time>2016-03-01T10:44:32Z</time>
      </trkpt>
      <trkpt lat="45.49491" lon="6.62609">
        <ele>2269.33</ele>
        <time>2016-03-01T10:44:33Z</time>
      </trkpt>
      <trkpt lat="45.49491" lon="6.62604">
        <ele>2269.33</ele>
        <time>2016-03-01T10:44:34Z</time>
      </trkpt>
      <trkpt lat="45.49477" lon="6.62585">
        <ele>2267.41</ele>
        <time>2016-03-01T10:44:45Z</time>
      </trkpt>
      <trkpt lat="45.49476" lon="6.62587">
        <ele>2267.41</ele>
        <time>2016-03-01T10:44:51Z</time>
      </trkpt>
      <trkpt lat="45.49483" lon="6.62579">
        <ele>2265.96</ele>
        <time>2016-03-01T10:44:55Z</time>
      </trkpt>
      <trkpt lat="45.49486" lon="6.62578">
        <ele>2265.48</ele>
        <time>2016-03-01T10:44:56Z</time>
      </trkpt>
      <trkpt lat="45.49495" lon="6.62575">
        <ele>2264.52</ele>
        <time>2016-03-01T10:44:59Z</time>
      </trkpt>
      <trkpt lat="45.49497" lon="6.62572">
        <ele>2263.56</ele>
        <time>2016-03-01T10:45:00Z</time>
      </trkpt>
      <trkpt lat="45.49498" lon="6.62571">
        <ele>2263.56</ele>
        <time>2016-03-01T10:45:01Z</time>
      </trkpt>
      <trkpt lat="45.49503" lon="6.62562">
        <ele>2260.2</ele>
        <time>2016-03-01T10:45:06Z</time>
      </trkpt>
      <trkpt lat="45.49504" lon="6.62561">
        <ele>2259.72</ele>
        <time>2016-03-01T10:45:07Z</time>
      </trkpt>
      <trkpt lat="45.49505" lon="6.62563">
        <ele>2260.2</ele>
        <time>2016-03-01T10:45:09Z</time>
      </trkpt>
      <trkpt lat="45.49505" lon="6.62565">
        <ele>2259.24</ele>
        <time>2016-03-01T10:45:10Z</time>
      </trkpt>
      <trkpt lat="45.49507" lon="6.62569">
        <ele>2257.31</ele>
        <time>2016-03-01T10:45:12Z</time>
      </trkpt>
      <trkpt lat="45.49515" lon="6.62568">
        <ele>2255.39</ele>
        <time>2016-03-01T10:45:14Z</time>
      </trkpt>
      <trkpt lat="45.49518" lon="6.62562">
        <ele>2254.43</ele>
        <time>2016-03-01T10:45:15Z</time>
      </trkpt>
      <trkpt lat="45.49528" lon="6.62538">
        <ele>2252.51</ele>
        <time>2016-03-01T10:45:19Z</time>
      </trkpt>
      <trkpt lat="45.49539" lon="6.62505">
        <ele>2250.58</ele>
        <time>2016-03-01T10:45:24Z</time>
      </trkpt>
      <trkpt lat="45.49549" lon="6.62471">
        <ele>2246.74</ele>
        <time>2016-03-01T10:45:28Z</time>
      </trkpt>
      <trkpt lat="45.49558" lon="6.62437">
        <ele>2242.41</ele>
        <time>2016-03-01T10:45:31Z</time>
      </trkpt>
      <trkpt lat="45.49566" lon="6.624">
        <ele>2239.05</ele>
        <time>2016-03-01T10:45:34Z</time>
      </trkpt>
      <trkpt lat="45.49568" lon="6.62388">
        <ele>2239.05</ele>
        <time>2016-03-01T10:45:35Z</time>
      </trkpt>
      <trkpt lat="45.49572" lon="6.62365">
        <ele>2236.64</ele>
        <time>2016-03-01T10:45:37Z</time>
      </trkpt>
      <trkpt lat="45.49573" lon="6.62306">
        <ele>2235.2</ele>
        <time>2016-03-01T10:45:46Z</time>
      </trkpt>
      <trkpt lat="45.49574" lon="6.62286">
        <ele>2233.28</ele>
        <time>2016-03-01T10:45:51Z</time>
      </trkpt>
      <trkpt lat="45.49577" lon="6.62279">
        <ele>2232.8</ele>
        <time>2016-03-01T10:45:52Z</time>
      </trkpt>
      <trkpt lat="45.4958" lon="6.62271">
        <ele>2231.84</ele>
        <time>2016-03-01T10:45:53Z</time>
      </trkpt>
      <trkpt lat="45.49584" lon="6.62263">
        <ele>2230.88</ele>
        <time>2016-03-01T10:45:54Z</time>
      </trkpt>
      <trkpt lat="45.49588" lon="6.62256">
        <ele>2229.92</ele>
        <time>2016-03-01T10:45:55Z</time>
      </trkpt>
      <trkpt lat="45.49591" lon="6.62251">
        <ele>2229.92</ele>
        <time>2016-03-01T10:45:56Z</time>
      </trkpt>
      <trkpt lat="45.49593" lon="6.62248">
        <ele>2229.92</ele>
        <time>2016-03-01T10:45:57Z</time>
      </trkpt>
      <trkpt lat="45.49596" lon="6.62251">
        <ele>2229.43</ele>
        <time>2016-03-01T10:46:07Z</time>
      </trkpt>
      <trkpt lat="45.49596" lon="6.62251">
        <ele>2229.43</ele>
        <time>2016-03-01T10:46:22Z</time>
      </trkpt>
      <trkpt lat="45.49595" lon="6.62249">
        <ele>2229.43</ele>
        <time>2016-03-01T10:46:23Z</time>
      </trkpt>
      <trkpt lat="45.49592" lon="6.6225">
        <ele>2226.07</ele>
        <time>2016-03-01T10:46:25Z</time>
      </trkpt>
      <trkpt lat="45.49591" lon="6.62251">
        <ele>2226.07</ele>
        <time>2016-03-01T10:46:26Z</time>
      </trkpt>
      <trkpt lat="45.49588" lon="6.62253">
        <ele>2226.07</ele>
        <time>2016-03-01T10:46:27Z</time>
      </trkpt>
      <trkpt lat="45.49585" lon="6.62253">
        <ele>2223.67</ele>
        <time>2016-03-01T10:46:28Z</time>
      </trkpt>
      <trkpt lat="45.49582" lon="6.6225">
        <ele>2222.71</ele>
        <time>2016-03-01T10:46:30Z</time>
      </trkpt>
      <trkpt lat="45.49582" lon="6.62247">
        <ele>2222.22</ele>
        <time>2016-03-01T10:46:37Z</time>
      </trkpt>
      <trkpt lat="45.49581" lon="6.62242">
        <ele>2222.22</ele>
        <time>2016-03-01T10:46:39Z</time>
      </trkpt>
      <trkpt lat="45.4958" lon="6.62236">
        <ele>2221.74</ele>
        <time>2016-03-01T10:46:40Z</time>
      </trkpt>
      <trkpt lat="45.4958" lon="6.62229">
        <ele>2220.78</ele>
        <time>2016-03-01T10:46:41Z</time>
      </trkpt>
      <trkpt lat="45.49581" lon="6.62223">
        <ele>2218.86</ele>
        <time>2016-03-01T10:46:42Z</time>
      </trkpt>
      <trkpt lat="45.49583" lon="6.6222">
        <ele>2217.42</ele>
        <time>2016-03-01T10:46:43Z</time>
      </trkpt>
      <trkpt lat="45.49585" lon="6.62219">
        <ele>2217.42</ele>
        <time>2016-03-01T10:46:44Z</time>
      </trkpt>
      <trkpt lat="45.49586" lon="6.62216">
        <ele>2217.9</ele>
        <time>2016-03-01T10:46:47Z</time>
      </trkpt>
      <trkpt lat="45.49586" lon="6.62212">
        <ele>2217.42</ele>
        <time>2016-03-01T10:46:48Z</time>
      </trkpt>
      <trkpt lat="45.49586" lon="6.62208">
        <ele>2215.01</ele>
        <time>2016-03-01T10:46:51Z</time>
      </trkpt>
      <trkpt lat="45.49587" lon="6.62203">
        <ele>2213.57</ele>
        <time>2016-03-01T10:46:53Z</time>
      </trkpt>
      <trkpt lat="45.49588" lon="6.62201">
        <ele>2212.61</ele>
        <time>2016-03-01T10:46:54Z</time>
      </trkpt>
      <trkpt lat="45.49589" lon="6.622">
        <ele>2212.61</ele>
        <time>2016-03-01T10:46:55Z</time>
      </trkpt>
      <trkpt lat="45.49589" lon="6.622">
        <ele>2212.61</ele>
        <time>2016-03-01T10:46:58Z</time>
      </trkpt>
      <trkpt lat="45.4959" lon="6.62198">
        <ele>2211.65</ele>
        <time>2016-03-01T10:46:59Z</time>
      </trkpt>
      <trkpt lat="45.49591" lon="6.62194">
        <ele>2211.17</ele>
        <time>2016-03-01T10:47:00Z</time>
      </trkpt>
      <trkpt lat="45.49596" lon="6.62186">
        <ele>2209.25</ele>
        <time>2016-03-01T10:47:02Z</time>
      </trkpt>
      <trkpt lat="45.49603" lon="6.62178">
        <ele>2208.29</ele>
        <time>2016-03-01T10:47:04Z</time>
      </trkpt>
      <trkpt lat="45.49613" lon="6.62165">
        <ele>2204.92</ele>
        <time>2016-03-01T10:47:07Z</time>
      </trkpt>
      <trkpt lat="45.49625" lon="6.62152">
        <ele>2202.52</ele>
        <time>2016-03-01T10:47:14Z</time>
      </trkpt>
      <trkpt lat="45.49626" lon="6.62148">
        <ele>2202.04</ele>
        <time>2016-03-01T10:47:15Z</time>
      </trkpt>
      <trkpt lat="45.49629" lon="6.62144">
        <ele>2202.04</ele>
        <time>2016-03-01T10:47:16Z</time>
      </trkpt>
      <trkpt lat="45.49632" lon="6.62139">
        <ele>2199.63</ele>
        <time>2016-03-01T10:47:17Z</time>
      </trkpt>
      <trkpt lat="45.49635" lon="6.62136">
        <ele>2199.63</ele>
        <time>2016-03-01T10:47:18Z</time>
      </trkpt>
      <trkpt lat="45.49638" lon="6.62132">
        <ele>2199.15</ele>
        <time>2016-03-01T10:47:19Z</time>
      </trkpt>
      <trkpt lat="45.49641" lon="6.62129">
        <ele>2199.15</ele>
        <time>2016-03-01T10:47:20Z</time>
      </trkpt>
      <trkpt lat="45.49643" lon="6.62125">
        <ele>2198.19</ele>
        <time>2016-03-01T10:47:21Z</time>
      </trkpt>
      <trkpt lat="45.49646" lon="6.6212">
        <ele>2197.23</ele>
        <time>2016-03-01T10:47:22Z</time>
      </trkpt>
      <trkpt lat="45.49648" lon="6.62115">
        <ele>2196.75</ele>
        <time>2016-03-01T10:47:23Z</time>
      </trkpt>
      <trkpt lat="45.49664" lon="6.62088">
        <ele>2193.39</ele>
        <time>2016-03-01T10:47:28Z</time>
      </trkpt>
      <trkpt lat="45.49669" lon="6.62078">
        <ele>2192.9</ele>
        <time>2016-03-01T10:47:30Z</time>
      </trkpt>
      <trkpt lat="45.4967" lon="6.62075">
        <ele>2191.94</ele>
        <time>2016-03-01T10:47:31Z</time>
      </trkpt>
      <trkpt lat="45.4967" lon="6.62071">
        <ele>2191.94</ele>
        <time>2016-03-01T10:47:32Z</time>
      </trkpt>
      <trkpt lat="45.4967" lon="6.62067">
        <ele>2191.94</ele>
        <time>2016-03-01T10:47:33Z</time>
      </trkpt>
      <trkpt lat="45.4967" lon="6.62064">
        <ele>2191.46</ele>
        <time>2016-03-01T10:47:34Z</time>
      </trkpt>
      <trkpt lat="45.49667" lon="6.62042">
        <ele>2189.54</ele>
        <time>2016-03-01T10:47:38Z</time>
      </trkpt>
      <trkpt lat="45.4966" lon="6.62016">
        <ele>2186.18</ele>
        <time>2016-03-01T10:47:43Z</time>
      </trkpt>
      <trkpt lat="45.4965" lon="6.61983">
        <ele>2181.85</ele>
        <time>2016-03-01T10:47:48Z</time>
      </trkpt>
      <trkpt lat="45.49649" lon="6.61973">
        <ele>2179.45</ele>
        <time>2016-03-01T10:47:50Z</time>
      </trkpt>
      <trkpt lat="45.49651" lon="6.61973">
        <ele>2179.45</ele>
        <time>2016-03-01T10:48:05Z</time>
      </trkpt>
      <trkpt lat="45.49652" lon="6.61969">
        <ele>2179.45</ele>
        <time>2016-03-01T10:48:20Z</time>
      </trkpt>
      <trkpt lat="45.49651" lon="6.61965">
        <ele>2178.97</ele>
        <time>2016-03-01T10:48:21Z</time>
      </trkpt>
      <trkpt lat="45.49651" lon="6.61961">
        <ele>2177.04</ele>
        <time>2016-03-01T10:48:22Z</time>
      </trkpt>
      <trkpt lat="45.49652" lon="6.61958">
        <ele>2177.04</ele>
        <time>2016-03-01T10:48:23Z</time>
      </trkpt>
      <trkpt lat="45.49657" lon="6.61949">
        <ele>2176.08</ele>
        <time>2016-03-01T10:48:29Z</time>
      </trkpt>
      <trkpt lat="45.49661" lon="6.61949">
        <ele>2174.64</ele>
        <time>2016-03-01T10:48:42Z</time>
      </trkpt>
      <trkpt lat="45.49663" lon="6.61944">
        <ele>2172.72</ele>
        <time>2016-03-01T10:48:51Z</time>
      </trkpt>
      <trkpt lat="45.49658" lon="6.61939">
        <ele>2170.31</ele>
        <time>2016-03-01T10:48:57Z</time>
      </trkpt>
      <trkpt lat="45.49657" lon="6.61937">
        <ele>2169.83</ele>
        <time>2016-03-01T10:48:59Z</time>
      </trkpt>
      <trkpt lat="45.49659" lon="6.61931">
        <ele>2167.91</ele>
        <time>2016-03-01T10:49:05Z</time>
      </trkpt>
      <trkpt lat="45.49656" lon="6.61929">
        <ele>2166.47</ele>
        <time>2016-03-01T10:49:08Z</time>
      </trkpt>
      <trkpt lat="45.49657" lon="6.61926">
        <ele>2165.99</ele>
        <time>2016-03-01T10:49:10Z</time>
      </trkpt>
      <trkpt lat="45.49658" lon="6.61922">
        <ele>2165.03</ele>
        <time>2016-03-01T10:49:15Z</time>
      </trkpt>
      <trkpt lat="45.49646" lon="6.61919">
        <ele>2163.1</ele>
        <time>2016-03-01T10:49:22Z</time>
      </trkpt>
      <trkpt lat="45.49641" lon="6.61918">
        <ele>2163.1</ele>
        <time>2016-03-01T10:49:31Z</time>
      </trkpt>
      <trkpt lat="45.49638" lon="6.61914">
        <ele>2162.62</ele>
        <time>2016-03-01T10:49:33Z</time>
      </trkpt>
      <trkpt lat="45.49637" lon="6.61909">
        <ele>2162.62</ele>
        <time>2016-03-01T10:49:34Z</time>
      </trkpt>
      <trkpt lat="45.49637" lon="6.61904">
        <ele>2161.18</ele>
        <time>2016-03-01T10:49:35Z</time>
      </trkpt>
      <trkpt lat="45.49638" lon="6.61899">
        <ele>2160.7</ele>
        <time>2016-03-01T10:49:36Z</time>
      </trkpt>
      <trkpt lat="45.4964" lon="6.61894">
        <ele>2160.22</ele>
        <time>2016-03-01T10:49:37Z</time>
      </trkpt>
      <trkpt lat="45.49642" lon="6.61889">
        <ele>2159.26</ele>
        <time>2016-03-01T10:49:38Z</time>
      </trkpt>
      <trkpt lat="45.49642" lon="6.61883">
        <ele>2158.3</ele>
        <time>2016-03-01T10:49:39Z</time>
      </trkpt>
      <trkpt lat="45.49639" lon="6.6188">
        <ele>2157.34</ele>
        <time>2016-03-01T10:49:40Z</time>
      </trkpt>
      <trkpt lat="45.49636" lon="6.61877">
        <ele>2156.37</ele>
        <time>2016-03-01T10:49:41Z</time>
      </trkpt>
      <trkpt lat="45.49633" lon="6.61873">
        <ele>2155.89</ele>
        <time>2016-03-01T10:49:42Z</time>
      </trkpt>
      <trkpt lat="45.49631" lon="6.61868">
        <ele>2154.93</ele>
        <time>2016-03-01T10:49:43Z</time>
      </trkpt>
      <trkpt lat="45.4963" lon="6.61852">
        <ele>2151.09</ele>
        <time>2016-03-01T10:49:46Z</time>
      </trkpt>
      <trkpt lat="45.49631" lon="6.61841">
        <ele>2148.2</ele>
        <time>2016-03-01T10:49:48Z</time>
      </trkpt>
      <trkpt lat="45.4963" lon="6.61836">
        <ele>2148.2</ele>
        <time>2016-03-01T10:49:49Z</time>
      </trkpt>
      <trkpt lat="45.49628" lon="6.61826">
        <ele>2143.4</ele>
        <time>2016-03-01T10:49:51Z</time>
      </trkpt>
      <trkpt lat="45.49625" lon="6.61823">
        <ele>2142.44</ele>
        <time>2016-03-01T10:49:52Z</time>
      </trkpt>
      <trkpt lat="45.49623" lon="6.6182">
        <ele>2141.95</ele>
        <time>2016-03-01T10:49:53Z</time>
      </trkpt>
      <trkpt lat="45.4962" lon="6.61818">
        <ele>2141.47</ele>
        <time>2016-03-01T10:49:55Z</time>
      </trkpt>
      <trkpt lat="45.49607" lon="6.61808">
        <ele>2138.11</ele>
        <time>2016-03-01T10:50:04Z</time>
      </trkpt>
      <trkpt lat="45.49593" lon="6.61786">
        <ele>2135.71</ele>
        <time>2016-03-01T10:50:13Z</time>
      </trkpt>
      <trkpt lat="45.49589" lon="6.61783">
        <ele>2134.74</ele>
        <time>2016-03-01T10:50:23Z</time>
      </trkpt>
      <trkpt lat="45.49615" lon="6.61772">
        <ele>2131.86</ele>
        <time>2016-03-01T10:50:32Z</time>
      </trkpt>
      <trkpt lat="45.49642" lon="6.61776">
        <ele>2128.98</ele>
        <time>2016-03-01T10:50:38Z</time>
      </trkpt>
      <trkpt lat="45.49654" lon="6.61765">
        <ele>2127.05</ele>
        <time>2016-03-01T10:50:49Z</time>
      </trkpt>
      <trkpt lat="45.49652" lon="6.61762">
        <ele>2125.13</ele>
        <time>2016-03-01T10:50:53Z</time>
      </trkpt>
      <trkpt lat="45.49642" lon="6.61756">
        <ele>2123.21</ele>
        <time>2016-03-01T10:50:57Z</time>
      </trkpt>
      <trkpt lat="45.49635" lon="6.61749">
        <ele>2122.73</ele>
        <time>2016-03-01T10:50:59Z</time>
      </trkpt>
      <trkpt lat="45.4962" lon="6.6173">
        <ele>2119.84</ele>
        <time>2016-03-01T10:51:07Z</time>
      </trkpt>
      <trkpt lat="45.4962" lon="6.61723">
        <ele>2118.4</ele>
        <time>2016-03-01T10:51:11Z</time>
      </trkpt>
      <trkpt lat="45.49621" lon="6.61715">
        <ele>2115.04</ele>
        <time>2016-03-01T10:51:19Z</time>
      </trkpt>
      <trkpt lat="45.49623" lon="6.61715">
        <ele>2115.52</ele>
        <time>2016-03-01T10:51:22Z</time>
      </trkpt>
      <trkpt lat="45.49625" lon="6.61711">
        <ele>2113.12</ele>
        <time>2016-03-01T10:51:25Z</time>
      </trkpt>
      <trkpt lat="45.49625" lon="6.61711">
        <ele>2112.63</ele>
        <time>2016-03-01T10:51:26Z</time>
      </trkpt>
      <trkpt lat="45.49628" lon="6.61707">
        <ele>2110.23</ele>
        <time>2016-03-01T10:51:33Z</time>
      </trkpt>
      <trkpt lat="45.4963" lon="6.61698">
        <ele>2107.35</ele>
        <time>2016-03-01T10:51:40Z</time>
      </trkpt>
      <trkpt lat="45.49631" lon="6.61691">
        <ele>2103.98</ele>
        <time>2016-03-01T10:51:44Z</time>
      </trkpt>
      <trkpt lat="45.49631" lon="6.6169">
        <ele>2103.98</ele>
        <time>2016-03-01T10:51:45Z</time>
      </trkpt>
      <trkpt lat="45.49631" lon="6.61683">
        <ele>2100.62</ele>
        <time>2016-03-01T10:51:50Z</time>
      </trkpt>
      <trkpt lat="45.49636" lon="6.61683">
        <ele>2098.21</ele>
        <time>2016-03-01T10:52:02Z</time>
      </trkpt>
      <trkpt lat="45.49636" lon="6.61682">
        <ele>2098.21</ele>
        <time>2016-03-01T10:52:03Z</time>
      </trkpt>
      <trkpt lat="45.49631" lon="6.61668">
        <ele>2095.81</ele>
        <time>2016-03-01T10:52:15Z</time>
      </trkpt>
      <trkpt lat="45.49654" lon="6.61674">
        <ele>2092.45</ele>
        <time>2016-03-01T10:52:22Z</time>
      </trkpt>
      <trkpt lat="45.49675" lon="6.61684">
        <ele>2090.52</ele>
        <time>2016-03-01T10:52:34Z</time>
      </trkpt>
      <trkpt lat="45.49675" lon="6.61686">
        <ele>2090.52</ele>
        <time>2016-03-01T10:52:52Z</time>
      </trkpt>
      <trkpt lat="45.49678" lon="6.61686">
        <ele>2090.52</ele>
        <time>2016-03-01T10:53:25Z</time>
      </trkpt>
      <trkpt lat="45.49683" lon="6.61689">
        <ele>2090.52</ele>
        <time>2016-03-01T10:53:56Z</time>
      </trkpt>
      <trkpt lat="45.49712" lon="6.61704">
        <ele>2087.16</ele>
        <time>2016-03-01T10:54:05Z</time>
      </trkpt>
      <trkpt lat="45.49727" lon="6.61714">
        <ele>2084.28</ele>
        <time>2016-03-01T10:54:10Z</time>
      </trkpt>
      <trkpt lat="45.49744" lon="6.61714">
        <ele>2081.39</ele>
        <time>2016-03-01T10:54:19Z</time>
      </trkpt>
      <trkpt lat="45.49777" lon="6.6172">
        <ele>2078.51</ele>
        <time>2016-03-01T10:54:31Z</time>
      </trkpt>
      <trkpt lat="45.49808" lon="6.61732">
        <ele>2075.14</ele>
        <time>2016-03-01T10:54:38Z</time>
      </trkpt>
      <trkpt lat="45.49815" lon="6.61733">
        <ele>2074.66</ele>
        <time>2016-03-01T10:54:39Z</time>
      </trkpt>
      <trkpt lat="45.49836" lon="6.61734">
        <ele>2071.3</ele>
        <time>2016-03-01T10:54:42Z</time>
      </trkpt>
      <trkpt lat="45.49843" lon="6.61735">
        <ele>2071.3</ele>
        <time>2016-03-01T10:54:43Z</time>
      </trkpt>
      <trkpt lat="45.49856" lon="6.61739">
        <ele>2069.86</ele>
        <time>2016-03-01T10:54:45Z</time>
      </trkpt>
      <trkpt lat="45.49863" lon="6.61742">
        <ele>2068.89</ele>
        <time>2016-03-01T10:54:46Z</time>
      </trkpt>
      <trkpt lat="45.49869" lon="6.61743">
        <ele>2068.41</ele>
        <time>2016-03-01T10:54:47Z</time>
      </trkpt>
      <trkpt lat="45.49875" lon="6.61744">
        <ele>2067.93</ele>
        <time>2016-03-01T10:54:48Z</time>
      </trkpt>
      <trkpt lat="45.4988" lon="6.61744">
        <ele>2066.97</ele>
        <time>2016-03-01T10:54:49Z</time>
      </trkpt>
      <trkpt lat="45.49892" lon="6.61744">
        <ele>2066.01</ele>
        <time>2016-03-01T10:54:51Z</time>
      </trkpt>
      <trkpt lat="45.49906" lon="6.61745">
        <ele>2064.57</ele>
        <time>2016-03-01T10:54:53Z</time>
      </trkpt>
      <trkpt lat="45.49914" lon="6.61746">
        <ele>2063.61</ele>
        <time>2016-03-01T10:54:54Z</time>
      </trkpt>
      <trkpt lat="45.49921" lon="6.61749">
        <ele>2062.65</ele>
        <time>2016-03-01T10:54:55Z</time>
      </trkpt>
      <trkpt lat="45.49954" lon="6.61768">
        <ele>2059.28</ele>
        <time>2016-03-01T10:55:00Z</time>
      </trkpt>
      <trkpt lat="45.49967" lon="6.61778">
        <ele>2057.84</ele>
        <time>2016-03-01T10:55:02Z</time>
      </trkpt>
      <trkpt lat="45.49985" lon="6.6179">
        <ele>2055.92</ele>
        <time>2016-03-01T10:55:05Z</time>
      </trkpt>
      <trkpt lat="45.50022" lon="6.61814">
        <ele>2052.07</ele>
        <time>2016-03-01T10:55:12Z</time>
      </trkpt>
      <trkpt lat="45.50029" lon="6.61817">
        <ele>2052.07</ele>
        <time>2016-03-01T10:55:13Z</time>
      </trkpt>
      <trkpt lat="45.50041" lon="6.61822">
        <ele>2050.15</ele>
        <time>2016-03-01T10:55:15Z</time>
      </trkpt>
      <trkpt lat="45.50044" lon="6.61824">
        <ele>2050.15</ele>
        <time>2016-03-01T10:55:16Z</time>
      </trkpt>
      <trkpt lat="45.50046" lon="6.61826">
        <ele>2049.67</ele>
        <time>2016-03-01T10:55:17Z</time>
      </trkpt>
      <trkpt lat="45.50047" lon="6.61832">
        <ele>2049.67</ele>
        <time>2016-03-01T10:55:31Z</time>
      </trkpt>
      <trkpt lat="45.50049" lon="6.61832">
        <ele>2049.67</ele>
        <time>2016-03-01T10:55:35Z</time>
      </trkpt>
      <trkpt lat="45.50051" lon="6.61832">
        <ele>2048.71</ele>
        <time>2016-03-01T10:55:36Z</time>
      </trkpt>
      <trkpt lat="45.50054" lon="6.61834">
        <ele>2048.23</ele>
        <time>2016-03-01T10:55:37Z</time>
      </trkpt>
      <trkpt lat="45.50057" lon="6.61836">
        <ele>2047.26</ele>
        <time>2016-03-01T10:55:38Z</time>
      </trkpt>
      <trkpt lat="45.5006" lon="6.61837">
        <ele>2046.78</ele>
        <time>2016-03-01T10:55:39Z</time>
      </trkpt>
      <trkpt lat="45.50063" lon="6.61841">
        <ele>2046.78</ele>
        <time>2016-03-01T10:55:44Z</time>
      </trkpt>
      <trkpt lat="45.50064" lon="6.61842">
        <ele>2046.3</ele>
        <time>2016-03-01T10:55:45Z</time>
      </trkpt>
      <trkpt lat="45.50066" lon="6.61843">
        <ele>2046.3</ele>
        <time>2016-03-01T10:55:46Z</time>
      </trkpt>
      <trkpt lat="45.50078" lon="6.61848">
        <ele>2044.38</ele>
        <time>2016-03-01T10:55:57Z</time>
      </trkpt>
      <trkpt lat="45.50096" lon="6.61848">
        <ele>2041.02</ele>
        <time>2016-03-01T10:56:04Z</time>
      </trkpt>
      <trkpt lat="45.50116" lon="6.61852">
        <ele>2038.13</ele>
        <time>2016-03-01T10:56:16Z</time>
      </trkpt>
      <trkpt lat="45.50123" lon="6.6186">
        <ele>2037.65</ele>
        <time>2016-03-01T10:56:25Z</time>
      </trkpt>
      <trkpt lat="45.50126" lon="6.6186">
        <ele>2036.69</ele>
        <time>2016-03-01T10:56:43Z</time>
      </trkpt>
      <trkpt lat="45.50126" lon="6.61856">
        <ele>2033.81</ele>
        <time>2016-03-01T10:56:45Z</time>
      </trkpt>
      <trkpt lat="45.50125" lon="6.61852">
        <ele>2032.36</ele>
        <time>2016-03-01T10:56:46Z</time>
      </trkpt>
      <trkpt lat="45.50129" lon="6.61848">
        <ele>2029.48</ele>
        <time>2016-03-01T10:56:48Z</time>
      </trkpt>
      <trkpt lat="45.50129" lon="6.61841">
        <ele>2026.6</ele>
        <time>2016-03-01T10:56:50Z</time>
      </trkpt>
      <trkpt lat="45.5013" lon="6.61837">
        <ele>2023.23</ele>
        <time>2016-03-01T10:56:51Z</time>
      </trkpt>
      <trkpt lat="45.50136" lon="6.61825">
        <ele>2016.98</ele>
        <time>2016-03-01T10:56:54Z</time>
      </trkpt>
      <trkpt lat="45.5014" lon="6.61814">
        <ele>2011.7</ele>
        <time>2016-03-01T10:56:57Z</time>
      </trkpt>
      <trkpt lat="45.50142" lon="6.61813">
        <ele>2011.22</ele>
        <time>2016-03-01T10:56:59Z</time>
      </trkpt>
      <trkpt lat="45.50146" lon="6.61815">
        <ele>2011.7</ele>
        <time>2016-03-01T10:57:15Z</time>
      </trkpt>
      <trkpt lat="45.50146" lon="6.61816">
        <ele>2011.22</ele>
        <time>2016-03-01T10:57:38Z</time>
      </trkpt>
      <trkpt lat="45.50152" lon="6.61812">
        <ele>2007.85</ele>
        <time>2016-03-01T10:57:42Z</time>
      </trkpt>
      <trkpt lat="45.50154" lon="6.61805">
        <ele>2004.49</ele>
        <time>2016-03-01T10:57:44Z</time>
      </trkpt>
      <trkpt lat="45.50155" lon="6.618">
        <ele>2003.04</ele>
        <time>2016-03-01T10:57:45Z</time>
      </trkpt>
      <trkpt lat="45.50155" lon="6.61796">
        <ele>2002.56</ele>
        <time>2016-03-01T10:57:46Z</time>
      </trkpt>
      <trkpt lat="45.50157" lon="6.61792">
        <ele>1998.24</ele>
        <time>2016-03-01T10:57:47Z</time>
      </trkpt>
      <trkpt lat="45.50159" lon="6.61789">
        <ele>1998.24</ele>
        <time>2016-03-01T10:57:48Z</time>
      </trkpt>
      <trkpt lat="45.50161" lon="6.61785">
        <ele>1994.87</ele>
        <time>2016-03-01T10:57:51Z</time>
      </trkpt>
      <trkpt lat="45.50157" lon="6.61789">
        <ele>1995.35</ele>
        <time>2016-03-01T10:58:13Z</time>
      </trkpt>
      <trkpt lat="45.50156" lon="6.61788">
        <ele>1995.35</ele>
        <time>2016-03-01T10:58:34Z</time>
      </trkpt>
      <trkpt lat="45.50144" lon="6.61751">
        <ele>1991.51</ele>
        <time>2016-03-01T10:58:46Z</time>
      </trkpt>
      <trkpt lat="45.50141" lon="6.61739">
        <ele>1990.07</ele>
        <time>2016-03-01T10:58:48Z</time>
      </trkpt>
      <trkpt lat="45.50145" lon="6.61732">
        <ele>1983.82</ele>
        <time>2016-03-01T10:58:50Z</time>
      </trkpt>
      <trkpt lat="45.50148" lon="6.61722">
        <ele>1979.97</ele>
        <time>2016-03-01T10:58:52Z</time>
      </trkpt>
      <trkpt lat="45.50158" lon="6.617">
        <ele>1976.13</ele>
        <time>2016-03-01T10:58:55Z</time>
      </trkpt>
      <trkpt lat="45.50164" lon="6.61691">
        <ele>1973.72</ele>
        <time>2016-03-01T10:58:57Z</time>
      </trkpt>
      <trkpt lat="45.50166" lon="6.61691">
        <ele>1974.2</ele>
        <time>2016-03-01T10:59:04Z</time>
      </trkpt>
      <trkpt lat="45.50168" lon="6.61684">
        <ele>1973.24</ele>
        <time>2016-03-01T10:59:10Z</time>
      </trkpt>
      <trkpt lat="45.50169" lon="6.61674">
        <ele>1969.4</ele>
        <time>2016-03-01T10:59:16Z</time>
      </trkpt>
      <trkpt lat="45.50159" lon="6.6166">
        <ele>1966.51</ele>
        <time>2016-03-01T10:59:20Z</time>
      </trkpt>
      <trkpt lat="45.5014" lon="6.61631">
        <ele>1964.11</ele>
        <time>2016-03-01T10:59:31Z</time>
      </trkpt>
      <trkpt lat="45.50134" lon="6.6162">
        <ele>1962.19</ele>
        <time>2016-03-01T10:59:42Z</time>
      </trkpt>
      <trkpt lat="45.50136" lon="6.61614">
        <ele>1958.34</ele>
        <time>2016-03-01T10:59:44Z</time>
      </trkpt>
      <trkpt lat="45.50137" lon="6.61613">
        <ele>1959.3</ele>
        <time>2016-03-01T10:59:45Z</time>
      </trkpt>
      <trkpt lat="45.50137" lon="6.61613">
        <ele>1959.3</ele>
        <time>2016-03-01T10:59:46Z</time>
      </trkpt>
      <trkpt lat="45.50155" lon="6.61621">
        <ele>1957.38</ele>
        <time>2016-03-01T10:59:53Z</time>
      </trkpt>
      <trkpt lat="45.5016" lon="6.61621">
        <ele>1956.42</ele>
        <time>2016-03-01T10:59:54Z</time>
      </trkpt>
      <trkpt lat="45.50166" lon="6.6162">
        <ele>1955.94</ele>
        <time>2016-03-01T10:59:55Z</time>
      </trkpt>
      <trkpt lat="45.50172" lon="6.61618">
        <ele>1955.46</ele>
        <time>2016-03-01T10:59:56Z</time>
      </trkpt>
      <trkpt lat="45.50177" lon="6.61615">
        <ele>1954.5</ele>
        <time>2016-03-01T10:59:57Z</time>
      </trkpt>
      <trkpt lat="45.50182" lon="6.61613">
        <ele>1954.5</ele>
        <time>2016-03-01T10:59:58Z</time>
      </trkpt>
      <trkpt lat="45.50187" lon="6.61611">
        <ele>1954.02</ele>
        <time>2016-03-01T10:59:59Z</time>
      </trkpt>
      <trkpt lat="45.50191" lon="6.61611">
        <ele>1954.02</ele>
        <time>2016-03-01T11:00:00Z</time>
      </trkpt>
      <trkpt lat="45.50197" lon="6.61612">
        <ele>1953.06</ele>
        <time>2016-03-01T11:00:01Z</time>
      </trkpt>
      <trkpt lat="45.50202" lon="6.61613">
        <ele>1952.09</ele>
        <time>2016-03-01T11:00:02Z</time>
      </trkpt>
      <trkpt lat="45.50208" lon="6.61611">
        <ele>1951.61</ele>
        <time>2016-03-01T11:00:03Z</time>
      </trkpt>
      <trkpt lat="45.50214" lon="6.61609">
        <ele>1951.13</ele>
        <time>2016-03-01T11:00:04Z</time>
      </trkpt>
      <trkpt lat="45.50237" lon="6.61599">
        <ele>1948.25</ele>
        <time>2016-03-01T11:00:08Z</time>
      </trkpt>
      <trkpt lat="45.50243" lon="6.61597">
        <ele>1947.77</ele>
        <time>2016-03-01T11:00:09Z</time>
      </trkpt>
      <trkpt lat="45.50249" lon="6.61598">
        <ele>1947.29</ele>
        <time>2016-03-01T11:00:10Z</time>
      </trkpt>
      <trkpt lat="45.50254" lon="6.616">
        <ele>1946.33</ele>
        <time>2016-03-01T11:00:11Z</time>
      </trkpt>
      <trkpt lat="45.5026" lon="6.61602">
        <ele>1945.36</ele>
        <time>2016-03-01T11:00:12Z</time>
      </trkpt>
      <trkpt lat="45.50267" lon="6.61604">
        <ele>1944.4</ele>
        <time>2016-03-01T11:00:13Z</time>
      </trkpt>
      <trkpt lat="45.50274" lon="6.61604">
        <ele>1943.92</ele>
        <time>2016-03-01T11:00:14Z</time>
      </trkpt>
      <trkpt lat="45.5028" lon="6.61603">
        <ele>1942.96</ele>
        <time>2016-03-01T11:00:15Z</time>
      </trkpt>
      <trkpt lat="45.50286" lon="6.61602">
        <ele>1942</ele>
        <time>2016-03-01T11:00:16Z</time>
      </trkpt>
      <trkpt lat="45.50292" lon="6.61602">
        <ele>1941.04</ele>
        <time>2016-03-01T11:00:17Z</time>
      </trkpt>
      <trkpt lat="45.50298" lon="6.61604">
        <ele>1941.04</ele>
        <time>2016-03-01T11:00:18Z</time>
      </trkpt>
      <trkpt lat="45.50304" lon="6.61607">
        <ele>1940.56</ele>
        <time>2016-03-01T11:00:19Z</time>
      </trkpt>
      <trkpt lat="45.5031" lon="6.61611">
        <ele>1939.6</ele>
        <time>2016-03-01T11:00:20Z</time>
      </trkpt>
      <trkpt lat="45.50318" lon="6.61614">
        <ele>1938.16</ele>
        <time>2016-03-01T11:00:21Z</time>
      </trkpt>
      <trkpt lat="45.50325" lon="6.61613">
        <ele>1938.16</ele>
        <time>2016-03-01T11:00:22Z</time>
      </trkpt>
      <trkpt lat="45.50331" lon="6.6161">
        <ele>1937.67</ele>
        <time>2016-03-01T11:00:23Z</time>
      </trkpt>
      <trkpt lat="45.50338" lon="6.61605">
        <ele>1936.71</ele>
        <time>2016-03-01T11:00:24Z</time>
      </trkpt>
      <trkpt lat="45.50343" lon="6.61599">
        <ele>1936.23</ele>
        <time>2016-03-01T11:00:25Z</time>
      </trkpt>
      <trkpt lat="45.50347" lon="6.61591">
        <ele>1935.27</ele>
        <time>2016-03-01T11:00:26Z</time>
      </trkpt>
      <trkpt lat="45.5035" lon="6.61583">
        <ele>1934.79</ele>
        <time>2016-03-01T11:00:27Z</time>
      </trkpt>
      <trkpt lat="45.50352" lon="6.61574">
        <ele>1933.83</ele>
        <time>2016-03-01T11:00:28Z</time>
      </trkpt>
      <trkpt lat="45.50354" lon="6.61566">
        <ele>1933.35</ele>
        <time>2016-03-01T11:00:29Z</time>
      </trkpt>
      <trkpt lat="45.50355" lon="6.61557">
        <ele>1933.35</ele>
        <time>2016-03-01T11:00:30Z</time>
      </trkpt>
      <trkpt lat="45.50357" lon="6.61541">
        <ele>1931.91</ele>
        <time>2016-03-01T11:00:32Z</time>
      </trkpt>
      <trkpt lat="45.50357" lon="6.61533">
        <ele>1931.43</ele>
        <time>2016-03-01T11:00:33Z</time>
      </trkpt>
      <trkpt lat="45.50355" lon="6.61489">
        <ele>1929.5</ele>
        <time>2016-03-01T11:00:43Z</time>
      </trkpt>
      <trkpt lat="45.50356" lon="6.61484">
        <ele>1929.5</ele>
        <time>2016-03-01T11:00:44Z</time>
      </trkpt>
      <trkpt lat="45.50363" lon="6.61463">
        <ele>1926.14</ele>
        <time>2016-03-01T11:00:47Z</time>
      </trkpt>
      <trkpt lat="45.50368" lon="6.61448">
        <ele>1925.66</ele>
        <time>2016-03-01T11:00:49Z</time>
      </trkpt>
      <trkpt lat="45.50374" lon="6.61435">
        <ele>1925.66</ele>
        <time>2016-03-01T11:00:56Z</time>
      </trkpt>
      <trkpt lat="45.50384" lon="6.61421">
        <ele>1925.66</ele>
        <time>2016-03-01T11:01:12Z</time>
      </trkpt>
      <trkpt lat="45.50389" lon="6.6142">
        <ele>1922.77</ele>
        <time>2016-03-01T11:01:13Z</time>
      </trkpt>
      <trkpt lat="45.50391" lon="6.61421">
        <ele>1922.77</ele>
        <time>2016-03-01T11:01:14Z</time>
      </trkpt>
      <trkpt lat="45.50393" lon="6.61423">
        <ele>1922.77</ele>
        <time>2016-03-01T11:01:15Z</time>
      </trkpt>
      <trkpt lat="45.50397" lon="6.61427">
        <ele>1922.29</ele>
        <time>2016-03-01T11:01:19Z</time>
      </trkpt>
      <trkpt lat="45.50399" lon="6.61427">
        <ele>1921.81</ele>
        <time>2016-03-01T11:01:20Z</time>
      </trkpt>
      <trkpt lat="45.504" lon="6.61428">
        <ele>1921.81</ele>
        <time>2016-03-01T11:01:21Z</time>
      </trkpt>
      <trkpt lat="45.50402" lon="6.61429">
        <ele>1920.85</ele>
        <time>2016-03-01T11:01:22Z</time>
      </trkpt>
      <trkpt lat="45.50404" lon="6.6143">
        <ele>1920.85</ele>
        <time>2016-03-01T11:01:23Z</time>
      </trkpt>
      <trkpt lat="45.50406" lon="6.61431">
        <ele>1920.37</ele>
        <time>2016-03-01T11:01:24Z</time>
      </trkpt>
      <trkpt lat="45.50427" lon="6.61442">
        <ele>1917.01</ele>
        <time>2016-03-01T11:01:33Z</time>
      </trkpt>
      <trkpt lat="45.50445" lon="6.61457">
        <ele>1914.12</ele>
        <time>2016-03-01T11:01:40Z</time>
      </trkpt>
      <trkpt lat="45.50457" lon="6.61466">
        <ele>1912.2</ele>
        <time>2016-03-01T11:01:44Z</time>
      </trkpt>
      <trkpt lat="45.50469" lon="6.61474">
        <ele>1910.76</ele>
        <time>2016-03-01T11:01:47Z</time>
      </trkpt>
      <trkpt lat="45.50497" lon="6.61496">
        <ele>1908.35</ele>
        <time>2016-03-01T11:02:00Z</time>
      </trkpt>
      <trkpt lat="45.50518" lon="6.61499">
        <ele>1904.99</ele>
        <time>2016-03-01T11:02:08Z</time>
      </trkpt>
      <trkpt lat="45.50536" lon="6.61502">
        <ele>1902.11</ele>
        <time>2016-03-01T11:02:12Z</time>
      </trkpt>
      <trkpt lat="45.50542" lon="6.61503">
        <ele>1902.11</ele>
        <time>2016-03-01T11:02:13Z</time>
      </trkpt>
      <trkpt lat="45.50564" lon="6.61503">
        <ele>1898.74</ele>
        <time>2016-03-01T11:02:17Z</time>
      </trkpt>
      <trkpt lat="45.50571" lon="6.61504">
        <ele>1898.74</ele>
        <time>2016-03-01T11:02:19Z</time>
      </trkpt>
      <trkpt lat="45.50575" lon="6.61499">
        <ele>1896.34</ele>
        <time>2016-03-01T11:02:22Z</time>
      </trkpt>
      <trkpt lat="45.50556" lon="6.61476">
        <ele>1894.42</ele>
        <time>2016-03-01T11:02:37Z</time>
      </trkpt>
      <trkpt lat="45.50542" lon="6.61446">
        <ele>1891.05</ele>
        <time>2016-03-01T11:02:44Z</time>
      </trkpt>
      <trkpt lat="45.50535" lon="6.61431">
        <ele>1889.13</ele>
        <time>2016-03-01T11:02:47Z</time>
      </trkpt>
      <trkpt lat="45.50524" lon="6.61402">
        <ele>1885.76</ele>
        <time>2016-03-01T11:02:51Z</time>
      </trkpt>
      <trkpt lat="45.50521" lon="6.61377">
        <ele>1881.44</ele>
        <time>2016-03-01T11:02:54Z</time>
      </trkpt>
      <trkpt lat="45.50535" lon="6.61375">
        <ele>1879.03</ele>
        <time>2016-03-01T11:03:00Z</time>
      </trkpt>
      <trkpt lat="45.50537" lon="6.61377">
        <ele>1879.51</ele>
        <time>2016-03-01T11:03:03Z</time>
      </trkpt>
      <trkpt lat="45.5054" lon="6.61367">
        <ele>1876.63</ele>
        <time>2016-03-01T11:03:07Z</time>
      </trkpt>
      <trkpt lat="45.50543" lon="6.61361">
        <ele>1872.3</ele>
        <time>2016-03-01T11:03:09Z</time>
      </trkpt>
      <trkpt lat="45.50555" lon="6.61364">
        <ele>1869.42</ele>
        <time>2016-03-01T11:03:14Z</time>
      </trkpt>
      <trkpt lat="45.50571" lon="6.61347">
        <ele>1864.61</ele>
        <time>2016-03-01T11:03:18Z</time>
      </trkpt>
      <trkpt lat="45.50575" lon="6.61332">
        <ele>1862.69</ele>
        <time>2016-03-01T11:03:20Z</time>
      </trkpt>
      <trkpt lat="45.50582" lon="6.61322">
        <ele>1861.73</ele>
        <time>2016-03-01T11:03:22Z</time>
      </trkpt>
      <trkpt lat="45.50587" lon="6.61318">
        <ele>1861.73</ele>
        <time>2016-03-01T11:03:23Z</time>
      </trkpt>
      <trkpt lat="45.50591" lon="6.61314">
        <ele>1861.25</ele>
        <time>2016-03-01T11:03:24Z</time>
      </trkpt>
      <trkpt lat="45.50621" lon="6.61284">
        <ele>1858.85</ele>
        <time>2016-03-01T11:03:38Z</time>
      </trkpt>
      <trkpt lat="45.50625" lon="6.61275">
        <ele>1857.4</ele>
        <time>2016-03-01T11:03:41Z</time>
      </trkpt>
      <trkpt lat="45.50629" lon="6.61264">
        <ele>1855.96</ele>
        <time>2016-03-01T11:03:43Z</time>
      </trkpt>
      <trkpt lat="45.50636" lon="6.61253">
        <ele>1854.52</ele>
        <time>2016-03-01T11:03:45Z</time>
      </trkpt>
      <trkpt lat="45.50648" lon="6.61239">
        <ele>1852.6</ele>
        <time>2016-03-01T11:03:48Z</time>
      </trkpt>
      <trkpt lat="45.50667" lon="6.61233">
        <ele>1848.75</ele>
        <time>2016-03-01T11:03:52Z</time>
      </trkpt>
      <trkpt lat="45.50685" lon="6.61251">
        <ele>1842.02</ele>
        <time>2016-03-01T11:03:56Z</time>
      </trkpt>
      <trkpt lat="45.50696" lon="6.61268">
        <ele>1837.7</ele>
        <time>2016-03-01T11:03:59Z</time>
      </trkpt>
      <trkpt lat="45.50699" lon="6.61273">
        <ele>1836.26</ele>
        <time>2016-03-01T11:04:00Z</time>
      </trkpt>
      <trkpt lat="45.50706" lon="6.6128">
        <ele>1832.89</ele>
        <time>2016-03-01T11:04:03Z</time>
      </trkpt>
      <trkpt lat="45.50706" lon="6.61281">
        <ele>1833.85</ele>
        <time>2016-03-01T11:04:06Z</time>
      </trkpt>
      <trkpt lat="45.50701" lon="6.61289">
        <ele>1831.45</ele>
        <time>2016-03-01T11:04:13Z</time>
      </trkpt>
      <trkpt lat="45.50705" lon="6.61302">
        <ele>1829.05</ele>
        <time>2016-03-01T11:04:17Z</time>
      </trkpt>
      <trkpt lat="45.50702" lon="6.6131">
        <ele>1827.6</ele>
        <time>2016-03-01T11:04:19Z</time>
      </trkpt>
      <trkpt lat="45.50698" lon="6.61321">
        <ele>1825.68</ele>
        <time>2016-03-01T11:04:21Z</time>
      </trkpt>
      <trkpt lat="45.50697" lon="6.61324">
        <ele>1825.68</ele>
        <time>2016-03-01T11:04:22Z</time>
      </trkpt>
      <trkpt lat="45.50696" lon="6.61325">
        <ele>1825.68</ele>
        <time>2016-03-01T11:04:26Z</time>
      </trkpt>
      <trkpt lat="45.50697" lon="6.61326">
        <ele>1825.68</ele>
        <time>2016-03-01T11:04:27Z</time>
      </trkpt>
      <trkpt lat="45.50703" lon="6.61331">
        <ele>1824.24</ele>
        <time>2016-03-01T11:04:30Z</time>
      </trkpt>
      <trkpt lat="45.50705" lon="6.61332">
        <ele>1823.76</ele>
        <time>2016-03-01T11:04:31Z</time>
      </trkpt>
      <trkpt lat="45.50714" lon="6.61341">
        <ele>1821.84</ele>
        <time>2016-03-01T11:04:35Z</time>
      </trkpt>
      <trkpt lat="45.50719" lon="6.6135">
        <ele>1819.91</ele>
        <time>2016-03-01T11:04:38Z</time>
      </trkpt>
      <trkpt lat="45.50722" lon="6.61351">
        <ele>1818.47</ele>
        <time>2016-03-01T11:04:39Z</time>
      </trkpt>
      <trkpt lat="45.50725" lon="6.61349">
        <ele>1818.47</ele>
        <time>2016-03-01T11:04:40Z</time>
      </trkpt>
      <trkpt lat="45.50728" lon="6.61348">
        <ele>1816.55</ele>
        <time>2016-03-01T11:04:41Z</time>
      </trkpt>
      <trkpt lat="45.50732" lon="6.61346">
        <ele>1815.59</ele>
        <time>2016-03-01T11:04:42Z</time>
      </trkpt>
      <trkpt lat="45.50736" lon="6.61344">
        <ele>1815.59</ele>
        <time>2016-03-01T11:04:43Z</time>
      </trkpt>
      <trkpt lat="45.50739" lon="6.61343">
        <ele>1814.15</ele>
        <time>2016-03-01T11:04:44Z</time>
      </trkpt>
      <trkpt lat="45.50741" lon="6.61343">
        <ele>1813.18</ele>
        <time>2016-03-01T11:04:45Z</time>
      </trkpt>
      <trkpt lat="45.50743" lon="6.61342">
        <ele>1812.7</ele>
        <time>2016-03-01T11:04:46Z</time>
      </trkpt>
      <trkpt lat="45.50745" lon="6.6134">
        <ele>1812.7</ele>
        <time>2016-03-01T11:04:47Z</time>
      </trkpt>
      <trkpt lat="45.50747" lon="6.61338">
        <ele>1810.3</ele>
        <time>2016-03-01T11:04:48Z</time>
      </trkpt>
      <trkpt lat="45.50749" lon="6.61337">
        <ele>1809.34</ele>
        <time>2016-03-01T11:04:49Z</time>
      </trkpt>
      <trkpt lat="45.50761" lon="6.61338">
        <ele>1805.01</ele>
        <time>2016-03-01T11:04:59Z</time>
      </trkpt>
      <trkpt lat="45.50767" lon="6.61335">
        <ele>1804.05</ele>
        <time>2016-03-01T11:05:01Z</time>
      </trkpt>
      <trkpt lat="45.50771" lon="6.61337">
        <ele>1804.05</ele>
        <time>2016-03-01T11:05:16Z</time>
      </trkpt>
      <trkpt lat="45.50775" lon="6.61335">
        <ele>1804.53</ele>
        <time>2016-03-01T11:05:24Z</time>
      </trkpt>
      <trkpt lat="45.50777" lon="6.61332">
        <ele>1803.57</ele>
        <time>2016-03-01T11:05:25Z</time>
      </trkpt>
      <trkpt lat="45.50779" lon="6.6133">
        <ele>1802.61</ele>
        <time>2016-03-01T11:05:26Z</time>
      </trkpt>
      <trkpt lat="45.50781" lon="6.61328">
        <ele>1802.13</ele>
        <time>2016-03-01T11:05:27Z</time>
      </trkpt>
      <trkpt lat="45.50784" lon="6.61326">
        <ele>1801.17</ele>
        <time>2016-03-01T11:05:28Z</time>
      </trkpt>
      <trkpt lat="45.50786" lon="6.61325">
        <ele>1799.73</ele>
        <time>2016-03-01T11:05:29Z</time>
      </trkpt>
      <trkpt lat="45.50787" lon="6.61325">
        <ele>1799.73</ele>
        <time>2016-03-01T11:05:30Z</time>
      </trkpt>
      <trkpt lat="45.50789" lon="6.61329">
        <ele>1797.32</ele>
        <time>2016-03-01T11:05:37Z</time>
      </trkpt>
      <trkpt lat="45.50791" lon="6.61329">
        <ele>1795.88</ele>
        <time>2016-03-01T11:05:39Z</time>
      </trkpt>
      <trkpt lat="45.50792" lon="6.61328">
        <ele>1795.4</ele>
        <time>2016-03-01T11:05:40Z</time>
      </trkpt>
      <trkpt lat="45.50793" lon="6.61327">
        <ele>1795.4</ele>
        <time>2016-03-01T11:05:41Z</time>
      </trkpt>
      <trkpt lat="45.50799" lon="6.61325">
        <ele>1794.92</ele>
        <time>2016-03-01T11:05:46Z</time>
      </trkpt>
      <trkpt lat="45.508" lon="6.61328">
        <ele>1794.92</ele>
        <time>2016-03-01T11:05:47Z</time>
      </trkpt>
      <trkpt lat="45.50808" lon="6.61351">
        <ele>1791.55</ele>
        <time>2016-03-01T11:05:57Z</time>
      </trkpt>
      <trkpt lat="45.50822" lon="6.61367">
        <ele>1788.19</ele>
        <time>2016-03-01T11:06:02Z</time>
      </trkpt>
      <trkpt lat="45.50826" lon="6.61371">
        <ele>1788.19</ele>
        <time>2016-03-01T11:06:03Z</time>
      </trkpt>
      <trkpt lat="45.50837" lon="6.61376">
        <ele>1784.82</ele>
        <time>2016-03-01T11:06:13Z</time>
      </trkpt>
      <trkpt lat="45.50838" lon="6.61375">
        <ele>1785.31</ele>
        <time>2016-03-01T11:06:14Z</time>
      </trkpt>
      <trkpt lat="45.5084" lon="6.61377">
        <ele>1782.42</ele>
        <time>2016-03-01T11:06:17Z</time>
      </trkpt>
      <trkpt lat="45.50842" lon="6.61377">
        <ele>1780.98</ele>
        <time>2016-03-01T11:06:20Z</time>
      </trkpt>
      <trkpt lat="45.50847" lon="6.61371">
        <ele>1778.1</ele>
        <time>2016-03-01T11:06:27Z</time>
      </trkpt>
      <trkpt lat="45.5085" lon="6.61369">
        <ele>1778.1</ele>
        <time>2016-03-01T11:06:28Z</time>
      </trkpt>
      <trkpt lat="45.50854" lon="6.61369">
        <ele>1777.13</ele>
        <time>2016-03-01T11:06:29Z</time>
      </trkpt>
      <trkpt lat="45.50857" lon="6.6137">
        <ele>1776.17</ele>
        <time>2016-03-01T11:06:30Z</time>
      </trkpt>
      <trkpt lat="45.5086" lon="6.61371">
        <ele>1775.69</ele>
        <time>2016-03-01T11:06:31Z</time>
      </trkpt>
      <trkpt lat="45.50867" lon="6.61366">
        <ele>1772.81</ele>
        <time>2016-03-01T11:06:34Z</time>
      </trkpt>
      <trkpt lat="45.50874" lon="6.61368">
        <ele>1772.33</ele>
        <time>2016-03-01T11:06:44Z</time>
      </trkpt>
      <trkpt lat="45.50879" lon="6.6137">
        <ele>1772.33</ele>
        <time>2016-03-01T11:06:48Z</time>
      </trkpt>
      <trkpt lat="45.50886" lon="6.61375">
        <ele>1770.89</ele>
        <time>2016-03-01T11:06:51Z</time>
      </trkpt>
      <trkpt lat="45.50891" lon="6.61383">
        <ele>1768.48</ele>
        <time>2016-03-01T11:06:59Z</time>
      </trkpt>
      <trkpt lat="45.50889" lon="6.61384">
        <ele>1768.48</ele>
        <time>2016-03-01T11:07:01Z</time>
      </trkpt>
      <trkpt lat="45.50891" lon="6.61385">
        <ele>1767.04</ele>
        <time>2016-03-01T11:07:05Z</time>
      </trkpt>
      <trkpt lat="45.50891" lon="6.61385">
        <ele>1766.56</ele>
        <time>2016-03-01T11:07:08Z</time>
      </trkpt>
      <trkpt lat="45.50895" lon="6.61391">
        <ele>1763.2</ele>
        <time>2016-03-01T11:07:16Z</time>
      </trkpt>
      <trkpt lat="45.50894" lon="6.61396">
        <ele>1761.75</ele>
        <time>2016-03-01T11:07:30Z</time>
      </trkpt>
      <trkpt lat="45.50898" lon="6.6139">
        <ele>1758.39</ele>
        <time>2016-03-01T11:07:44Z</time>
      </trkpt>
      <trkpt lat="45.50898" lon="6.6139">
        <ele>1757.91</ele>
        <time>2016-03-01T11:07:48Z</time>
      </trkpt>
      <trkpt lat="45.50905" lon="6.61382">
        <ele>1755.02</ele>
        <time>2016-03-01T11:07:53Z</time>
      </trkpt>
      <trkpt lat="45.5091" lon="6.61376">
        <ele>1753.58</ele>
        <time>2016-03-01T11:07:56Z</time>
      </trkpt>
      <trkpt lat="45.50915" lon="6.61365">
        <ele>1751.18</ele>
        <time>2016-03-01T11:08:00Z</time>
      </trkpt>
      <trkpt lat="45.50919" lon="6.61364">
        <ele>1748.78</ele>
        <time>2016-03-01T11:08:02Z</time>
      </trkpt>
      <trkpt lat="45.50931" lon="6.61365">
        <ele>1744.45</ele>
        <time>2016-03-01T11:08:07Z</time>
      </trkpt>
      <trkpt lat="45.50939" lon="6.61369">
        <ele>1740.6</ele>
        <time>2016-03-01T11:08:11Z</time>
      </trkpt>
      <trkpt lat="45.50941" lon="6.6137">
        <ele>1740.6</ele>
        <time>2016-03-01T11:08:12Z</time>
      </trkpt>
      <trkpt lat="45.50949" lon="6.61371">
        <ele>1740.12</ele>
        <time>2016-03-01T11:08:17Z</time>
      </trkpt>
      <trkpt lat="45.50954" lon="6.61367">
        <ele>1738.68</ele>
        <time>2016-03-01T11:08:19Z</time>
      </trkpt>
      <trkpt lat="45.50959" lon="6.61367">
        <ele>1737.72</ele>
        <time>2016-03-01T11:08:26Z</time>
      </trkpt>
      <trkpt lat="45.50966" lon="6.61361">
        <ele>1735.8</ele>
        <time>2016-03-01T11:08:29Z</time>
      </trkpt>
      <trkpt lat="45.50967" lon="6.61359">
        <ele>1735.32</ele>
        <time>2016-03-01T11:08:30Z</time>
      </trkpt>
      <trkpt lat="45.50969" lon="6.61357">
        <ele>1735.32</ele>
        <time>2016-03-01T11:08:31Z</time>
      </trkpt>
      <trkpt lat="45.50982" lon="6.61349">
        <ele>1734.84</ele>
        <time>2016-03-01T11:08:44Z</time>
      </trkpt>
      <trkpt lat="45.50986" lon="6.61348">
        <ele>1734.84</ele>
        <time>2016-03-01T11:08:54Z</time>
      </trkpt>
      <trkpt lat="45.50988" lon="6.61349">
        <ele>1734.84</ele>
        <time>2016-03-01T11:08:55Z</time>
      </trkpt>
      <trkpt lat="45.5099" lon="6.61351">
        <ele>1734.36</ele>
        <time>2016-03-01T11:08:56Z</time>
      </trkpt>
      <trkpt lat="45.50993" lon="6.61353">
        <ele>1733.39</ele>
        <time>2016-03-01T11:08:57Z</time>
      </trkpt>
      <trkpt lat="45.50996" lon="6.61354">
        <ele>1732.91</ele>
        <time>2016-03-01T11:08:58Z</time>
      </trkpt>
      <trkpt lat="45.50997" lon="6.61355">
        <ele>1732.91</ele>
        <time>2016-03-01T11:08:59Z</time>
      </trkpt>
      <trkpt lat="45.51004" lon="6.6136">
        <ele>1731.95</ele>
        <time>2016-03-01T11:09:04Z</time>
      </trkpt>
      <trkpt lat="45.51005" lon="6.61373">
        <ele>1729.55</ele>
        <time>2016-03-01T11:09:16Z</time>
      </trkpt>
      <trkpt lat="45.51004" lon="6.61377">
        <ele>1729.55</ele>
        <time>2016-03-01T11:09:30Z</time>
      </trkpt>
      <trkpt lat="45.51006" lon="6.61376">
        <ele>1729.07</ele>
        <time>2016-03-01T11:09:33Z</time>
      </trkpt>
      <trkpt lat="45.51008" lon="6.61376">
        <ele>1728.11</ele>
        <time>2016-03-01T11:09:34Z</time>
      </trkpt>
      <trkpt lat="45.51016" lon="6.61378">
        <ele>1725.7</ele>
        <time>2016-03-01T11:09:43Z</time>
      </trkpt>
      <trkpt lat="45.51024" lon="6.61375">
        <ele>1724.26</ele>
        <time>2016-03-01T11:09:47Z</time>
      </trkpt>
      <trkpt lat="45.51027" lon="6.61377">
        <ele>1723.3</ele>
        <time>2016-03-01T11:09:48Z</time>
      </trkpt>
      <trkpt lat="45.5103" lon="6.61379">
        <ele>1722.34</ele>
        <time>2016-03-01T11:09:49Z</time>
      </trkpt>
      <trkpt lat="45.51033" lon="6.61381">
        <ele>1720.9</ele>
        <time>2016-03-01T11:09:50Z</time>
      </trkpt>
      <trkpt lat="45.51036" lon="6.61382">
        <ele>1720.42</ele>
        <time>2016-03-01T11:09:51Z</time>
      </trkpt>
      <trkpt lat="45.51046" lon="6.61389">
        <ele>1718.01</ele>
        <time>2016-03-01T11:09:55Z</time>
      </trkpt>
      <trkpt lat="45.51049" lon="6.6139">
        <ele>1718.49</ele>
        <time>2016-03-01T11:09:57Z</time>
      </trkpt>
      <trkpt lat="45.51055" lon="6.61385">
        <ele>1716.57</ele>
        <time>2016-03-01T11:10:01Z</time>
      </trkpt>
      <trkpt lat="45.5106" lon="6.61383">
        <ele>1715.61</ele>
        <time>2016-03-01T11:10:03Z</time>
      </trkpt>
      <trkpt lat="45.51071" lon="6.61378">
        <ele>1713.69</ele>
        <time>2016-03-01T11:10:10Z</time>
      </trkpt>
      <trkpt lat="45.5107" lon="6.61377">
        <ele>1713.69</ele>
        <time>2016-03-01T11:10:11Z</time>
      </trkpt>
      <trkpt lat="45.51077" lon="6.61379">
        <ele>1711.76</ele>
        <time>2016-03-01T11:10:19Z</time>
      </trkpt>
      <trkpt lat="45.51078" lon="6.61387">
        <ele>1711.76</ele>
        <time>2016-03-01T11:10:34Z</time>
      </trkpt>
      <trkpt lat="45.51075" lon="6.61387">
        <ele>1711.28</ele>
        <time>2016-03-01T11:10:41Z</time>
      </trkpt>
      <trkpt lat="45.51084" lon="6.61385">
        <ele>1708.4</ele>
        <time>2016-03-01T11:10:46Z</time>
      </trkpt>
      <trkpt lat="45.51093" lon="6.61385">
        <ele>1704.07</ele>
        <time>2016-03-01T11:10:49Z</time>
      </trkpt>
      <trkpt lat="45.51095" lon="6.61386">
        <ele>1704.07</ele>
        <time>2016-03-01T11:10:50Z</time>
      </trkpt>
      <trkpt lat="45.51096" lon="6.61392">
        <ele>1702.63</ele>
        <time>2016-03-01T11:11:02Z</time>
      </trkpt>
      <trkpt lat="45.51097" lon="6.61391">
        <ele>1702.63</ele>
        <time>2016-03-01T11:11:03Z</time>
      </trkpt>
      <trkpt lat="45.51109" lon="6.61395">
        <ele>1700.23</ele>
        <time>2016-03-01T11:11:08Z</time>
      </trkpt>
      <trkpt lat="45.51126" lon="6.61402">
        <ele>1698.31</ele>
        <time>2016-03-01T11:11:15Z</time>
      </trkpt>
      <trkpt lat="45.51133" lon="6.61388">
        <ele>1694.94</ele>
        <time>2016-03-01T11:11:23Z</time>
      </trkpt>
      <trkpt lat="45.51135" lon="6.6139">
        <ele>1693.98</ele>
        <time>2016-03-01T11:11:31Z</time>
      </trkpt>
      <trkpt lat="45.51141" lon="6.6139">
        <ele>1691.58</ele>
        <time>2016-03-01T11:11:36Z</time>
      </trkpt>
      <trkpt lat="45.51143" lon="6.61387">
        <ele>1691.1</ele>
        <time>2016-03-01T11:11:39Z</time>
      </trkpt>
      <trkpt lat="45.51148" lon="6.61395">
        <ele>1690.62</ele>
        <time>2016-03-01T11:11:49Z</time>
      </trkpt>
      <trkpt lat="45.51151" lon="6.61396">
        <ele>1690.14</ele>
        <time>2016-03-01T11:11:54Z</time>
      </trkpt>
      <trkpt lat="45.51155" lon="6.614">
        <ele>1689.17</ele>
        <time>2016-03-01T11:11:59Z</time>
      </trkpt>
      <trkpt lat="45.5117" lon="6.61395">
        <ele>1683.89</ele>
        <time>2016-03-01T11:12:04Z</time>
      </trkpt>
      <trkpt lat="45.51182" lon="6.61398">
        <ele>1683.41</ele>
        <time>2016-03-01T11:12:14Z</time>
      </trkpt>
      <trkpt lat="45.51189" lon="6.61397">
        <ele>1682.44</ele>
        <time>2016-03-01T11:12:17Z</time>
      </trkpt>
      <trkpt lat="45.51194" lon="6.61399">
        <ele>1681.48</ele>
        <time>2016-03-01T11:12:20Z</time>
      </trkpt>
      <trkpt lat="45.51201" lon="6.614">
        <ele>1680.52</ele>
        <time>2016-03-01T11:12:24Z</time>
      </trkpt>
      <trkpt lat="45.51207" lon="6.61405">
        <ele>1681</ele>
        <time>2016-03-01T11:12:42Z</time>
      </trkpt>
      <trkpt lat="45.51208" lon="6.61404">
        <ele>1681</ele>
        <time>2016-03-01T11:12:44Z</time>
      </trkpt>
      <trkpt lat="45.51211" lon="6.61405">
        <ele>1682.44</ele>
        <time>2016-03-01T11:12:47Z</time>
      </trkpt>
      <trkpt lat="45.51223" lon="6.61415">
        <ele>1682.44</ele>
        <time>2016-03-01T11:12:57Z</time>
      </trkpt>
      <trkpt lat="45.51225" lon="6.61422">
        <ele>1681.48</ele>
        <time>2016-03-01T11:13:02Z</time>
      </trkpt>
      <trkpt lat="45.51223" lon="6.61422">
        <ele>1681.48</ele>
        <time>2016-03-01T11:13:08Z</time>
      </trkpt>
      <trkpt lat="45.51226" lon="6.6143">
        <ele>1679.08</ele>
        <time>2016-03-01T11:13:12Z</time>
      </trkpt>
      <trkpt lat="45.51227" lon="6.61432">
        <ele>1678.12</ele>
        <time>2016-03-01T11:13:16Z</time>
      </trkpt>
      <trkpt lat="45.51231" lon="6.61442">
        <ele>1676.68</ele>
        <time>2016-03-01T11:13:20Z</time>
      </trkpt>
      <trkpt lat="45.51232" lon="6.61444">
        <ele>1676.2</ele>
        <time>2016-03-01T11:13:24Z</time>
      </trkpt>
      <trkpt lat="45.51233" lon="6.61454">
        <ele>1674.27</ele>
        <time>2016-03-01T11:13:27Z</time>
      </trkpt>
      <trkpt lat="45.51233" lon="6.61455">
        <ele>1674.27</ele>
        <time>2016-03-01T11:13:28Z</time>
      </trkpt>
      <trkpt lat="45.51238" lon="6.61462">
        <ele>1670.43</ele>
        <time>2016-03-01T11:13:33Z</time>
      </trkpt>
      <trkpt lat="45.51238" lon="6.61462">
        <ele>1670.43</ele>
        <time>2016-03-01T11:13:36Z</time>
      </trkpt>
      <trkpt lat="45.5124" lon="6.61462">
        <ele>1668.51</ele>
        <time>2016-03-01T11:13:38Z</time>
      </trkpt>
      <trkpt lat="45.51243" lon="6.61465">
        <ele>1665.62</ele>
        <time>2016-03-01T11:13:41Z</time>
      </trkpt>
      <trkpt lat="45.51247" lon="6.61466">
        <ele>1663.7</ele>
        <time>2016-03-01T11:13:43Z</time>
      </trkpt>
      <trkpt lat="45.51255" lon="6.61467">
        <ele>1663.7</ele>
        <time>2016-03-01T11:13:46Z</time>
      </trkpt>
      <trkpt lat="45.51261" lon="6.61471">
        <ele>1661.78</ele>
        <time>2016-03-01T11:13:49Z</time>
      </trkpt>
      <trkpt lat="45.51271" lon="6.61467">
        <ele>1658.41</ele>
        <time>2016-03-01T11:13:54Z</time>
      </trkpt>
      <trkpt lat="45.51283" lon="6.61473">
        <ele>1655.05</ele>
        <time>2016-03-01T11:14:01Z</time>
      </trkpt>
      <trkpt lat="45.51286" lon="6.61475">
        <ele>1653.6</ele>
        <time>2016-03-01T11:14:05Z</time>
      </trkpt>
      <trkpt lat="45.5129" lon="6.61471">
        <ele>1651.68</ele>
        <time>2016-03-01T11:14:11Z</time>
      </trkpt>
      <trkpt lat="45.51298" lon="6.61469">
        <ele>1648.8</ele>
        <time>2016-03-01T11:14:15Z</time>
      </trkpt>
      <trkpt lat="45.513" lon="6.61469">
        <ele>1649.28</ele>
        <time>2016-03-01T11:14:17Z</time>
      </trkpt>
      <trkpt lat="45.51309" lon="6.61468">
        <ele>1646.88</ele>
        <time>2016-03-01T11:14:22Z</time>
      </trkpt>
      <trkpt lat="45.5132" lon="6.6147">
        <ele>1644.47</ele>
        <time>2016-03-01T11:14:27Z</time>
      </trkpt>
      <trkpt lat="45.51327" lon="6.61477">
        <ele>1641.11</ele>
        <time>2016-03-01T11:14:31Z</time>
      </trkpt>
      <trkpt lat="45.5133" lon="6.61481">
        <ele>1641.59</ele>
        <time>2016-03-01T11:14:37Z</time>
      </trkpt>
      <trkpt lat="45.51332" lon="6.61461">
        <ele>1636.78</ele>
        <time>2016-03-01T11:14:43Z</time>
      </trkpt>
      <trkpt lat="45.51332" lon="6.6146">
        <ele>1636.78</ele>
        <time>2016-03-01T11:14:44Z</time>
      </trkpt>
      <trkpt lat="45.51344" lon="6.61453">
        <ele>1635.82</ele>
        <time>2016-03-01T11:14:56Z</time>
      </trkpt>
      <trkpt lat="45.51348" lon="6.61452">
        <ele>1634.38</ele>
        <time>2016-03-01T11:14:57Z</time>
      </trkpt>
      <trkpt lat="45.5135" lon="6.61453">
        <ele>1634.38</ele>
        <time>2016-03-01T11:14:58Z</time>
      </trkpt>
      <trkpt lat="45.51355" lon="6.61455">
        <ele>1633.42</ele>
        <time>2016-03-01T11:15:01Z</time>
      </trkpt>
      <trkpt lat="45.51358" lon="6.61454">
        <ele>1632.94</ele>
        <time>2016-03-01T11:15:02Z</time>
      </trkpt>
      <trkpt lat="45.51362" lon="6.61452">
        <ele>1631.49</ele>
        <time>2016-03-01T11:15:03Z</time>
      </trkpt>
      <trkpt lat="45.51369" lon="6.61449">
        <ele>1630.53</ele>
        <time>2016-03-01T11:15:05Z</time>
      </trkpt>
      <trkpt lat="45.51373" lon="6.6145">
        <ele>1629.57</ele>
        <time>2016-03-01T11:15:06Z</time>
      </trkpt>
      <trkpt lat="45.51375" lon="6.61452">
        <ele>1628.61</ele>
        <time>2016-03-01T11:15:07Z</time>
      </trkpt>
      <trkpt lat="45.51391" lon="6.61475">
        <ele>1625.25</ele>
        <time>2016-03-01T11:15:11Z</time>
      </trkpt>
      <trkpt lat="45.51411" lon="6.61503">
        <ele>1621.88</ele>
        <time>2016-03-01T11:15:15Z</time>
      </trkpt>
      <trkpt lat="45.51422" lon="6.6152">
        <ele>1620.44</ele>
        <time>2016-03-01T11:15:17Z</time>
      </trkpt>
      <trkpt lat="45.51445" lon="6.6155">
        <ele>1616.59</ele>
        <time>2016-03-01T11:15:21Z</time>
      </trkpt>
      <trkpt lat="45.51451" lon="6.61558">
        <ele>1615.63</ele>
        <time>2016-03-01T11:15:22Z</time>
      </trkpt>
      <trkpt lat="45.51463" lon="6.61572">
        <ele>1613.71</ele>
        <time>2016-03-01T11:15:24Z</time>
      </trkpt>
      <trkpt lat="45.51468" lon="6.61579">
        <ele>1612.75</ele>
        <time>2016-03-01T11:15:25Z</time>
      </trkpt>
      <trkpt lat="45.51486" lon="6.6161">
        <ele>1608.9</ele>
        <time>2016-03-01T11:15:29Z</time>
      </trkpt>
      <trkpt lat="45.51502" lon="6.6164">
        <ele>1606.02</ele>
        <time>2016-03-01T11:15:33Z</time>
      </trkpt>
      <trkpt lat="45.51509" lon="6.61653">
        <ele>1604.58</ele>
        <time>2016-03-01T11:15:35Z</time>
      </trkpt>
      <trkpt lat="45.51514" lon="6.61656">
        <ele>1604.1</ele>
        <time>2016-03-01T11:15:36Z</time>
      </trkpt>
      <trkpt lat="45.51519" lon="6.61656">
        <ele>1603.14</ele>
        <time>2016-03-01T11:15:37Z</time>
      </trkpt>
      <trkpt lat="45.51525" lon="6.61655">
        <ele>1603.14</ele>
        <time>2016-03-01T11:15:38Z</time>
      </trkpt>
      <trkpt lat="45.51529" lon="6.61653">
        <ele>1602.17</ele>
        <time>2016-03-01T11:15:39Z</time>
      </trkpt>
      <trkpt lat="45.51533" lon="6.6165">
        <ele>1602.17</ele>
        <time>2016-03-01T11:15:40Z</time>
      </trkpt>
      <trkpt lat="45.51535" lon="6.61646">
        <ele>1601.69</ele>
        <time>2016-03-01T11:15:41Z</time>
      </trkpt>
      <trkpt lat="45.51536" lon="6.61641">
        <ele>1601.69</ele>
        <time>2016-03-01T11:15:42Z</time>
      </trkpt>
      <trkpt lat="45.51536" lon="6.61636">
        <ele>1601.21</ele>
        <time>2016-03-01T11:15:43Z</time>
      </trkpt>
      <trkpt lat="45.51536" lon="6.6163">
        <ele>1601.69</ele>
        <time>2016-03-01T11:15:44Z</time>
      </trkpt>
      <trkpt lat="45.51535" lon="6.61623">
        <ele>1600.25</ele>
        <time>2016-03-01T11:15:45Z</time>
      </trkpt>
      <trkpt lat="45.51533" lon="6.61616">
        <ele>1599.77</ele>
        <time>2016-03-01T11:15:46Z</time>
      </trkpt>
      <trkpt lat="45.51521" lon="6.61571">
        <ele>1595.93</ele>
        <time>2016-03-01T11:15:52Z</time>
      </trkpt>
      <trkpt lat="45.51515" lon="6.61532">
        <ele>1592.56</ele>
        <time>2016-03-01T11:15:57Z</time>
      </trkpt>
      <trkpt lat="45.51505" lon="6.61487">
        <ele>1588.72</ele>
        <time>2016-03-01T11:16:03Z</time>
      </trkpt>
      <trkpt lat="45.51503" lon="6.61479">
        <ele>1587.75</ele>
        <time>2016-03-01T11:16:04Z</time>
      </trkpt>
      <trkpt lat="45.51502" lon="6.61471">
        <ele>1587.27</ele>
        <time>2016-03-01T11:16:05Z</time>
      </trkpt>
      <trkpt lat="45.51503" lon="6.61463">
        <ele>1586.31</ele>
        <time>2016-03-01T11:16:06Z</time>
      </trkpt>
      <trkpt lat="45.51505" lon="6.61456">
        <ele>1586.31</ele>
        <time>2016-03-01T11:16:07Z</time>
      </trkpt>
      <trkpt lat="45.51507" lon="6.61449">
        <ele>1585.83</ele>
        <time>2016-03-01T11:16:08Z</time>
      </trkpt>
      <trkpt lat="45.51513" lon="6.61435">
        <ele>1583.91</ele>
        <time>2016-03-01T11:16:10Z</time>
      </trkpt>
      <trkpt lat="45.51521" lon="6.6142">
        <ele>1583.43</ele>
        <time>2016-03-01T11:16:12Z</time>
      </trkpt>
      <trkpt lat="45.51524" lon="6.61411">
        <ele>1581.99</ele>
        <time>2016-03-01T11:16:13Z</time>
      </trkpt>
      <trkpt lat="45.51526" lon="6.61402">
        <ele>1581.03</ele>
        <time>2016-03-01T11:16:14Z</time>
      </trkpt>
      <trkpt lat="45.51531" lon="6.61369">
        <ele>1577.66</ele>
        <time>2016-03-01T11:16:18Z</time>
      </trkpt>
      <trkpt lat="45.51533" lon="6.61355">
        <ele>1577.18</ele>
        <time>2016-03-01T11:16:20Z</time>
      </trkpt>
      <trkpt lat="45.51546" lon="6.61305">
        <ele>1575.26</ele>
        <time>2016-03-01T11:16:31Z</time>
      </trkpt>
      <trkpt lat="45.51559" lon="6.6129">
        <ele>1577.18</ele>
        <time>2016-03-01T11:16:40Z</time>
      </trkpt>
      <trkpt lat="45.51574" lon="6.61256">
        <ele>1577.18</ele>
        <time>2016-03-01T11:16:54Z</time>
      </trkpt>
      <trkpt lat="45.51551" lon="6.61199">
        <ele>1574.78</ele>
        <time>2016-03-01T11:17:07Z</time>
      </trkpt>
      <trkpt lat="45.51514" lon="6.61137">
        <ele>1571.89</ele>
        <time>2016-03-01T11:17:23Z</time>
      </trkpt>
      <trkpt lat="45.51473" lon="6.61078">
        <ele>1568.53</ele>
        <time>2016-03-01T11:17:37Z</time>
      </trkpt>
      <trkpt lat="45.51447" lon="6.61018">
        <ele>1565.64</ele>
        <time>2016-03-01T11:17:49Z</time>
      </trkpt>
      <trkpt lat="45.51445" lon="6.61012">
        <ele>1565.16</ele>
        <time>2016-03-01T11:17:50Z</time>
      </trkpt>
      <trkpt lat="45.51438" lon="6.60975">
        <ele>1564.2</ele>
        <time>2016-03-01T11:18:01Z</time>
      </trkpt>
      <trkpt lat="45.51435" lon="6.60973">
        <ele>1564.2</ele>
        <time>2016-03-01T11:18:22Z</time>
      </trkpt>
      <trkpt lat="45.51435" lon="6.6097">
        <ele>1564.2</ele>
        <time>2016-03-01T11:18:23Z</time>
      </trkpt>
      <trkpt lat="45.51436" lon="6.60968">
        <ele>1564.2</ele>
        <time>2016-03-01T11:18:24Z</time>
      </trkpt>
      <trkpt lat="45.51436" lon="6.60964">
        <ele>1564.2</ele>
        <time>2016-03-01T11:18:25Z</time>
      </trkpt>
      <trkpt lat="45.51436" lon="6.60963">
        <ele>1564.2</ele>
        <time>2016-03-01T11:18:26Z</time>
      </trkpt>
      <trkpt lat="45.51435" lon="6.6096">
        <ele>1564.2</ele>
        <time>2016-03-01T11:18:27Z</time>
      </trkpt>
      <trkpt lat="45.51432" lon="6.60944">
        <ele>1563.72</ele>
        <time>2016-03-01T11:18:35Z</time>
      </trkpt>
      <trkpt lat="45.51431" lon="6.60938">
        <ele>1561.8</ele>
        <time>2016-03-01T11:18:36Z</time>
      </trkpt>
      <trkpt lat="45.5143" lon="6.60933">
        <ele>1560.84</ele>
        <time>2016-03-01T11:18:37Z</time>
      </trkpt>
      <trkpt lat="45.51428" lon="6.60927">
        <ele>1558.92</ele>
        <time>2016-03-01T11:18:38Z</time>
      </trkpt>
      <trkpt lat="45.51427" lon="6.60921">
        <ele>1556.99</ele>
        <time>2016-03-01T11:18:39Z</time>
      </trkpt>
      <trkpt lat="45.51426" lon="6.60917">
        <ele>1556.99</ele>
        <time>2016-03-01T11:18:40Z</time>
      </trkpt>
      <trkpt lat="45.51425" lon="6.60915">
        <ele>1556.99</ele>
        <time>2016-03-01T11:18:41Z</time>
      </trkpt>
      <trkpt lat="45.51424" lon="6.60913">
        <ele>1556.99</ele>
        <time>2016-03-01T11:18:42Z</time>
      </trkpt>
      <trkpt lat="45.51425" lon="6.60905">
        <ele>1554.11</ele>
        <time>2016-03-01T11:18:46Z</time>
      </trkpt>
      <trkpt lat="45.51427" lon="6.60896">
        <ele>1552.19</ele>
        <time>2016-03-01T11:18:50Z</time>
      </trkpt>
      <trkpt lat="45.51447" lon="6.6086">
        <ele>1549.78</ele>
        <time>2016-03-01T11:18:57Z</time>
      </trkpt>
      <trkpt lat="45.51446" lon="6.60851">
        <ele>1547.38</ele>
        <time>2016-03-01T11:19:00Z</time>
      </trkpt>
      <trkpt lat="45.51445" lon="6.60852">
        <ele>1547.38</ele>
        <time>2016-03-01T11:19:01Z</time>
      </trkpt>
      <trkpt lat="45.51444" lon="6.60851">
        <ele>1546.42</ele>
        <time>2016-03-01T11:19:06Z</time>
      </trkpt>
      <trkpt lat="45.51442" lon="6.6085">
        <ele>1545.94</ele>
        <time>2016-03-01T11:19:07Z</time>
      </trkpt>
      <trkpt lat="45.51439" lon="6.60851">
        <ele>1545.46</ele>
        <time>2016-03-01T11:19:08Z</time>
      </trkpt>
      <trkpt lat="45.51419" lon="6.60862">
        <ele>1544.01</ele>
        <time>2016-03-01T11:19:13Z</time>
      </trkpt>
      <trkpt lat="45.51414" lon="6.60863">
        <ele>1542.57</ele>
        <time>2016-03-01T11:19:14Z</time>
      </trkpt>
      <trkpt lat="45.51409" lon="6.60861">
        <ele>1542.57</ele>
        <time>2016-03-01T11:19:15Z</time>
      </trkpt>
      <trkpt lat="45.51405" lon="6.6086">
        <ele>1541.61</ele>
        <time>2016-03-01T11:19:16Z</time>
      </trkpt>
      <trkpt lat="45.51402" lon="6.6086">
        <ele>1541.61</ele>
        <time>2016-03-01T11:19:17Z</time>
      </trkpt>
      <trkpt lat="45.51401" lon="6.60861">
        <ele>1541.13</ele>
        <time>2016-03-01T11:19:18Z</time>
      </trkpt>
      <trkpt lat="45.51401" lon="6.60863">
        <ele>1540.65</ele>
        <time>2016-03-01T11:19:19Z</time>
      </trkpt>
      <trkpt lat="45.514" lon="6.60865">
        <ele>1540.65</ele>
        <time>2016-03-01T11:19:20Z</time>
      </trkpt>
      <trkpt lat="45.51396" lon="6.60869">
        <ele>1537.29</ele>
        <time>2016-03-01T11:19:24Z</time>
      </trkpt>
      <trkpt lat="45.51395" lon="6.6087">
        <ele>1537.29</ele>
        <time>2016-03-01T11:19:25Z</time>
      </trkpt>
      <trkpt lat="45.51391" lon="6.60864">
        <ele>1534.88</ele>
        <time>2016-03-01T11:19:29Z</time>
      </trkpt>
      <trkpt lat="45.51389" lon="6.60859">
        <ele>1533.92</ele>
        <time>2016-03-01T11:19:31Z</time>
      </trkpt>
      <trkpt lat="45.51391" lon="6.60851">
        <ele>1533.44</ele>
        <time>2016-03-01T11:19:32Z</time>
      </trkpt>
      <trkpt lat="45.51392" lon="6.60847">
        <ele>1532.96</ele>
        <time>2016-03-01T11:19:33Z</time>
      </trkpt>
      <trkpt lat="45.514" lon="6.60822">
        <ele>1531.52</ele>
        <time>2016-03-01T11:19:40Z</time>
      </trkpt>
      <trkpt lat="45.514" lon="6.60821">
        <ele>1529.11</ele>
        <time>2016-03-01T11:19:42Z</time>
      </trkpt>
      <trkpt lat="45.51396" lon="6.60822">
        <ele>1527.67</ele>
        <time>2016-03-01T11:19:43Z</time>
      </trkpt>
      <trkpt lat="45.51389" lon="6.60801">
        <ele>1524.31</ele>
        <time>2016-03-01T11:19:47Z</time>
      </trkpt>
      <trkpt lat="45.51387" lon="6.60793">
        <ele>1523.35</ele>
        <time>2016-03-01T11:19:48Z</time>
      </trkpt>
      <trkpt lat="45.51385" lon="6.60785">
        <ele>1522.87</ele>
        <time>2016-03-01T11:19:49Z</time>
      </trkpt>
      <trkpt lat="45.51384" lon="6.60777">
        <ele>1522.39</ele>
        <time>2016-03-01T11:19:50Z</time>
      </trkpt>
      <trkpt lat="45.51384" lon="6.60769">
        <ele>1522.39</ele>
        <time>2016-03-01T11:19:51Z</time>
      </trkpt>
      <trkpt lat="45.51382" lon="6.60752">
        <ele>1520.46</ele>
        <time>2016-03-01T11:19:53Z</time>
      </trkpt>
      <trkpt lat="45.5138" lon="6.60743">
        <ele>1519.5</ele>
        <time>2016-03-01T11:19:54Z</time>
      </trkpt>
      <trkpt lat="45.51374" lon="6.60727">
        <ele>1518.06</ele>
        <time>2016-03-01T11:19:56Z</time>
      </trkpt>
      <trkpt lat="45.51361" lon="6.60702">
        <ele>1515.18</ele>
        <time>2016-03-01T11:19:59Z</time>
      </trkpt>
      <trkpt lat="45.51352" lon="6.60684">
        <ele>1513.73</ele>
        <time>2016-03-01T11:20:01Z</time>
      </trkpt>
      <trkpt lat="45.5135" lon="6.60674">
        <ele>1512.77</ele>
        <time>2016-03-01T11:20:02Z</time>
      </trkpt>
      <trkpt lat="45.51344" lon="6.60636">
        <ele>1508.45</ele>
        <time>2016-03-01T11:20:06Z</time>
      </trkpt>
      <trkpt lat="45.51344" lon="6.60627">
        <ele>1507.97</ele>
        <time>2016-03-01T11:20:07Z</time>
      </trkpt>
      <trkpt lat="45.51345" lon="6.60619">
        <ele>1507.97</ele>
        <time>2016-03-01T11:20:08Z</time>
      </trkpt>
      <trkpt lat="45.51345" lon="6.60614">
        <ele>1507.97</ele>
        <time>2016-03-01T11:20:10Z</time>
      </trkpt>
      <trkpt lat="45.51345" lon="6.60613">
        <ele>1507.97</ele>
        <time>2016-03-01T11:20:11Z</time>
      </trkpt>
      <trkpt lat="45.51345" lon="6.60613">
        <ele>1507.48</ele>
        <time>2016-03-01T11:20:12Z</time>
      </trkpt>
      <trkpt lat="45.51346" lon="6.60611">
        <ele>1507.48</ele>
        <time>2016-03-01T11:20:13Z</time>
      </trkpt>
      <trkpt lat="45.51346" lon="6.60608">
        <ele>1507.97</ele>
        <time>2016-03-01T11:20:14Z</time>
      </trkpt>
      <trkpt lat="45.51346" lon="6.60605">
        <ele>1507.48</ele>
        <time>2016-03-01T11:20:15Z</time>
      </trkpt>
      <trkpt lat="45.51345" lon="6.60602">
        <ele>1507.48</ele>
        <time>2016-03-01T11:20:16Z</time>
      </trkpt>
      <trkpt lat="45.51344" lon="6.60598">
        <ele>1506.52</ele>
        <time>2016-03-01T11:20:17Z</time>
      </trkpt>
      <trkpt lat="45.5134" lon="6.60593">
        <ele>1506.04</ele>
        <time>2016-03-01T11:20:26Z</time>
      </trkpt>
      <trkpt lat="45.51341" lon="6.6059">
        <ele>1505.56</ele>
        <time>2016-03-01T11:20:27Z</time>
      </trkpt>
      <trkpt lat="45.5134" lon="6.60588">
        <ele>1504.6</ele>
        <time>2016-03-01T11:20:28Z</time>
      </trkpt>
      <trkpt lat="45.51338" lon="6.60586">
        <ele>1504.12</ele>
        <time>2016-03-01T11:20:29Z</time>
      </trkpt>
      <trkpt lat="45.51337" lon="6.60585">
        <ele>1504.12</ele>
        <time>2016-03-01T11:20:30Z</time>
      </trkpt>
      <trkpt lat="45.51332" lon="6.60583">
        <ele>1501.24</ele>
        <time>2016-03-01T11:20:34Z</time>
      </trkpt>
      <trkpt lat="45.51331" lon="6.60582">
        <ele>1501.24</ele>
        <time>2016-03-01T11:20:35Z</time>
      </trkpt>
      <trkpt lat="45.51327" lon="6.60581">
        <ele>1500.76</ele>
        <time>2016-03-01T11:20:37Z</time>
      </trkpt>
      <trkpt lat="45.51324" lon="6.60581">
        <ele>1499.79</ele>
        <time>2016-03-01T11:20:38Z</time>
      </trkpt>
      <trkpt lat="45.51321" lon="6.60581">
        <ele>1498.83</ele>
        <time>2016-03-01T11:20:39Z</time>
      </trkpt>
      <trkpt lat="45.51318" lon="6.60581">
        <ele>1498.83</ele>
        <time>2016-03-01T11:20:40Z</time>
      </trkpt>
      <trkpt lat="45.51314" lon="6.60581">
        <ele>1498.83</ele>
        <time>2016-03-01T11:20:45Z</time>
      </trkpt>
      <trkpt lat="45.51318" lon="6.60574">
        <ele>1498.35</ele>
        <time>2016-03-01T11:20:49Z</time>
      </trkpt>
      <trkpt lat="45.51318" lon="6.60567">
        <ele>1497.39</ele>
        <time>2016-03-01T11:20:54Z</time>
      </trkpt>
      <trkpt lat="45.51319" lon="6.6056">
        <ele>1497.39</ele>
        <time>2016-03-01T11:20:56Z</time>
      </trkpt>
      <trkpt lat="45.51318" lon="6.60555">
        <ele>1495.95</ele>
        <time>2016-03-01T11:20:57Z</time>
      </trkpt>
      <trkpt lat="45.51317" lon="6.60551">
        <ele>1494.99</ele>
        <time>2016-03-01T11:20:58Z</time>
      </trkpt>
      <trkpt lat="45.51314" lon="6.60547">
        <ele>1494.51</ele>
        <time>2016-03-01T11:20:59Z</time>
      </trkpt>
      <trkpt lat="45.51312" lon="6.60545">
        <ele>1494.03</ele>
        <time>2016-03-01T11:21:00Z</time>
      </trkpt>
      <trkpt lat="45.51309" lon="6.60543">
        <ele>1494.03</ele>
        <time>2016-03-01T11:21:01Z</time>
      </trkpt>
      <trkpt lat="45.51307" lon="6.60541">
        <ele>1493.06</ele>
        <time>2016-03-01T11:21:02Z</time>
      </trkpt>
      <trkpt lat="45.51286" lon="6.60526">
        <ele>1490.18</ele>
        <time>2016-03-01T11:21:12Z</time>
      </trkpt>
      <trkpt lat="45.51254" lon="6.60512">
        <ele>1486.82</ele>
        <time>2016-03-01T11:21:21Z</time>
      </trkpt>
      <trkpt lat="45.51218" lon="6.60496">
        <ele>1483.45</ele>
        <time>2016-03-01T11:21:28Z</time>
      </trkpt>
      <trkpt lat="45.5119" lon="6.60483">
        <ele>1480.09</ele>
        <time>2016-03-01T11:21:33Z</time>
      </trkpt>
      <trkpt lat="45.51166" lon="6.6046">
        <ele>1477.68</ele>
        <time>2016-03-01T11:21:38Z</time>
      </trkpt>
      <trkpt lat="45.51162" lon="6.60454">
        <ele>1476.72</ele>
        <time>2016-03-01T11:21:39Z</time>
      </trkpt>
      <trkpt lat="45.51158" lon="6.60447">
        <ele>1476.72</ele>
        <time>2016-03-01T11:21:40Z</time>
      </trkpt>
      <trkpt lat="45.51155" lon="6.6044">
        <ele>1475.76</ele>
        <time>2016-03-01T11:21:41Z</time>
      </trkpt>
      <trkpt lat="45.51151" lon="6.60433">
        <ele>1475.28</ele>
        <time>2016-03-01T11:21:42Z</time>
      </trkpt>
      <trkpt lat="45.51148" lon="6.60426">
        <ele>1474.32</ele>
        <time>2016-03-01T11:21:43Z</time>
      </trkpt>
      <trkpt lat="45.51143" lon="6.60421">
        <ele>1473.84</ele>
        <time>2016-03-01T11:21:44Z</time>
      </trkpt>
      <trkpt lat="45.51139" lon="6.60417">
        <ele>1473.84</ele>
        <time>2016-03-01T11:21:45Z</time>
      </trkpt>
      <trkpt lat="45.51134" lon="6.60414">
        <ele>1472.88</ele>
        <time>2016-03-01T11:21:46Z</time>
      </trkpt>
      <trkpt lat="45.51129" lon="6.60412">
        <ele>1472.4</ele>
        <time>2016-03-01T11:21:47Z</time>
      </trkpt>
      <trkpt lat="45.51123" lon="6.6041">
        <ele>1471.92</ele>
        <time>2016-03-01T11:21:48Z</time>
      </trkpt>
      <trkpt lat="45.51117" lon="6.60408">
        <ele>1471.92</ele>
        <time>2016-03-01T11:21:49Z</time>
      </trkpt>
      <trkpt lat="45.51092" lon="6.60399">
        <ele>1469.03</ele>
        <time>2016-03-01T11:21:53Z</time>
      </trkpt>
      <trkpt lat="45.51086" lon="6.60396">
        <ele>1468.07</ele>
        <time>2016-03-01T11:21:54Z</time>
      </trkpt>
      <trkpt lat="45.51069" lon="6.60385">
        <ele>1465.67</ele>
        <time>2016-03-01T11:21:57Z</time>
      </trkpt>
      <trkpt lat="45.51042" lon="6.60364">
        <ele>1463.26</ele>
        <time>2016-03-01T11:22:03Z</time>
      </trkpt>
      <trkpt lat="45.51022" lon="6.60349">
        <ele>1459.9</ele>
        <time>2016-03-01T11:22:07Z</time>
      </trkpt>
      <trkpt lat="45.51" lon="6.60331">
        <ele>1457.02</ele>
        <time>2016-03-01T11:22:12Z</time>
      </trkpt>
      <trkpt lat="45.50995" lon="6.60329">
        <ele>1456.53</ele>
        <time>2016-03-01T11:22:13Z</time>
      </trkpt>
      <trkpt lat="45.5099" lon="6.60327">
        <ele>1456.05</ele>
        <time>2016-03-01T11:22:14Z</time>
      </trkpt>
      <trkpt lat="45.50972" lon="6.60321">
        <ele>1454.61</ele>
        <time>2016-03-01T11:22:17Z</time>
      </trkpt>
      <trkpt lat="45.50966" lon="6.60318">
        <ele>1454.13</ele>
        <time>2016-03-01T11:22:18Z</time>
      </trkpt>
      <trkpt lat="45.5096" lon="6.60314">
        <ele>1453.17</ele>
        <time>2016-03-01T11:22:19Z</time>
      </trkpt>
      <trkpt lat="45.5092" lon="6.60285">
        <ele>1449.32</ele>
        <time>2016-03-01T11:22:26Z</time>
      </trkpt>
      <trkpt lat="45.50887" lon="6.60256">
        <ele>1445.96</ele>
        <time>2016-03-01T11:22:33Z</time>
      </trkpt>
      <trkpt lat="45.50848" lon="6.60201">
        <ele>1442.6</ele>
        <time>2016-03-01T11:22:45Z</time>
      </trkpt>
      <trkpt lat="45.5084" lon="6.6019">
        <ele>1442.11</ele>
        <time>2016-03-01T11:22:47Z</time>
      </trkpt>
      <trkpt lat="45.50813" lon="6.60153">
        <ele>1438.27</ele>
        <time>2016-03-01T11:22:53Z</time>
      </trkpt>
      <trkpt lat="45.50805" lon="6.60137">
        <ele>1437.31</ele>
        <time>2016-03-01T11:22:55Z</time>
      </trkpt>
      <trkpt lat="45.50791" lon="6.60104">
        <ele>1433.94</ele>
        <time>2016-03-01T11:22:59Z</time>
      </trkpt>
      <trkpt lat="45.50776" lon="6.60057">
        <ele>1430.58</ele>
        <time>2016-03-01T11:23:04Z</time>
      </trkpt>
      <trkpt lat="45.50762" lon="6.60021">
        <ele>1427.21</ele>
        <time>2016-03-01T11:23:08Z</time>
      </trkpt>
      <trkpt lat="45.50744" lon="6.59976">
        <ele>1423.85</ele>
        <time>2016-03-01T11:23:13Z</time>
      </trkpt>
      <trkpt lat="45.50731" lon="6.59952">
        <ele>1422.41</ele>
        <time>2016-03-01T11:23:16Z</time>
      </trkpt>
      <trkpt lat="45.50727" lon="6.59946">
        <ele>1421.45</ele>
        <time>2016-03-01T11:23:17Z</time>
      </trkpt>
      <trkpt lat="45.50706" lon="6.59913">
        <ele>1419.04</ele>
        <time>2016-03-01T11:23:22Z</time>
      </trkpt>
      <trkpt lat="45.50703" lon="6.59905">
        <ele>1418.56</ele>
        <time>2016-03-01T11:23:23Z</time>
      </trkpt>
      <trkpt lat="45.507" lon="6.59888">
        <ele>1417.6</ele>
        <time>2016-03-01T11:23:25Z</time>
      </trkpt>
      <trkpt lat="45.507" lon="6.59879">
        <ele>1417.12</ele>
        <time>2016-03-01T11:23:26Z</time>
      </trkpt>
      <trkpt lat="45.50704" lon="6.59835">
        <ele>1414.24</ele>
        <time>2016-03-01T11:23:31Z</time>
      </trkpt>
      <trkpt lat="45.50705" lon="6.59799">
        <ele>1410.87</ele>
        <time>2016-03-01T11:23:35Z</time>
      </trkpt>
      <trkpt lat="45.50702" lon="6.59786">
        <ele>1410.39</ele>
        <time>2016-03-01T11:23:36Z</time>
      </trkpt>
      <trkpt lat="45.50689" lon="6.59734">
        <ele>1407.03</ele>
        <time>2016-03-01T11:23:41Z</time>
      </trkpt>
      <trkpt lat="45.50678" lon="6.59672">
        <ele>1403.18</ele>
        <time>2016-03-01T11:23:48Z</time>
      </trkpt>
      <trkpt lat="45.50677" lon="6.59665">
        <ele>1402.7</ele>
        <time>2016-03-01T11:23:49Z</time>
      </trkpt>
      <trkpt lat="45.50675" lon="6.59661">
        <ele>1401.74</ele>
        <time>2016-03-01T11:23:50Z</time>
      </trkpt>
      <trkpt lat="45.50673" lon="6.5966">
        <ele>1400.3</ele>
        <time>2016-03-01T11:23:51Z</time>
      </trkpt>
      <trkpt lat="45.50671" lon="6.5966">
        <ele>1400.3</ele>
        <time>2016-03-01T11:23:52Z</time>
      </trkpt>
      <trkpt lat="45.50672" lon="6.59662">
        <ele>1398.86</ele>
        <time>2016-03-01T11:23:53Z</time>
      </trkpt>
      <trkpt lat="45.50677" lon="6.59666">
        <ele>1398.37</ele>
        <time>2016-03-01T11:23:54Z</time>
      </trkpt>
      <trkpt lat="45.50682" lon="6.5967">
        <ele>1395.97</ele>
        <time>2016-03-01T11:23:55Z</time>
      </trkpt>
      <trkpt lat="45.50685" lon="6.59671">
        <ele>1395.97</ele>
        <time>2016-03-01T11:23:56Z</time>
      </trkpt>
      <trkpt lat="45.50687" lon="6.59671">
        <ele>1395.49</ele>
        <time>2016-03-01T11:23:57Z</time>
      </trkpt>
      <trkpt lat="45.50689" lon="6.5967">
        <ele>1395.49</ele>
        <time>2016-03-01T11:23:58Z</time>
      </trkpt>
      <trkpt lat="45.50689" lon="6.59668">
        <ele>1394.53</ele>
        <time>2016-03-01T11:23:59Z</time>
      </trkpt>
      <trkpt lat="45.50691" lon="6.59664">
        <ele>1391.65</ele>
        <time>2016-03-01T11:24:01Z</time>
      </trkpt>
      <trkpt lat="45.50691" lon="6.59662">
        <ele>1390.2</ele>
        <time>2016-03-01T11:24:02Z</time>
      </trkpt>
      <trkpt lat="45.507" lon="6.59659">
        <ele>1387.32</ele>
        <time>2016-03-01T11:24:04Z</time>
      </trkpt>
      <trkpt lat="45.50702" lon="6.59656">
        <ele>1386.84</ele>
        <time>2016-03-01T11:24:05Z</time>
      </trkpt>
      <trkpt lat="45.50702" lon="6.59651">
        <ele>1384.44</ele>
        <time>2016-03-01T11:24:07Z</time>
      </trkpt>
      <trkpt lat="45.50708" lon="6.5964">
        <ele>1381.55</ele>
        <time>2016-03-01T11:24:09Z</time>
      </trkpt>
      <trkpt lat="45.50714" lon="6.59626">
        <ele>1377.23</ele>
        <time>2016-03-01T11:24:11Z</time>
      </trkpt>
      <trkpt lat="45.50725" lon="6.59619">
        <ele>1374.34</ele>
        <time>2016-03-01T11:24:13Z</time>
      </trkpt>
      <trkpt lat="45.5073" lon="6.59619">
        <ele>1372.9</ele>
        <time>2016-03-01T11:24:14Z</time>
      </trkpt>
      <trkpt lat="45.50738" lon="6.59615">
        <ele>1369.05</ele>
        <time>2016-03-01T11:24:17Z</time>
      </trkpt>
      <trkpt lat="45.50742" lon="6.59613">
        <ele>1368.57</ele>
        <time>2016-03-01T11:24:18Z</time>
      </trkpt>
      <trkpt lat="45.50749" lon="6.59601">
        <ele>1365.21</ele>
        <time>2016-03-01T11:24:21Z</time>
      </trkpt>
      <trkpt lat="45.50754" lon="6.59603">
        <ele>1363.29</ele>
        <time>2016-03-01T11:24:23Z</time>
      </trkpt>
      <trkpt lat="45.50755" lon="6.59606">
        <ele>1360.88</ele>
        <time>2016-03-01T11:24:24Z</time>
      </trkpt>
      <trkpt lat="45.50759" lon="6.59606">
        <ele>1359.44</ele>
        <time>2016-03-01T11:24:25Z</time>
      </trkpt>
      <trkpt lat="45.50761" lon="6.59606">
        <ele>1358</ele>
        <time>2016-03-01T11:24:26Z</time>
      </trkpt>
      <trkpt lat="45.50765" lon="6.59607">
        <ele>1355.12</ele>
        <time>2016-03-01T11:24:27Z</time>
      </trkpt>
      <trkpt lat="45.50771" lon="6.59608">
        <ele>1353.67</ele>
        <time>2016-03-01T11:24:28Z</time>
      </trkpt>
      <trkpt lat="45.50785" lon="6.59604">
        <ele>1349.83</ele>
        <time>2016-03-01T11:24:30Z</time>
      </trkpt>
      <trkpt lat="45.50804" lon="6.59599">
        <ele>1345.5</ele>
        <time>2016-03-01T11:24:33Z</time>
      </trkpt>
      <trkpt lat="45.50814" lon="6.59588">
        <ele>1340.22</ele>
        <time>2016-03-01T11:24:35Z</time>
      </trkpt>
      <trkpt lat="45.50818" lon="6.59582">
        <ele>1337.81</ele>
        <time>2016-03-01T11:24:36Z</time>
      </trkpt>
      <trkpt lat="45.50826" lon="6.59566">
        <ele>1333.49</ele>
        <time>2016-03-01T11:24:39Z</time>
      </trkpt>
      <trkpt lat="45.50829" lon="6.59555">
        <ele>1329.64</ele>
        <time>2016-03-01T11:24:40Z</time>
      </trkpt>
      <trkpt lat="45.50832" lon="6.59552">
        <ele>1328.2</ele>
        <time>2016-03-01T11:24:41Z</time>
      </trkpt>
      <trkpt lat="45.50834" lon="6.59549">
        <ele>1327.24</ele>
        <time>2016-03-01T11:24:42Z</time>
      </trkpt>
      <trkpt lat="45.50835" lon="6.59544">
        <ele>1325.8</ele>
        <time>2016-03-01T11:24:43Z</time>
      </trkpt>
      <trkpt lat="45.5084" lon="6.59538">
        <ele>1320.51</ele>
        <time>2016-03-01T11:24:45Z</time>
      </trkpt>
      <trkpt lat="45.50844" lon="6.59532">
        <ele>1319.07</ele>
        <time>2016-03-01T11:24:46Z</time>
      </trkpt>
      <trkpt lat="45.50849" lon="6.59522">
        <ele>1317.62</ele>
        <time>2016-03-01T11:24:48Z</time>
      </trkpt>
      <trkpt lat="45.50849" lon="6.59515">
        <ele>1316.18</ele>
        <time>2016-03-01T11:24:49Z</time>
      </trkpt>
      <trkpt lat="45.50851" lon="6.59509">
        <ele>1314.26</ele>
        <time>2016-03-01T11:24:50Z</time>
      </trkpt>
      <trkpt lat="45.50849" lon="6.59507">
        <ele>1311.86</ele>
        <time>2016-03-01T11:24:51Z</time>
      </trkpt>
      <trkpt lat="45.5085" lon="6.59504">
        <ele>1310.9</ele>
        <time>2016-03-01T11:24:52Z</time>
      </trkpt>
      <trkpt lat="45.50858" lon="6.5948">
        <ele>1306.09</ele>
        <time>2016-03-01T11:24:55Z</time>
      </trkpt>
      <trkpt lat="45.50871" lon="6.59462">
        <ele>1301.76</ele>
        <time>2016-03-01T11:24:58Z</time>
      </trkpt>
      <trkpt lat="45.50877" lon="6.59451">
        <ele>1297.92</ele>
        <time>2016-03-01T11:24:59Z</time>
      </trkpt>
      <trkpt lat="45.5088" lon="6.59445">
        <ele>1297.92</ele>
        <time>2016-03-01T11:25:00Z</time>
      </trkpt>
      <trkpt lat="45.50886" lon="6.59437">
        <ele>1295.51</ele>
        <time>2016-03-01T11:25:01Z</time>
      </trkpt>
      <trkpt lat="45.5089" lon="6.59432">
        <ele>1292.15</ele>
        <time>2016-03-01T11:25:02Z</time>
      </trkpt>
      <trkpt lat="45.50892" lon="6.59426">
        <ele>1290.23</ele>
        <time>2016-03-01T11:25:03Z</time>
      </trkpt>
      <trkpt lat="45.50898" lon="6.59419">
        <ele>1289.27</ele>
        <time>2016-03-01T11:25:04Z</time>
      </trkpt>
      <trkpt lat="45.50918" lon="6.59402">
        <ele>1281.09</ele>
        <time>2016-03-01T11:25:08Z</time>
      </trkpt>
      <trkpt lat="45.50938" lon="6.5938">
        <ele>1276.77</ele>
        <time>2016-03-01T11:25:11Z</time>
      </trkpt>
      <trkpt lat="45.50954" lon="6.59364">
        <ele>1273.88</ele>
        <time>2016-03-01T11:25:13Z</time>
      </trkpt>
      <trkpt lat="45.50962" lon="6.59359">
        <ele>1271</ele>
        <time>2016-03-01T11:25:14Z</time>
      </trkpt>
      <trkpt lat="45.50968" lon="6.59352">
        <ele>1269.56</ele>
        <time>2016-03-01T11:25:15Z</time>
      </trkpt>
      <trkpt lat="45.50968" lon="6.59355">
        <ele>1268.12</ele>
        <time>2016-03-01T11:25:16Z</time>
      </trkpt>
      <trkpt lat="45.50956" lon="6.59351">
        <ele>1269.08</ele>
        <time>2016-03-01T11:25:25Z</time>
      </trkpt>
      <trkpt lat="45.50951" lon="6.59347">
        <ele>1269.56</ele>
        <time>2016-03-01T11:25:38Z</time>
      </trkpt>
      <trkpt lat="45.50946" lon="6.59359">
        <ele>1270.52</ele>
        <time>2016-03-01T11:25:57Z</time>
      </trkpt>
      <trkpt lat="45.50938" lon="6.59375">
        <ele>1271</ele>
        <time>2016-03-01T11:26:22Z</time>
      </trkpt>
      <trkpt lat="45.5094" lon="6.59375">
        <ele>1271</ele>
        <time>2016-03-01T11:26:24Z</time>
      </trkpt>
      <trkpt lat="45.50946" lon="6.59374">
        <ele>1271.48</ele>
        <time>2016-03-01T11:26:29Z</time>
      </trkpt>
      <trkpt lat="45.50964" lon="6.59387">
        <ele>1272.92</ele>
        <time>2016-03-01T11:26:46Z</time>
      </trkpt>
      <trkpt lat="45.50977" lon="6.59395">
        <ele>1273.4</ele>
        <time>2016-03-01T11:26:59Z</time>
      </trkpt>
      <trkpt lat="45.50988" lon="6.59393">
        <ele>1271.96</ele>
        <time>2016-03-01T11:27:10Z</time>
      </trkpt>
      <trkpt lat="45.50989" lon="6.59391">
        <ele>1271.96</ele>
        <time>2016-03-01T11:27:12Z</time>
      </trkpt>
      <trkpt lat="45.50995" lon="6.59382">
        <ele>1271.96</ele>
        <time>2016-03-01T11:27:27Z</time>
      </trkpt>
      <trkpt lat="45.50994" lon="6.59379">
        <ele>1271.96</ele>
        <time>2016-03-01T11:27:46Z</time>
      </trkpt>
      <trkpt lat="45.50992" lon="6.5938">
        <ele>1272.44</ele>
        <time>2016-03-01T11:28:11Z</time>
      </trkpt>
      <trkpt lat="45.50988" lon="6.5938">
        <ele>1272.44</ele>
        <time>2016-03-01T11:28:26Z</time>
      </trkpt>
      <trkpt lat="45.50995" lon="6.59383">
        <ele>1272.44</ele>
        <time>2016-03-01T11:28:43Z</time>
      </trkpt>
      <trkpt lat="45.50996" lon="6.59381">
        <ele>1271.96</ele>
        <time>2016-03-01T11:28:59Z</time>
      </trkpt>
      <trkpt lat="45.50994" lon="6.59382">
        <ele>1273.4</ele>
        <time>2016-03-01T11:29:07Z</time>
      </trkpt>
      <trkpt lat="45.50994" lon="6.59382">
        <ele>1271.96</ele>
        <time>2016-03-01T11:29:22Z</time>
      </trkpt>
    </trkseg>
  </trk>
</gpx>